[[{"header":{"parameterUnit":"m.s-1","parameterCategory":1,"la1":30.6,"la2":28.766,"lo1":-90.7593,"lo2":-88.6598,"dy":0.0162,"dx":0.0183,"nx":116,"ny":114,"refTime":"2023-03-04T18:00:00:Z","depth":0,"parameterNumber":2,"parameterNumberName":"U-component_of_WINDS"},"data":[0.0,0.0,0.0,0.0,0.0,0.0,0.0,0.0,0.0,0.0,0.0,0.0,0.0,0.0,0.0,0.0,0.0,0.0,0.0,0.0,0.0,0.0,0.0,0.0,0.0,0.0,0.0,0.0,0.0,0.0,0.0,0.0,0.0,0.0,0.0,0.0,0.0,0.0,0.0,0.0,0.0,0.0,0.0,0.0,0.0,0.0,0.0,0.0,0.0,0.0,0.0,0.0,0.0,0.0,0.0,0.0,0.0,0.0,0.0,0.0,0.0,0.0,0.0,0.0,0.0,0.0,0.0,0.0,0.0,0.0,0.0,0.0,0.0,0.0,0.0,0.0,0.0,0.0,0.0,0.0,0.0,0.0,0.0,0.0,0.0,0.0,0.0,0.0,0.0,0.0,0.0,0.0,0.0,0.0,0.0,0.0,0.0,0.0,0.0,0.0,0.0,0.0,0.0,0.0,0.0,0.0,0.0,0.0,0.0,0.0,0.0,0.0,0.0,0.0,0.0,0.0,0.0,0.0,0.0,0.0,0.0,0.0,0.0,0.0,0.0,0.0,0.0,0.0,0.0,0.0,0.0,0.0,0.0,0.0,0.0,0.0,0.0,0.0,0.0,0.0,0.0,0.0,0.0,0.0,0.0,0.0,0.0,0.0,0.0,0.0,0.0,0.0,0.0,0.0,0.0,0.0,0.0,0.0,0.0,0.0,0.0,0.0,0.0,0.0,0.0,0.0,0.0,0.0,0.0,0.0,0.0,0.0,0.0,0.0,0.0,0.0,0.0,0.0,0.0,0.0,0.0,0.0,0.0,0.0,0.0,0.0,0.0,0.0,0.0,0.0,0.0,0.0,0.0,0.0,0.0,0.0,0.0,0.0,0.0,0.0,0.0,0.0,0.0,0.0,0.0,0.0,0.0,0.0,0.0,0.0,0.0,0.0,0.0,0.0,0.0,0.0,0.0,0.0,0.0,0.0,0.0,0.0,0.0,0.0,0.0,0.0,0.0,0.0,0.0,0.0,0.0,0.0,0.0,0.0,0.0,0.0,0.0,0.0,0.0,0.0,0.0,0.0,0.0,0.0,0.0,0.0,0.0,0.0,0.0,0.0,0.0,0.0,0.0,0.0,0.0,0.0,0.0,0.0,0.0,0.0,0.0,0.0,0.0,0.0,0.0,0.0,0.0,0.0,0.0,0.0,0.0,0.0,0.0,0.0,0.0,0.0,0.0,0.0,0.0,0.0,0.0,0.0,0.0,0.0,0.0,0.0,0.0,0.0,0.0,0.0,0.0,0.0,0.0,0.0,0.0,0.0,0.0,0.0,0.0,0.0,0.0,0.0,0.0,0.0,0.0,0.0,0.0,0.0,0.0,0.0,0.0,0.0,0.0,0.0,0.0,0.0,0.0,0.0,0.0,0.0,0.0,0.0,0.0,0.0,0.0,0.0,0.0,0.0,0.0,0.0,0.0,0.0,0.0,0.0,0.0,0.0,0.0,0.0,0.0,0.0,0.0,0.0,0.0,0.0,0.0,0.0,0.0,0.0,0.0,0.0,0.0,0.0,0.0,0.0,0.0,0.0,0.0,0.0,0.0,0.0,0.0,0.0,0.0,0.0,0.0,0.0,0.0,0.0,0.0,0.0,0.0,0.0,0.0,0.0,0.0,0.0,0.0,0.0,0.0,0.0,0.0,0.0,0.0,0.0,0.0,0.0,0.0,0.0,0.0,0.0,0.0,0.0,0.0,0.0,0.0,0.0,0.0,0.0,0.0,0.0,0.0,0.0,0.0,0.0,0.0,0.0,0.0,0.0,0.0,0.0,0.0,0.0,0.0,0.0,0.0,0.0,0.0,0.0,0.0,0.0,0.0,0.0,0.0,0.0,0.0,0.0,0.0,0.0,0.0,0.0,0.0,0.0,0.0,0.0,0.0,0.0,0.0,0.0,0.0,0.0,0.0,0.0,0.0,0.0,0.0,0.0,0.0,0.0,0.0,0.0,0.0,0.0,0.0,0.0,0.0,0.0,0.0,0.0,0.0,0.0,0.0,0.0,0.0,0.0,0.0,0.0,0.0,0.0,0.0,0.0,0.0,0.0,0.0,0.0,0.0,0.0,0.0,0.0,0.0,0.0,0.0,0.0,0.0,0.0,0.0,0.0,0.0,0.0,0.0,0.0,0.0,0.0,0.0,0.0,0.0,0.0,0.0,0.0,0.0,0.0,0.0,0.0,0.0,0.0,0.0,0.0,0.0,0.0,0.0,0.0,0.0,0.0,0.0,0.0,0.0,0.0,0.0,0.0,0.0,0.0,0.0,0.0,0.0,0.0,0.0,0.0,0.0,0.0,0.0,0.0,0.0,0.0,0.0,0.0,0.0,0.0,0.0,0.0,0.0,0.0,0.0,0.0,0.0,0.0,0.0,0.0,0.0,0.0,0.0,0.0,0.0,0.0,0.0,0.0,0.0,0.0,0.0,0.0,0.0,0.0,0.0,0.0,0.0,0.0,0.0,0.0,0.0,0.0,0.0,0.0,0.0,0.0,0.0,0.0,0.0,0.0,0.0,0.0,0.0,0.0,0.0,0.0,0.0,0.0,0.0,0.0,0.0,0.0,0.0,0.0,0.0,0.0,0.0,0.0,0.0,0.0,0.0,0.0,0.0,0.0,0.0,0.0,0.0,0.0,0.0,0.0,0.0,0.0,0.0,0.0,0.0,0.0,0.0,0.0,0.0,0.0,0.0,0.0,0.0,0.0,0.0,0.0,0.0,0.0,0.0,0.0,0.0,0.0,0.0,0.0,0.0,0.0,0.0,0.0,0.0,0.0,0.0,0.0,0.0,0.0,0.0,0.0,0.0,0.0,0.0,0.0,0.0,0.0,0.0,0.0,0.0,0.0,0.0,0.0,0.0,0.0,0.0,0.0,0.0,0.0,0.0,0.0,0.0,0.0,0.0,0.0,0.0,0.0,0.0,0.0,0.0,0.0,0.0,0.0,0.0,0.0,0.0,0.0,0.0,0.0,0.0,0.0,0.0,0.0,0.0,0.0,0.0,0.0,0.0,0.0,0.0,0.0,0.0,0.0,0.0,0.0,0.0,0.0,0.0,0.0,0.0,0.0,0.0,0.0,0.0,0.0,0.0,0.0,0.0,0.0,0.0,0.0,0.0,0.0,0.0,0.0,0.0,0.0,0.0,0.0,0.0,0.0,0.0,0.0,0.0,0.0,0.0,0.0,0.0,0.0,0.0,0.0,0.0,0.0,0.0,0.0,0.0,0.0,0.0,0.0,0.0,0.0,0.0,0.0,0.0,0.0,0.0,0.0,0.0,0.0,0.0,0.0,0.0,0.0,0.0,0.0,0.0,0.0,0.0,0.0,0.0,0.0,0.0,0.0,0.0,0.0,0.0,0.0,0.0,0.0,0.0,0.0,0.0,0.0,0.0,0.0,0.0,0.0,0.0,0.0,0.0,0.0,0.0,0.0,0.0,0.0,0.0,0.0,0.0,0.0,0.0,0.0,0.0,0.0,0.0,0.0,0.0,0.0,0.0,0.0,0.0,0.0,0.0,0.0,0.0,0.0,0.0,0.0,0.0,0.0,0.0,0.0,0.0,0.0,0.0,0.0,0.0,0.0,0.0,0.0,0.0,0.0,0.0,0.0,0.0,0.0,0.0,0.0,0.0,0.0,0.0,0.0,0.0,0.0,0.0,0.0,0.0,0.0,0.0,0.0,0.0,0.0,0.0,0.0,0.0,0.0,0.0,0.0,0.0,0.0,0.0,0.0,0.0,0.0,0.0,0.0,0.0,0.0,0.0,0.0,0.0,0.0,0.0,0.0,0.0,0.0,0.0,0.0,0.0,0.0,0.0,0.0,0.0,0.0,0.0,0.0,0.0,0.0,0.0,0.0,0.0,0.0,0.0,0.0,0.0,0.0,0.0,0.0,0.0,0.0,0.0,0.0,0.0,0.0,0.0,0.0,0.0,0.0,0.0,0.0,0.0,0.0,0.0,0.0,0.0,0.0,0.0,0.0,0.0,0.0,0.0,0.0,0.0,0.0,0.0,0.0,0.0,0.0,0.0,0.0,0.0,0.0,0.0,0.0,0.0,0.0,0.0,0.0,0.0,0.0,0.0,0.0,0.0,0.0,0.0,0.0,0.0,0.0,0.0,0.0,0.0,0.0,0.0,0.0,0.0,0.0,0.0,0.0,0.0,0.0,0.0,0.0,0.0,0.0,0.0,0.0,0.0,0.0,0.0,0.0,0.0,0.0,0.0,0.0,0.0,0.0,0.0,0.0,0.0,0.0,0.0,0.0,0.0,0.0,0.0,0.0,0.0,0.0,0.0,0.0,0.0,0.0,0.0,0.0,0.0,0.0,0.0,0.0,0.0,0.0,0.0,0.0,0.0,0.0,0.0,0.0,0.0,0.0,0.0,0.0,0.0,0.0,0.0,0.0,0.0,0.0,0.0,0.0,0.0,0.0,0.0,0.0,0.0,0.0,0.0,0.0,0.0,0.0,0.0,0.0,0.0,0.0,0.0,0.0,0.0,0.0,0.0,0.0,0.0,0.0,0.0,0.0,0.0,0.0,0.0,0.0,0.0,0.0,0.0,0.0,0.0,0.0,0.0,0.0,0.0,0.0,0.0,0.0,0.0,0.0,0.0,0.0,0.0,0.0,0.0,0.0,0.0,0.0,0.0,0.0,0.0,0.0,0.0,0.0,0.0,0.0,0.0,0.0,0.0,0.0,0.0,0.0,0.0,0.0,0.0,0.0,0.0,0.0,0.0,0.0,0.0,0.0,0.0,0.0,0.0,0.0,0.0,0.0,0.0,0.0,0.0,0.0,0.0,0.0,0.0,0.0,0.0,0.0,0.0,0.0,0.0,0.0,0.0,0.0,0.0,0.0,0.0,0.0,0.0,0.0,0.0,0.0,0.0,0.0,0.0,0.0,0.0,0.0,0.0,0.0,0.0,0.0,0.0,0.0,0.0,0.0,0.0,0.0,0.0,0.0,0.0,0.0,0.0,0.0,0.0,0.0,0.0,0.0,0.0,0.0,0.0,0.0,0.0,0.0,0.0,0.0,0.0,0.0,0.0,0.0,0.0,0.0,0.0,0.0,0.0,0.0,0.0,0.0,0.0,0.0,0.0,0.0,0.0,0.0,0.0,0.0,0.0,0.0,0.0,0.0,0.0,0.0,0.0,0.0,0.0,0.0,0.0,0.0,0.0,0.0,0.0,0.0,0.0,0.0,0.0,0.0,0.0,0.0,0.0,0.0,0.0,0.0,0.0,0.0,0.0,0.0,0.0,0.0,0.0,0.0,0.0,0.0,0.0,0.0,0.0,0.0,0.0,0.0,0.0,0.0,0.0,0.0,0.0,0.0,0.0,0.0,0.0,0.0,0.0,0.0,0.0,0.0,0.0,0.0,0.0,0.0,0.0,0.0,0.0,0.0,0.0,0.0,0.0,0.0,0.0,0.0,0.0,0.0,0.0,0.0,0.0,0.0,0.0,0.0,0.0,0.0,0.0,0.0,0.0,0.0,0.0,0.0,0.0,0.0,0.0,0.0,0.0,0.0,0.0,0.0,0.0,0.0,0.0,0.0,0.0,0.0,0.0,0.0,0.0,0.0,0.0,0.0,0.0,0.0,0.0,0.0,0.0,0.0,0.0,0.0,0.0,0.0,0.0,0.0,0.0,0.0,0.0,0.0,0.0,0.0,0.0,0.0,0.0,0.0,0.0,0.0,0.0,0.0,0.0,0.0,0.0,0.0,0.0,0.0,0.0,0.0,0.0,0.0,0.0,0.0,0.0,0.0,0.0,0.0,0.0,0.0,0.0,0.0,0.0,0.0,0.0,0.0,0.0,0.0,0.0,0.0,0.0,0.0,0.0,0.0,0.0,0.0,0.0,0.0,0.0,0.0,0.0,0.0,0.0,0.0,0.0,0.0,0.0,0.0,0.0,0.0,0.0,0.0,0.0,0.0,0.0,0.0,0.0,0.0,0.0,0.0,0.0,0.0,0.0,0.0,0.0,0.0,0.0,0.0,0.0,0.0,0.0,0.0,0.0,0.0,0.0,0.0,0.0,0.0,0.0,0.0,0.0,0.0,0.0,0.0,2.9475,0.0,0.0,0.0,0.0,0.0,0.0,0.0,0.0,0.0,0.0,0.0,0.0,0.0,0.0,0.0,0.0,0.0,0.0,0.0,0.0,0.0,0.0,0.0,0.0,0.0,0.0,0.0,0.0,0.0,0.0,0.0,0.0,0.0,0.0,0.0,0.0,0.0,0.0,0.0,0.0,0.0,0.0,0.0,0.0,0.0,0.0,0.0,0.0,0.0,0.0,0.0,0.0,0.0,0.0,0.0,0.0,0.0,0.0,0.0,0.0,0.0,0.0,0.0,0.0,0.0,0.0,0.0,0.0,0.0,0.0,0.0,0.0,0.0,0.0,0.0,0.0,0.0,0.0,0.0,0.0,0.0,0.0,0.0,0.0,0.0,0.0,0.0,0.0,0.0,0.0,0.0,0.0,0.0,0.0,0.0,0.0,0.0,0.0,0.0,0.0,0.0,0.0,0.0,0.0,0.0,0.0,0.0,0.0,0.0,0.0,0.0,0.0,0.0,0.0,0.0,0.0,3.2312,0.0,0.0,0.0,0.0,0.0,0.0,0.0,0.0,0.0,0.0,0.0,0.0,0.0,0.0,0.0,0.0,0.0,0.0,0.0,0.0,0.0,0.0,0.0,0.0,0.0,0.0,0.0,0.0,0.0,0.0,0.0,0.0,0.0,0.0,0.0,0.0,0.0,0.0,0.0,0.0,0.0,0.0,0.0,0.0,0.0,0.0,0.0,0.0,0.0,0.0,0.0,0.0,0.0,0.0,0.0,0.0,0.0,0.0,0.0,0.0,0.0,0.0,0.0,0.0,0.0,0.0,0.0,0.0,0.0,0.0,0.0,0.0,0.0,0.0,0.0,0.0,0.0,0.0,0.0,0.0,0.0,0.0,0.0,0.0,0.0,0.0,0.0,0.0,0.0,0.0,0.0,0.0,0.0,0.0,0.0,0.0,0.0,0.0,0.0,0.0,0.0,0.0,0.0,0.0,0.0,0.0,0.0,0.0,3.6969,3.7998,3.9337,3.9258,3.9628,4.0227,3.6989,3.6074,3.6677,3.4328,0.0,0.0,0.0,0.0,0.0,0.0,0.0,0.0,0.0,0.0,0.0,0.0,0.0,0.0,0.0,0.0,0.0,0.0,0.0,0.0,0.0,0.0,0.0,0.0,0.0,0.0,0.0,0.0,0.0,0.0,0.0,0.0,0.0,0.0,0.0,0.0,0.0,0.0,2.6826,2.738,2.7425,2.6979,2.4728,0.0,0.0,0.0,0.0,0.0,0.0,0.0,0.0,0.0,0.0,0.0,0.0,0.0,0.0,0.0,0.0,0.0,0.0,0.0,0.0,0.0,0.0,0.0,0.0,0.0,0.0,0.0,0.0,0.0,0.0,0.0,0.0,0.0,0.0,0.0,0.0,0.0,0.0,0.0,0.0,0.0,0.0,0.0,2.7945,2.8839,0.0,0.0,0.0,0.0,0.0,0.0,0.0,0.0,0.0,0.0,0.0,0.0,0.0,3.5188,3.6592,3.8155,3.9331,4.0185,4.0894,4.177,4.2664,4.2523,4.2886,4.3541,4.2377,0.0,3.8998,3.6754,0.0,0.0,0.0,0.0,0.0,0.0,0.0,0.0,0.0,0.0,0.0,0.0,0.0,0.0,0.0,0.0,0.0,0.0,0.0,0.0,0.0,0.0,0.0,0.0,0.0,0.0,0.0,0.0,0.0,0.0,0.0,0.0,0.0,0.0,0.0,0.0,2.6072,2.7767,2.849,2.8858,2.8943,2.8778,2.7649,2.6787,2.6036,2.491,0.0,0.0,0.0,0.0,0.0,0.0,0.0,0.0,0.0,0.0,0.0,0.0,0.0,0.0,0.0,0.0,0.0,0.0,0.0,0.0,0.0,0.0,0.0,0.0,0.0,0.0,0.0,0.0,0.0,0.0,0.0,0.0,0.0,0.0,0.0,0.0,0.0,0.0,0.0,2.808,2.9769,2.9509,2.8912,2.8521,0.0,0.0,0.0,0.0,0.0,0.0,0.0,0.0,0.0,3.5955,3.7132,3.8462,4.001,4.0708,4.1643,4.2867,4.3105,4.3706,4.4526,4.4393,4.4536,4.4787,4.4499,4.3756,4.2577,3.9878,3.8533,3.7942,0.0,0.0,0.0,0.0,3.4223,3.4561,0.0,0.0,0.0,0.0,0.0,0.0,0.0,0.0,0.0,0.0,0.0,0.0,0.0,0.0,0.0,1.7743,0.0,0.0,0.0,0.0,0.0,0.0,0.0,0.0,0.0,0.0,0.0,0.0,2.8651,2.9763,3.0496,3.0567,3.0567,3.0481,3.0387,2.9288,2.7396,2.6823,2.5642,0.0,0.0,0.0,0.0,0.0,0.0,0.0,0.0,0.0,0.0,0.0,0.0,0.0,0.0,0.0,0.0,0.0,0.0,0.0,0.0,0.0,0.0,0.0,0.0,0.0,0.0,0.0,0.0,0.0,0.0,0.0,0.0,0.0,0.0,0.0,0.0,0.0,0.0,2.9564,3.1263,3.0442,3.0604,3.0694,0.0,0.0,0.0,0.0,0.0,0.0,3.4428,3.5732,3.7162,3.8821,4.0081,4.1432,4.2814,4.2887,4.3615,4.498,4.4867,4.5303,4.6103,4.5965,4.5906,4.5906,4.5906,4.5798,4.5399,4.2685,4.1194,4.0455,3.9203,3.8645,3.8361,3.7258,3.7174,3.7595,0.0,0.0,0.0,0.0,0.0,0.0,0.0,0.0,0.0,0.0,0.0,0.0,0.0,0.0,2.0224,2.0576,2.0719,2.1004,0.0,0.0,0.0,0.0,0.0,0.0,0.0,0.0,0.0,3.0176,3.1235,3.2178,3.3136,3.3244,3.3244,3.3121,3.2602,3.1468,2.9898,2.8384,2.7638,2.7219,0.0,0.0,0.0,0.0,0.0,0.0,0.0,0.0,0.0,0.0,0.0,0.0,0.0,0.0,0.0,0.0,0.0,0.0,0.0,0.0,0.0,0.0,0.0,0.0,0.0,0.0,0.0,0.0,0.0,0.0,0.0,0.0,0.0,0.0,0.0,0.0,0.0,0.0,0.0,3.2346,3.2712,0.0,0.0,0.0,0.0,3.4026,3.4448,3.5872,3.8805,3.9767,4.1017,4.2759,4.35,4.4295,4.511,4.5264,4.5739,4.6575,4.6575,4.7011,4.7793,4.7632,4.7591,4.7591,4.7591,4.7156,4.6305,4.4681,4.3613,4.2832,4.2085,4.1334,4.0708,4.0568,4.0602,4.0653,0.0,0.0,0.0,0.0,0.0,0.0,0.0,0.0,0.0,0.0,0.0,0.0,0.0,2.0386,2.1859,2.2027,2.3008,2.3249,2.2454,0.0,0.0,0.0,0.0,0.0,0.0,0.0,2.8771,3.0906,3.2376,3.3141,3.3283,3.3438,3.3453,3.3268,3.3199,3.2856,3.2307,3.0403,2.8763,2.7473,2.6336,2.4608,0.0,0.0,0.0,0.0,0.0,0.0,0.0,0.0,0.0,0.0,0.0,0.0,0.0,0.0,0.0,0.0,0.0,0.0,0.0,0.0,0.0,0.0,0.0,0.0,0.0,0.0,0.0,0.0,0.0,0.0,0.0,0.0,0.0,0.0,0.0,0.0,0.0,3.3471,3.4082,0.0,3.4753,3.4203,3.4789,3.7075,3.7442,3.8703,4.1283,4.1791,4.2693,4.4263,4.461,4.5116,4.5928,4.6494,4.7205,4.8001,4.8421,4.8836,4.9213,4.9151,4.9151,4.9238,4.9238,4.9032,4.8638,4.8103,4.6517,4.4479,4.4227,4.3995,4.3688,4.265,4.2323,4.2232,0.0,0.0,0.0,0.0,0.0,0.0,0.0,0.0,0.0,0.0,0.0,1.8142,1.9635,2.2054,2.3585,2.3692,2.467,2.4806,2.3744,0.0,0.0,0.0,0.0,0.0,0.0,2.8735,3.0548,3.2216,3.3291,3.3928,3.4184,3.4088,3.4166,3.4248,3.3976,3.389,3.3832,3.208,3.041,2.8839,2.7758,2.6104,2.4233,0.0,0.0,0.0,0.0,0.0,0.0,0.0,0.0,0.0,0.0,0.0,0.0,0.0,0.0,0.0,0.0,0.0,0.0,0.0,0.0,0.0,0.0,0.0,0.0,0.0,0.0,0.0,0.0,0.0,0.0,0.0,0.0,0.0,0.0,3.322,3.508,3.4863,3.5971,3.6826,3.6984,3.7074,3.7895,3.9715,4.0262,4.1363,4.3166,4.3607,4.4317,4.5378,4.5714,4.6074,4.6614,4.7468,4.8179,4.872,4.9379,4.9757,4.9911,4.9911,4.9956,5.0045,5.009,5.0045,4.9911,4.9866,4.8604,4.6663,4.5974,4.5606,4.521,4.3779,4.3397,4.3634,0.0,0.0,0.0,0.0,0.0,0.0,0.0,0.0,0.0,0.0,1.8317,2.0604,2.1885,2.4006,2.5435,2.5679,2.5661,2.5521,2.5408,2.4372,0.0,0.0,0.0,0.0,3.0164,3.0691,3.2015,3.4214,3.4085,3.4684,3.5908,3.5407,3.5585,3.6134,3.5021,3.4502,3.4472,3.3439,3.2555,3.1592,2.8757,2.7478,2.6919,0.0,0.0,0.0,0.0,0.0,0.0,0.0,0.0,0.0,0.0,0.0,0.0,0.0,0.0,0.0,0.0,0.0,0.0,0.0,0.0,0.0,0.0,0.0,0.0,0.0,0.0,0.0,0.0,0.0,0.0,0.0,0.0,0.0,3.213,3.4724,3.6559,3.6594,3.8424,3.9403,3.8738,3.9952,4.1114,4.1892,4.2885,4.3797,4.4563,4.5392,4.5908,4.6241,4.696,4.7338,4.7356,4.8271,4.8774,4.8792,4.9415,4.9811,4.9983,4.9965,4.9965,4.9983,5.0118,5.0073,4.9938,4.9829,4.969,4.9364,4.7434,4.6205,4.5355,4.4126,4.4158,4.5003,0.0,0.0,0.0,0.0,0.0,0.0,0.0,0.0,0.0,0.0,1.8483,2.0623,2.2394,2.4508,2.594,2.6306,2.5693,2.5331,2.5521,0.0,0.0,0.0,0.0,0.0,3.1273,3.2586,3.3713,3.4735,3.5141,3.579,3.6501,3.5937,3.5798,3.5931,3.517,3.4801,3.4756,3.4041,3.3632,3.3176,3.0852,2.9,2.7567,0.0,0.0,0.0,0.0,0.0,0.0,0.0,0.0,0.0,0.0,0.0,0.0,0.0,0.0,0.0,0.0,0.0,0.0,0.0,0.0,0.0,0.0,0.0,0.0,0.0,0.0,0.0,0.0,0.0,0.0,0.0,3.3112,3.5044,3.5265,3.6773,3.8099,3.8606,4.007,4.0971,4.0803,4.164,4.2554,4.3293,4.3801,4.4369,4.5057,4.5561,4.6114,4.6749,4.75,4.7984,4.8183,4.9475,5.0203,5.0297,5.0577,5.0973,5.1466,5.1002,5.1056,5.1502,5.1531,5.1484,5.1359,5.1311,5.1195,5.0968,4.9441,4.8641,4.8272,4.7439,4.7247,4.7409,0.0,0.0,0.0,0.0,0.0,0.0,0.0,0.0,0.0,0.0,1.9231,2.1329,2.3202,2.5114,2.6294,2.6411,2.612,2.5727,2.5361,0.0,0.0,0.0,0.0,3.158,3.2511,3.3765,3.4486,3.4668,3.538,3.6025,3.657,3.6344,3.6384,3.6659,3.5745,3.5495,3.5754,3.4707,3.4389,3.4322,3.2606,3.0808,2.9101,2.8261,2.7324,2.6406,2.6056,2.5907,2.5806,2.5277,0.0,0.0,0.0,0.0,0.0,0.0,0.0,0.0,0.0,0.0,0.0,0.0,0.0,0.0,0.0,0.0,0.0,0.0,0.0,0.0,0.0,0.0,0.0,0.0,3.495,3.6862,3.8436,3.9027,3.9582,4.031,4.1358,4.2174,4.2535,4.3243,4.3892,4.4378,4.4853,4.5429,4.6222,4.643,4.6813,4.7461,4.8135,4.8478,4.8416,4.9901,5.0755,5.0803,5.1257,5.1652,5.1987,5.1616,5.167,5.2005,5.2102,5.2005,5.1907,5.1907,5.1808,0.0,0.0,0.0,0.0,0.0,4.8442,4.8029,0.0,0.0,0.0,0.0,0.0,0.0,0.0,0.0,0.0,0.0,0.0,2.2217,2.3912,2.5455,2.6296,2.609,2.6425,2.6199,0.0,0.0,0.0,2.9793,3.0989,3.227,3.3761,3.439,3.4689,3.4617,3.5198,3.5836,3.6519,3.6675,3.708,3.7708,3.6541,3.636,3.6897,3.5419,3.4957,3.5103,3.4054,3.2694,3.1117,3.0021,2.946,2.9204,2.8901,2.8543,2.8183,2.7787,0.0,0.0,0.0,0.0,0.0,0.0,0.0,0.0,0.0,0.0,0.0,0.0,0.0,0.0,0.0,0.0,0.0,0.0,0.0,0.0,0.0,0.0,0.0,0.0,3.6574,3.7874,4.1104,4.1209,4.1165,4.178,4.2461,4.3214,4.3974,4.4721,4.5229,4.5361,4.6063,4.685,4.7636,4.7721,0.0,0.0,0.0,4.9025,4.8575,5.005,5.0802,5.0832,5.1459,5.1817,5.1907,5.1817,5.1835,5.1858,5.1987,5.2005,5.1858,5.1858,5.1808,5.1597,5.0455,4.9991,4.9946,4.951,4.8743,4.8019,0.0,0.0,0.0,0.0,0.0,0.0,0.0,0.0,0.0,1.7993,1.9762,2.1514,2.3343,2.4323,2.4964,2.5353,2.4963,2.4893,0.0,0.0,2.8502,3.0974,3.2018,3.3123,3.4478,3.4624,3.5127,3.5938,3.6069,3.6707,3.7825,3.7551,3.752,3.7593,3.6958,3.6522,3.6138,3.5819,3.5406,3.492,3.4736,3.3824,3.2547,3.1766,3.1351,3.1117,3.07,3.0735,3.0916,3.018,3.01,3.0002,2.8624,2.7881,0.0,0.0,0.0,0.0,0.0,0.0,0.0,0.0,0.0,0.0,0.0,0.0,0.0,0.0,0.0,0.0,0.0,0.0,0.0,3.6688,3.893,4.0762,4.1366,4.2306,4.3057,4.3243,4.4073,4.4664,4.4852,4.6133,4.6941,4.6941,4.7696,4.8187,4.8293,4.8412,4.8597,4.8893,4.9575,5.0012,5.0259,5.0945,5.1426,5.1674,0.0,0.0,5.1889,5.1359,5.1316,5.174,5.174,5.174,5.174,5.174,5.174,5.1672,5.145,5.1325,5.1307,5.1115,5.1003,5.097,0.0,0.0,0.0,0.0,0.0,0.0,0.0,0.0,0.0,0.0,1.9657,2.1062,2.2478,2.3453,2.3985,2.3911,2.3629,0.0,0.0,2.7348,2.9154,3.1959,3.2723,3.3587,3.4534,3.4869,3.5336,3.5836,3.6489,3.7201,3.7886,3.7959,3.8106,3.815,3.7662,3.7352,3.7293,3.6645,3.6271,3.5946,3.5539,3.4912,3.4046,3.3365,3.2898,3.2541,3.2167,3.1992,3.1882,3.1241,3.0787,3.0398,2.9642,2.893,2.7961,0.0,0.0,0.0,0.0,0.0,0.0,0.0,0.0,0.0,0.0,0.0,0.0,0.0,0.0,3.2848,3.4623,0.0,3.714,3.8828,4.0368,4.1799,4.2922,4.3724,4.4261,4.4406,4.4756,4.5348,4.6168,4.6941,4.7448,4.7597,4.8168,4.859,4.8675,4.8993,4.9358,4.9661,5.0307,5.0622,5.0725,5.1315,5.1658,5.179,5.1477,5.1495,5.179,5.1446,5.1433,5.169,5.169,5.169,5.1726,5.2118,5.2347,5.2434,5.2707,5.2386,5.169,5.1589,5.169,5.1736,0.0,0.0,0.0,0.0,0.0,0.0,0.0,0.0,0.0,0.0,0.0,2.035,2.1303,2.2239,2.267,0.0,0.0,0.0,0.0,2.7787,2.9554,3.2543,3.3173,3.3761,3.4399,3.4907,3.5299,3.5546,3.6519,3.723,3.7697,3.8208,3.8575,3.8694,3.8266,3.8251,3.8604,3.7571,3.705,3.6936,3.6251,3.5726,3.5219,3.4669,3.4185,3.3666,3.3364,3.2852,3.2226,3.1682,3.0789,2.9899,2.9906,2.925,2.8218,2.6977,2.674,0.0,0.0,0.0,0.0,0.0,0.0,0.0,0.0,2.9242,3.067,3.1073,3.2468,3.4146,3.5915,3.6888,3.8318,4.0972,4.1499,4.2345,4.4362,4.4878,4.5082,4.5211,4.5334,4.5912,4.7274,4.7661,4.7937,4.8155,4.8641,4.9029,4.9303,4.9679,5.0083,5.0462,5.0875,5.0997,5.086,5.1387,5.164,5.169,5.1808,5.1808,5.169,5.169,5.169,5.169,5.169,5.169,5.1762,5.2547,5.2988,5.3128,5.3776,5.326,5.2154,5.2154,5.2136,5.2205,0.0,0.0,0.0,0.0,0.0,0.0,0.0,0.0,0.0,0.0,0.0,0.0,0.0,0.0,0.0,0.0,0.0,0.0,2.6219,2.7536,2.9513,3.2367,3.2992,3.3628,3.4399,3.4268,3.4776,3.5899,3.6043,3.6705,3.7904,3.8113,3.8366,3.8516,3.8649,3.8486,3.8157,3.8009,3.7436,3.6582,3.644,3.6022,3.5489,3.5499,3.5048,3.4277,3.4121,3.3464,3.2563,3.1949,3.1495,3.0987,3.0078,2.9797,2.9344,2.7102,2.6668,2.6741,2.5576,2.6404,2.781,2.8596,2.8887,2.9313,0.0,3.1888,3.2827,3.3691,3.5645,3.7492,3.8355,3.919,4.0242,4.1804,4.2635,4.3398,4.4401,4.5112,4.5545,4.5699,4.6562,4.7204,4.738,4.8626,4.9486,4.9486,5.0171,5.0627,5.0681,5.0697,5.0858,5.1035,5.107,5.1211,5.1432,5.1349,5.1436,5.169,5.1607,5.1607,5.169,5.169,5.169,5.169,5.169,5.169,5.1762,5.2547,5.2937,5.3008,5.3724,5.3903,5.376,5.376,5.3812,5.3897,0.0,0.0,0.0,0.0,0.0,0.0,0.0,0.0,0.0,0.0,0.0,0.0,0.0,0.0,0.0,0.0,0.0,0.0,2.5538,2.755,2.9739,3.2396,3.3221,3.3801,3.4196,3.4557,3.4934,3.5467,3.5984,3.6505,3.7128,3.7259,3.7609,3.8193,3.8396,3.8527,3.8703,3.8775,3.8381,3.7554,3.718,3.6641,3.5983,3.5304,3.4633,3.4148,3.3951,3.3229,0.0,0.0,3.1144,3.0656,3.0211,2.9627,2.8878,2.7971,2.758,2.7437,2.7401,2.7887,2.8653,2.9598,3.0449,3.1346,3.2598,3.3882,3.5046,3.5928,3.7334,3.8547,3.9112,3.9934,4.1017,4.2457,4.337,4.4163,4.5026,4.5425,4.5667,4.577,4.6772,4.7573,4.7891,4.8626,4.9344,4.9871,5.0541,5.0734,5.0435,5.0735,5.0945,5.1123,5.1105,5.1211,5.1523,5.1454,5.1505,5.169,5.164,5.1658,5.169,5.169,5.169,5.169,5.169,5.174,5.1897,5.308,5.3598,5.3757,5.492,5.5401,5.5294,5.4367,5.4313,5.4759,0.0,0.0,0.0,0.0,0.0,0.0,0.0,0.0,0.0,0.0,0.0,0.0,0.0,0.0,0.0,0.0,0.0,0.0,0.0,2.746,2.9915,3.215,3.3327,3.3951,3.4128,3.4505,3.4905,3.5078,3.561,3.607,3.6458,3.6458,3.6879,3.7739,3.7925,3.832,3.875,3.8996,3.8575,3.7823,3.7345,3.6671,3.5818,3.4846,3.4017,3.3283,3.3218,3.2746,0.0,0.0,3.0386,2.9902,2.9681,2.8974,2.8239,2.8223,2.8029,2.7927,2.8565,2.9252,2.9981,3.0896,3.2313,3.3617,3.4287,3.5555,3.6778,3.737,3.8225,3.9021,3.9289,4.0134,4.1243,4.2671,4.346,4.4302,4.5321,4.5563,4.5718,4.577,4.6613,4.75,4.8207,4.8766,4.9378,5.0293,5.0664,5.0735,5.0311,5.0682,5.0945,5.1052,5.1052,5.1158,5.142,5.1402,5.1505,5.1658,5.169,5.169,5.169,5.169,5.169,5.1758,5.1758,5.1933,5.2355,5.3578,5.4187,5.4579,5.5919,5.6401,5.6258,5.5098,5.5045,5.5544,0.0,0.0,0.0,0.0,0.0,0.0,0.0,0.0,0.0,0.0,0.0,0.0,0.0,0.0,0.0,0.0,0.0,0.0,0.0,2.7225,2.961,3.1449,3.303,3.3951,3.4128,3.3965,3.4295,3.5121,3.491,3.5225,3.6,3.6,3.6505,3.7302,3.7507,3.7709,3.7853,3.8083,3.7496,3.6552,3.6522,3.5714,3.4532,3.4487,3.329,3.1614,3.2068,0.0,0.0,0.0,2.9187,2.896,2.8061,2.7786,2.7736,2.7361,2.7517,2.794,2.8448,3.0281,3.2169,3.2925,3.4667,3.6164,3.6229,3.6944,3.7677,3.7711,3.8495,3.9183,3.92,3.9941,4.0964,4.2467,4.286,4.358,4.5041,4.5546,4.5786,4.5786,4.6319,4.7082,4.8207,4.9258,5.0136,5.0839,5.0873,5.0873,5.0855,5.0873,5.0891,5.0891,5.0891,5.0998,5.1105,5.1246,5.135,5.1505,5.1658,5.169,5.169,5.169,5.1758,5.1907,5.1907,5.2355,5.3125,5.3895,5.4579,5.5259,5.6079,5.6401,5.6383,5.6347,5.6347,5.6347,0.0,0.0,0.0,0.0,0.0,0.0,0.0,0.0,0.0,0.0,0.0,0.0,0.0,0.0,0.0,0.0,1.8888,2.0654,0.0,2.5855,2.7852,2.9812,3.0953,3.1873,3.2483,3.2673,3.3192,3.3946,3.4326,3.4712,3.5121,3.5244,3.5732,3.6571,3.664,3.7001,3.7526,3.761,3.7425,3.703,3.6178,3.5884,3.5789,3.3952,3.2915,3.2322,0.0,0.0,0.0,0.0,2.9672,2.9173,2.8829,2.8115,2.741,2.7514,2.8763,3.0247,3.0757,3.2277,3.3953,3.5036,3.6306,3.7379,3.7866,3.8333,3.8817,3.9192,3.9695,4.0012,3.9815,4.0559,4.1527,4.2432,4.3202,4.4061,4.5039,4.5389,4.5754,4.6361,4.6774,4.754,4.8977,4.8814,4.9021,5.0013,5.0207,5.0259,5.0259,5.0753,5.0998,5.0891,5.1088,5.1141,5.1105,5.1246,5.135,5.1505,5.1658,5.169,5.169,5.169,5.174,5.1907,5.1907,5.2099,5.2556,5.3731,5.4309,5.465,5.5937,5.6401,5.6401,5.6401,5.6401,5.6401,0.0,0.0,0.0,0.0,0.0,0.0,0.0,0.0,0.0,0.0,0.0,0.0,0.0,0.0,0.0,0.0,0.0,2.0076,2.255,0.0,2.6117,2.8007,2.8869,2.9739,3.0615,3.1087,3.1594,3.2174,3.278,3.336,3.3774,3.3839,3.4425,3.5481,3.5466,3.577,3.6357,3.6424,3.6505,3.6466,3.5383,3.513,3.5226,3.3185,3.2091,0.0,0.0,0.0,0.0,0.0,2.9502,2.9085,2.8876,2.8312,2.7769,2.8353,2.9762,3.1381,3.2538,3.394,3.5325,3.6637,3.7586,3.8287,3.8755,3.9076,3.9295,3.9446,3.9698,3.9848,3.9681,4.0221,4.1052,4.2329,4.3133,4.3991,4.5039,4.5406,4.584,4.6795,4.7142,4.7891,4.9309,4.8794,4.8806,5.003,4.9978,5.0012,5.0259,5.077,5.0998,5.0891,5.1088,5.1141,5.1052,5.1193,5.135,5.1505,5.1607,5.164,5.169,5.169,5.174,5.1907,5.1907,5.2117,5.2525,5.3749,5.4327,5.4668,5.5937,5.6401,5.6401,5.6401,5.6401,5.6401,0.0,0.0,0.0,0.0,0.0,0.0,0.0,0.0,0.0,0.0,0.0,0.0,0.0,0.0,0.0,0.0,0.0,0.0,2.0944,0.0,0.0,2.5963,2.6779,2.7657,2.8531,2.9144,2.9551,2.9866,3.0382,3.1145,3.2049,3.1944,3.2608,3.3932,3.3995,3.4137,3.4307,3.4463,3.465,3.482,3.4061,3.3497,3.305,3.2148,0.0,0.0,0.0,0.0,2.8676,2.8916,2.8916,2.8741,2.8401,2.8434,2.8848,2.9787,3.0538,3.15,3.3778,3.5235,3.6406,3.7741,3.8546,3.9023,3.9023,3.9115,3.9076,3.8535,3.8572,3.8756,3.8772,3.8905,3.9748,4.2073,4.2671,4.3356,4.4971,4.5529,4.6099,4.6986,4.7399,4.8098,4.9344,4.9185,4.9482,5.0768,5.0242,5.0189,5.0785,5.0873,5.0891,5.0873,5.1052,5.107,5.0943,5.1247,5.1457,5.1578,5.1594,5.161,5.1762,5.1708,5.174,5.1907,5.1907,5.2373,5.3161,5.3913,5.4579,5.5294,5.6079,5.6401,5.6401,5.6401,5.6401,5.6401,0.0,0.0,0.0,0.0,0.0,0.0,0.0,0.0,0.0,0.0,0.0,0.0,0.0,0.0,0.0,0.0,0.0,0.0,2.0162,0.0,0.0,0.0,0.0,0.0,0.0,0.0,0.0,2.7904,2.9053,2.9799,3.0201,3.0368,3.0915,3.1712,3.1868,3.2197,3.2667,3.2725,3.2856,3.2924,0.0,3.2201,3.2607,0.0,0.0,0.0,0.0,2.8838,2.7849,2.9779,3.0316,3.0122,2.9317,2.9856,3.0808,3.1282,3.255,3.4051,3.5338,3.6605,3.7763,3.8705,3.9053,3.9169,3.9309,3.9016,3.867,3.869,3.832,3.8014,3.8173,3.8696,3.9744,4.1512,4.2433,4.3494,4.5129,4.5494,4.6222,4.7753,4.8067,4.8732,5.0363,5.0013,5.0012,5.082,5.0224,4.9855,5.0136,5.0576,5.0766,5.0657,5.107,5.1423,5.1733,5.2461,5.287,5.2925,5.252,5.2323,5.2357,5.1889,5.174,5.1907,5.1907,5.2404,5.3311,5.3964,5.4631,5.5436,5.6134,5.6401,5.6401,5.6401,5.6401,5.6401,0.0,0.0,0.0,0.0,0.0,0.0,0.0,0.0,0.0,0.0,0.0,0.0,0.0,0.0,0.0,0.0,0.0,0.0,0.0,0.0,0.0,0.0,0.0,0.0,0.0,0.0,0.0,0.0,0.0,0.0,2.7659,2.7807,2.8358,2.9373,2.9358,2.9791,3.0523,3.0523,0.0,0.0,0.0,0.0,0.0,0.0,0.0,0.0,2.8833,2.8649,2.8657,2.9951,3.0764,3.1149,3.0551,3.1087,3.2055,3.2907,3.3876,3.5036,3.6622,3.7549,3.8239,3.8966,3.8846,3.8533,3.8342,3.7996,3.7618,3.7185,3.7114,3.7222,3.7377,3.8133,3.935,4.1355,4.2465,4.3751,4.5753,4.5823,4.6343,4.8015,4.8312,4.896,5.0241,5.0383,5.0612,5.1052,5.0207,4.9872,5.0312,5.0592,5.0694,5.0585,5.1017,5.1511,5.2107,5.2898,5.3165,5.2868,5.2572,5.2342,5.2109,5.1752,5.1708,5.1808,0.0,5.2305,5.3193,5.3862,5.4597,5.5383,5.6134,5.6401,5.6401,5.6401,5.6401,5.6401,0.0,0.0,0.0,0.0,0.0,0.0,0.0,0.0,0.0,0.0,0.0,0.0,0.0,0.0,0.0,0.0,0.0,0.0,0.0,0.0,0.0,0.0,0.0,0.0,0.0,0.0,0.0,0.0,0.0,0.0,0.0,0.0,0.0,0.0,0.0,0.0,0.0,0.0,0.0,0.0,0.0,0.0,0.0,0.0,0.0,0.0,2.717,2.829,2.9651,2.9592,3.064,3.1957,3.1928,3.2319,3.3086,3.4477,3.4873,3.5399,3.7529,3.8088,3.8266,3.8875,3.8389,3.7576,3.6908,3.6648,3.6257,3.5079,3.5496,3.6177,3.6446,3.733,3.8845,4.1297,4.2595,4.411,4.6499,4.6256,4.6395,4.7962,4.8435,4.8906,4.9662,5.0523,5.1105,5.1246,5.0348,5.01,5.0838,5.0675,5.0585,5.0657,5.1015,5.151,5.2144,5.2825,5.2878,5.2357,5.2251,5.2024,5.1614,5.1558,5.1556,5.169,5.169,5.2154,5.299,5.3706,5.4491,5.5277,5.6079,5.6401,5.6401,5.6401,5.6401,5.6401,0.0,0.0,0.0,0.0,0.0,0.0,0.0,0.0,0.0,0.0,1.5579,1.6193,0.0,0.0,0.0,0.0,0.0,0.0,0.0,0.0,0.0,0.0,0.0,0.0,1.9135,2.0091,2.0758,2.1174,2.214,0.0,0.0,0.0,0.0,0.0,0.0,0.0,0.0,0.0,0.0,0.0,0.0,0.0,0.0,0.0,0.0,0.0,2.4894,2.595,2.7623,2.8629,3.0734,3.2998,3.3316,3.4147,3.5136,3.563,3.647,3.7351,3.7992,3.8414,3.8712,3.8936,3.8248,3.7437,3.6943,3.5893,3.4871,3.4492,3.4145,3.421,3.5147,3.6543,3.8377,4.0839,4.2458,4.4324,4.6811,4.6461,4.6599,4.8224,4.8504,4.8924,4.9766,5.0523,5.0998,5.1105,5.0733,5.0572,5.082,5.0564,5.0582,5.0819,5.1377,5.1763,5.1997,5.2656,5.2971,5.3018,5.2461,5.2199,5.2219,5.1738,5.1556,5.169,5.169,0.0,5.311,5.3758,5.4544,5.5436,5.6134,5.6401,5.6401,5.6401,5.6401,5.6401,0.0,0.0,0.0,0.0,0.0,0.0,0.0,1.3803,1.4254,1.5227,1.5787,1.6167,1.6321,1.6212,1.6238,0.0,0.0,0.0,0.0,0.0,0.0,0.0,0.0,0.0,0.0,1.8852,1.9392,1.9667,0.0,2.0499,2.0534,2.0732,2.1178,2.1893,2.2314,2.2872,2.3574,0.0,0.0,0.0,0.0,0.0,0.0,0.0,0.0,0.0,0.0,2.5409,2.7131,2.8431,3.07,3.2992,3.3623,3.4504,3.553,3.634,3.6967,3.7642,3.8579,3.8937,3.9094,3.9148,3.8093,3.6888,3.6059,3.5018,3.4005,3.3319,3.333,3.3794,3.4819,3.601,3.7672,4.0089,4.1545,4.3515,4.6739,4.623,4.6262,4.8328,4.8625,4.9027,4.9818,5.0929,5.1615,5.1687,5.138,5.1094,5.0873,5.0564,5.0471,5.0637,5.122,5.166,5.2014,5.2599,5.2831,5.2652,5.2283,5.1968,5.1741,5.1528,5.1454,5.1625,5.1999,5.264,5.3494,5.4225,5.5008,5.5865,5.624,5.6401,5.6401,5.6401,5.6401,5.6401,0.0,0.0,0.0,0.0,0.0,0.0,0.0,1.3824,1.4367,1.5694,1.5974,1.6063,1.6007,1.5941,1.6089,0.0,0.0,0.0,0.0,0.0,0.0,0.0,0.0,0.0,0.0,0.0,0.0,1.859,1.8724,0.0,0.0,0.0,0.0,0.0,2.0536,2.1116,2.173,2.2408,0.0,0.0,0.0,2.2964,0.0,0.0,0.0,0.0,0.0,2.5017,2.6638,2.8081,3.002,3.2049,3.3105,3.4439,3.5819,3.6887,3.7402,3.7866,3.9082,3.9362,3.9239,3.9073,3.7738,3.6171,3.4998,3.4018,3.3112,3.2143,3.2591,3.3441,3.438,3.5397,3.6903,3.9292,4.0819,4.301,4.672,4.6154,4.6253,4.8607,4.8764,4.9131,5.0117,5.1405,5.2161,5.2198,5.1783,5.1322,5.0799,5.0582,5.0397,5.0415,5.0858,5.1285,5.1696,5.2179,5.2292,5.1969,5.1878,5.1561,5.1158,5.1193,5.1439,5.1807,5.2306,5.3016,5.3887,5.4686,5.538,5.6004,5.6274,5.6401,5.6401,5.6401,5.6401,5.6401,0.0,0.0,0.0,0.0,0.0,0.0,0.0,1.3881,1.4357,1.5655,1.5863,1.6128,1.6655,1.6793,1.6825,0.0,0.0,0.0,0.0,0.0,0.0,0.0,0.0,0.0,0.0,0.0,0.0,1.859,1.8724,0.0,0.0,0.0,0.0,0.0,0.0,1.9651,1.9705,2.0504,0.0,0.0,0.0,0.0,0.0,0.0,0.0,0.0,0.0,2.3444,2.504,2.6587,2.8186,2.9822,3.1725,3.465,3.7364,3.7434,3.8337,3.9318,3.9451,3.9379,3.9123,3.8477,3.6981,3.5449,3.4405,3.3017,3.1809,3.1618,3.1692,3.2063,3.2934,3.4397,3.6266,3.8703,4.1103,4.3763,4.6958,4.6741,4.7156,4.9519,4.9063,4.9204,5.0981,5.1686,5.2052,5.2198,5.1257,5.0617,5.0471,5.0547,5.0547,5.0397,5.0467,5.0558,5.0762,5.0869,5.1068,5.1211,5.1211,5.1229,5.1298,5.1158,5.1653,5.2589,5.2467,5.3034,0.0,5.4741,5.5114,5.5401,5.6115,5.6401,5.6401,5.6401,5.6401,5.6401,0.0,0.0,0.0,0.0,0.0,0.0,1.4272,1.4412,1.4883,1.6271,1.6381,1.6451,1.6831,1.6495,1.6374,1.6789,0.0,0.0,0.0,0.0,0.0,0.0,0.0,0.0,0.0,0.0,1.7235,1.7645,1.77,0.0,0.0,0.0,0.0,0.0,0.0,1.8939,1.9024,1.9744,0.0,0.0,0.0,0.0,0.0,0.0,0.0,0.0,0.0,0.0,2.4876,2.5839,2.7605,2.9591,3.0687,3.3046,3.5586,3.676,3.7683,3.8488,3.946,3.9537,3.9106,3.8272,3.683,3.535,3.4351,3.2474,3.1107,3.1457,3.1199,3.1288,3.2641,3.3861,3.5469,3.7835,3.9565,4.1655,4.4756,4.501,4.5774,4.8232,4.8484,4.9363,5.1599,5.2371,5.2772,5.281,5.1868,5.1263,5.1076,5.0697,5.068,5.1111,5.0658,5.0509,5.0694,5.0694,5.0838,5.1105,5.0998,5.1227,5.1721,5.1775,5.2252,5.3138,5.3598,5.3868,0.0,5.5202,5.5488,5.5186,5.6025,5.6346,5.629,5.6401,5.6401,5.6401,0.0,0.0,0.0,0.0,0.0,1.3167,1.4577,1.4565,1.4904,1.6292,1.64,1.64,1.6483,1.6086,1.5975,1.6486,1.6326,0.0,0.0,0.0,0.0,0.0,0.0,0.0,0.0,0.0,1.6492,1.6676,1.691,1.7074,0.0,0.0,1.7386,1.7448,0.0,0.0,0.0,0.0,0.0,0.0,0.0,0.0,0.0,0.0,0.0,0.0,0.0,0.0,0.0,0.0,0.0,2.8645,2.9488,3.1219,3.3379,3.5562,3.6865,3.7868,3.9211,3.9343,3.8916,3.8098,3.6539,3.4998,3.4192,3.232,3.0958,3.1579,3.1278,3.1244,3.2406,3.3502,3.4931,3.7071,3.8579,4.0604,4.3722,4.4495,4.5505,4.7717,4.85,4.9662,5.1687,5.2476,5.2839,5.2726,5.2162,5.1878,5.1991,5.1429,5.1233,5.1506,5.0815,5.0547,5.0749,5.0766,5.0855,5.1105,5.0998,5.1226,5.1735,5.2019,5.2516,5.3207,5.425,5.4398,0.0,5.5522,5.5662,5.5095,5.6025,5.629,5.6197,5.629,5.6346,5.6383,0.0,0.0,0.0,0.0,0.0,0.0,1.4577,1.4165,1.4142,1.5355,1.5685,1.5743,1.5553,1.5807,1.5927,1.5734,1.5105,0.0,0.0,0.0,0.0,0.0,0.0,0.0,0.0,0.0,1.5903,1.5903,1.6702,1.7149,1.7215,1.7265,1.7377,1.7509,0.0,0.0,0.0,0.0,0.0,0.0,0.0,0.0,0.0,0.0,0.0,0.0,0.0,0.0,0.0,0.0,0.0,0.0,0.0,2.9438,3.1173,3.3994,3.6231,3.7942,3.8734,3.8789,3.8538,3.7881,3.5996,3.4216,3.3809,3.2559,3.1579,3.1821,3.1984,3.2073,3.1948,3.3251,3.4892,3.6464,3.8835,4.1604,4.4847,4.6018,4.7139,4.8696,4.9344,5.0048,5.1035,5.1648,5.192,5.1638,5.1734,5.2179,5.312,5.2967,5.237,5.1332,5.0819,5.0585,5.0585,5.0909,5.1123,5.1105,5.1105,5.1123,5.1141,5.1735,5.2216,5.2661,5.3799,5.4234,0.0,5.5431,5.5532,5.5095,5.6025,5.629,5.6197,5.6197,5.629,5.6401,0.0,0.0,0.0,0.0,0.0,0.0,0.0,1.4106,1.4234,1.6146,1.5583,1.5193,1.5727,1.5011,1.446,1.4417,1.468,0.0,0.0,0.0,0.0,0.0,0.0,0.0,0.0,0.0,1.5911,1.5974,1.6776,1.7174,1.7199,1.7321,1.7408,1.7509,1.7664,1.7794,0.0,0.0,0.0,0.0,0.0,0.0,0.0,0.0,0.0,0.0,0.0,0.0,0.0,0.0,0.0,0.0,0.0,0.0,0.0,3.1718,3.4196,3.6576,3.7398,3.7479,3.7168,3.6392,3.4863,3.3262,3.2241,3.1283,3.0697,3.1061,3.1185,3.1376,3.1933,3.3343,3.4913,3.6509,3.8877,4.1235,4.3349,4.5375,4.6979,4.8024,4.9995,5.152,5.2236,5.176,5.1755,5.2656,5.2329,5.2299,5.2811,5.2829,5.2707,5.2577,5.192,5.1327,5.0819,5.0945,5.0945,5.0945,5.1472,5.1718,5.1753,5.2997,5.3633,5.3855,5.4838,5.4765,5.4047,5.5522,5.5397,5.4492,5.5865,5.629,5.6197,5.629,5.6346,5.6401,0.0,0.0,0.0,0.0,0.0,0.0,0.0,1.3701,1.3749,1.5415,1.4849,1.4489,1.5043,1.4374,1.3865,1.3824,1.4047,0.0,0.0,0.0,0.0,0.0,0.0,0.0,1.3983,1.4756,1.5279,1.5609,1.6386,1.6938,1.7199,1.7345,1.7432,1.7509,1.7664,1.7816,0.0,0.0,0.0,0.0,0.0,0.0,1.943,0.0,0.0,0.0,0.0,0.0,0.0,0.0,0.0,0.0,0.0,0.0,0.0,0.0,3.1849,3.4257,3.5891,3.6249,3.5997,3.5487,3.3998,3.2491,3.1615,3.072,3.0247,3.0734,3.089,3.1185,3.2004,3.3417,3.4864,3.6164,3.8397,4.0682,4.2661,4.4964,4.7015,4.8606,5.0189,5.1269,5.1564,5.1419,5.1384,5.1767,5.2112,5.2243,5.2178,5.2497,5.2689,5.2599,5.1868,5.1275,5.0801,5.0873,5.0891,5.0891,5.1663,5.2014,5.2067,5.3612,5.4196,5.4116,5.5132,5.4938,0.0,5.5411,5.5304,5.442,5.5792,5.6235,5.6123,5.629,5.6346,5.6401,0.0,0.0,0.0,0.0,0.0,0.0,0.0,1.3083,1.2888,1.3689,1.3762,1.3771,1.3824,1.3896,1.392,1.386,0.0,0.0,0.0,0.0,0.0,0.0,0.0,0.0,1.2794,1.3599,1.4295,1.4929,1.5792,1.6547,1.7199,1.7345,1.7432,1.7509,1.7704,1.7878,0.0,0.0,0.0,0.0,0.0,0.0,0.0,0.0,0.0,0.0,0.0,0.0,0.0,0.0,0.0,0.0,0.0,0.0,0.0,0.0,0.0,0.0,0.0,3.4841,3.4794,3.4794,3.3252,3.1719,3.1595,3.0751,0.0,3.0715,3.1077,3.1477,3.2197,3.3508,3.4784,3.5679,3.7726,4.0061,4.2546,4.4876,4.7313,5.0105,5.0045,4.9742,4.9666,5.0655,5.091,4.9795,5.1338,5.2025,5.1349,5.2149,5.2277,5.1546,5.0931,5.0585,5.0585,5.0801,5.0891,5.0908,5.1716,5.2011,5.2011,5.3607,5.4077,0.0,5.4904,5.4864,5.4118,5.5189,5.5252,5.4821,5.5804,5.6049,5.5918,5.6123,5.629,5.6401,0.0,0.0,0.0,0.0,0.0,0.0,0.0,0.0,0.0,0.0,1.3854,1.3472,1.4038,1.3679,1.3368,0.0,0.0,0.0,0.0,0.0,0.0,0.0,0.0,0.0,1.2887,1.4249,1.5048,1.5209,1.6482,1.7166,1.7273,1.7353,1.7432,1.7509,1.7704,1.79,0.0,0.0,0.0,0.0,0.0,0.0,0.0,0.0,0.0,0.0,2.0976,2.1591,0.0,0.0,0.0,0.0,0.0,0.0,0.0,0.0,2.9502,0.0,3.1113,0.0,3.1841,3.1985,3.1168,3.0108,0.0,3.0089,3.066,3.0157,3.1164,3.2387,3.3178,3.3984,3.5016,3.6653,3.876,4.0612,4.1903,4.5,4.8029,5.0414,5.0462,5.0376,5.0811,5.0341,5.0437,5.1622,5.1382,5.1252,5.1541,5.1662,5.1459,5.0711,5.0558,5.0509,5.0585,5.0801,5.0891,5.0908,5.2131,5.2407,5.1878,5.3934,5.4416,5.376,5.4361,5.4442,5.4278,5.4797,5.4906,5.4874,5.5692,5.6049,5.6123,5.6197,5.629,5.6401,0.0,0.0,0.0,0.0,0.0,0.0,0.0,0.0,0.0,0.0,0.0,1.3251,1.3685,1.3386,0.0,0.0,0.0,0.0,0.0,0.0,0.0,0.0,0.0,1.3138,1.2979,1.4175,1.4961,1.5292,1.6363,1.7073,1.7384,1.7432,1.7502,1.7595,1.7772,1.7944,0.0,0.0,0.0,0.0,1.8465,0.0,0.0,0.0,0.0,0.0,2.0323,2.1069,0.0,2.2521,2.3519,2.4476,0.0,0.0,0.0,0.0,2.8127,0.0,2.8868,2.9959,3.101,3.1095,3.0501,2.9737,2.9173,2.9582,3.0044,2.9859,3.0902,3.2229,3.3389,3.4107,3.5069,3.6784,3.8537,4.0595,4.3032,4.5802,4.8329,5.0192,5.0341,5.0402,5.0627,5.0393,5.0488,5.1055,5.0901,5.0789,5.083,5.0853,5.0818,5.0726,5.0766,5.0706,5.0453,5.0914,5.1161,5.1123,5.2602,5.3125,5.2794,5.4321,5.4765,5.4348,5.4279,5.4449,5.4647,5.4587,5.4715,5.4969,5.5396,5.5689,5.5897,5.6011,5.6179,5.629,0.0,0.0,0.0,0.0,0.0,0.0,0.0,0.0,0.0,0.0,0.0,0.0,0.0,0.0,0.0,0.0,0.0,0.0,0.0,0.0,0.0,0.0,1.3226,1.3242,1.3267,1.3899,1.4629,1.5479,1.6138,1.6872,1.7645,1.7745,1.7816,1.7855,1.7867,1.7966,0.0,0.0,1.8298,1.8406,1.8465,0.0,0.0,0.0,0.0,0.0,0.0,0.0,0.0,2.2117,2.3302,2.4437,2.4421,0.0,0.0,0.0,0.0,0.0,2.7467,2.9334,3.0981,3.0657,3.0167,2.9764,2.9553,2.9266,2.9218,2.9841,3.0814,3.1984,3.3424,3.4296,3.5325,3.6799,3.8338,4.074,4.4887,4.682,4.8311,4.9654,4.9988,5.0057,4.9866,5.041,5.0463,4.9693,5.024,5.0412,5.0073,5.023,5.0593,5.1252,5.1329,5.1077,5.042,5.1217,5.1587,5.1488,5.2969,5.3706,5.374,5.4504,5.4799,5.4704,0.0,0.0,5.4591,5.4227,5.436,5.4835,5.5104,5.5277,5.5507,5.5689,5.5936,5.6179,0.0,0.0,0.0,0.0,0.0,0.0,0.0,0.0,0.0,0.0,0.0,0.0,0.0,0.0,0.0,0.0,0.0,0.0,0.0,0.0,0.0,1.3379,1.3363,1.358,1.4034,1.4245,1.4981,1.6232,1.6895,1.7592,1.8268,1.8825,1.8923,1.8598,1.8013,1.79,1.819,1.8253,1.8339,1.8406,1.854,0.0,0.0,0.0,0.0,0.0,0.0,0.0,0.0,2.2117,2.2968,2.3756,2.4384,0.0,0.0,0.0,0.0,0.0,2.7727,2.9201,3.0128,2.8474,2.8512,2.8914,2.8674,2.9153,2.9876,3.0593,3.2004,3.3424,3.4428,3.5521,3.6661,3.7853,4.0035,4.2809,4.6239,4.7168,4.792,4.9174,4.9602,4.9708,4.9513,4.9513,4.9699,5.0226,4.9888,4.9984,5.0618,5.0814,5.1235,5.2028,5.1907,5.1733,5.149,5.1855,5.2166,5.2226,5.2881,5.3294,5.3418,5.396,5.3879,5.3352,0.0,5.2761,5.2882,5.3038,5.3498,5.4104,5.4791,5.5252,5.5507,5.5336,5.5555,5.5918,0.0,0.0,0.0,0.0,0.0,0.0,0.0,0.0,0.0,0.0,0.0,0.0,0.0,0.0,0.0,0.0,0.0,0.0,0.0,0.0,1.3428,1.383,1.3935,1.4122,1.4349,1.5482,1.6419,1.7104,1.8029,1.8732,1.9192,1.8676,1.8352,1.8168,1.7479,1.7574,1.8263,1.8322,1.8403,1.852,0.0,0.0,0.0,0.0,0.0,0.0,0.0,0.0,0.0,0.0,2.2991,2.3661,2.3973,0.0,0.0,0.0,0.0,0.0,2.704,2.8238,2.9124,2.8965,2.953,3.0059,2.9729,2.9989,3.0525,3.1236,3.2348,3.3654,3.531,3.618,3.745,3.9852,4.2161,4.4421,4.658,4.741,4.8162,4.9263,4.9803,4.9932,4.9505,4.9786,5.0039,5.0334,5.0168,5.0471,5.1329,5.1485,5.1785,5.2495,5.2118,5.2164,5.2632,5.2089,5.2056,5.2529,5.3237,5.3597,5.3661,5.3892,5.3699,5.3038,0.0,5.2399,5.2321,5.2184,5.2462,5.3082,5.3844,5.4261,5.4555,5.4999,5.5437,5.5804,0.0,0.0,0.0,0.0,0.0,0.0,0.0,0.0,0.0,0.0,0.0,0.0,0.0,0.0,0.0,0.0,0.0,0.0,0.0,1.3139,1.349,1.4148,1.4498,1.4824,1.5118,1.6542,1.7619,1.8343,1.9197,1.9932,2.0477,1.8568,1.7769,1.7899,1.7062,1.7192,1.8046,1.8336,1.8522,1.8637,0.0,0.0,0.0,0.0,0.0,0.0,0.0,0.0,0.0,0.0,0.0,0.0,0.0,0.0,0.0,2.4058,2.458,2.5173,2.6508,2.7564,2.8681,3.0057,3.0712,3.1036,3.1254,3.1321,3.1493,3.2199,3.3097,3.431,3.6008,3.7109,3.8747,4.1776,4.3938,4.5687,4.7012,4.7742,4.8548,4.9581,5.0028,5.0091,4.9807,5.0283,5.0561,5.0401,5.0561,5.1009,5.1867,5.1982,5.2277,5.2915,5.2499,5.2605,5.3213,5.2194,5.197,5.2629,5.3256,5.3557,5.3403,5.3574,5.3276,5.2478,5.2183,5.1916,5.1666,5.1471,5.1661,5.2088,5.2883,5.3237,5.3489,5.4538,5.4951,5.5022,0.0,0.0,0.0,0.0,0.0,0.0,0.0,0.0,0.0,0.0,0.0,0.0,0.0,0.0,0.0,0.0,0.0,0.0,0.0,1.3136,1.3469,1.4073,1.4831,1.5801,1.6979,1.6719,1.7773,2.0221,2.0306,2.1024,2.2247,1.926,1.8153,1.8559,1.7294,1.6877,1.724,1.8185,1.8619,1.8697,1.8843,0.0,0.0,0.0,0.0,0.0,0.0,0.0,0.0,0.0,0.0,0.0,0.0,0.0,2.2618,0.0,2.4629,2.5975,2.6764,2.7992,2.9402,3.0928,3.0662,3.0554,3.2649,3.2936,3.2993,3.3848,3.5283,3.6342,3.6468,3.8912,4.1462,4.3165,4.4869,4.6493,4.8087,4.8382,4.8921,5.0085,4.9877,4.9921,5.0558,5.0676,5.0709,5.0693,5.0693,5.1094,5.205,5.2084,5.2505,5.3399,5.3432,5.3027,5.2384,5.2283,5.2332,5.2612,5.2516,5.216,5.1724,5.2374,5.1962,5.0769,5.0866,5.0651,5.0218,5.0838,5.1232,5.1453,5.225,5.2562,5.2708,5.3753,5.3655,5.3032,0.0,0.0,0.0,0.0,0.0,0.0,0.0,0.0,0.0,0.0,0.0,0.0,0.0,0.0,0.0,0.0,0.0,0.0,0.0,1.303,1.3361,1.4012,1.4841,1.5874,1.7117,1.7905,1.9219,2.1073,2.1073,2.0803,2.0279,1.8502,1.7716,1.7797,1.7074,1.7161,1.787,1.8397,1.8675,1.8769,1.8806,1.8842,0.0,0.0,0.0,0.0,0.0,0.0,0.0,0.0,2.1842,2.2253,0.0,0.0,0.0,0.0,2.4284,2.5325,2.6154,2.7469,2.9198,3.1765,3.1901,3.1775,3.3018,3.3821,3.4502,3.5118,3.6131,3.7254,3.8688,4.0549,4.2552,4.4507,4.5669,4.6777,4.8236,4.8892,4.9167,4.9157,5.0238,5.0643,4.9925,5.076,5.138,5.138,5.1464,5.2001,5.291,5.2471,5.2403,5.2739,5.2024,5.1617,5.1623,5.0773,5.06,5.1074,5.1403,5.1488,5.1363,5.1715,5.1401,5.0615,5.0763,5.0471,5.0028,5.0304,5.0483,5.0535,5.1294,5.1881,5.239,5.2907,5.2956,5.2747,0.0,0.0,0.0,0.0,0.0,0.0,0.0,0.0,0.0,0.0,0.0,0.0,0.0,0.0,0.0,0.0,0.0,0.0,1.2901,1.2922,1.3366,1.4316,1.487,1.5879,1.7418,1.8654,2.0085,2.1712,2.1843,2.115,1.9615,1.8247,1.7675,1.7706,1.7249,1.7496,1.8263,1.861,1.8753,1.8733,1.8788,1.8806,0.0,0.0,0.0,0.0,0.0,0.0,0.0,0.0,2.1352,0.0,0.0,0.0,0.0,0.0,0.0,2.5229,2.6157,2.7245,2.8923,3.2174,3.2654,3.2739,3.4141,3.5156,3.5959,3.6566,3.7217,3.8197,3.9881,4.1527,4.3263,4.5175,4.6169,4.725,4.8617,4.9005,4.9107,4.9122,5.0393,5.0943,5.0025,5.121,5.2013,5.2081,5.2167,5.2505,5.2994,5.2555,5.2149,5.1961,5.1125,5.0735,5.0862,4.9972,4.9599,4.9746,5.0396,5.0587,5.0524,5.1031,5.085,5.0256,5.048,5.0324,5.0011,5.0011,4.9993,5.012,5.098,5.1447,5.1706,5.2143,5.219,5.2074,0.0,0.0,0.0,0.0,0.0,0.0,0.0,0.0,0.0,0.0,0.0,0.0,0.0,0.0,0.0,0.0,0.0,0.0,1.2901,1.2829,1.3482,1.5021,1.4897,1.5854,1.8134,1.872,2.0029,2.2163,2.2604,2.2153,2.0943,1.886,1.8186,1.8659,1.7937,1.78,1.8164,1.8829,1.8909,1.8604,1.8751,1.8842,1.8914,0.0,0.0,0.0,0.0,0.0,0.0,0.0,1.9873,0.0,0.0,0.0,0.0,2.3075,2.4551,2.5938,2.7022,2.754,2.8617,3.2028,3.2621,3.3125,3.6229,3.7032,3.7342,3.8231,3.8845,3.9323,3.9749,4.1808,4.3816,4.4984,4.6347,4.7864,4.9371,4.8662,4.8597,5.0226,5.0239,5.0502,5.1197,5.1926,5.2428,5.2553,5.2607,5.2447,5.2135,5.2085,5.1798,5.1234,5.12,5.0828,5.0084,5.0084,4.9712,4.9001,4.9367,4.9307,4.9035,5.0073,5.0205,4.9547,4.9877,5.0011,5.0011,5.0011,5.0109,5.0315,5.1364,5.1189,5.0502,5.1437,5.1266,5.0707,0.0,0.0,0.0,0.0,0.0,0.0,0.0,0.0,0.0,0.0,0.0,0.0,0.0,0.0,0.0,0.0,0.0,0.0,1.2829,1.2864,1.3309,1.4284,1.4675,1.547,1.6782,1.8189,1.9503,2.0654,2.1327,2.0734,1.8929,1.8084,1.7747,1.7859,1.8265,1.8353,1.8281,1.8957,1.8986,1.8657,1.93,1.9212,1.8768,0.0,0.0,0.0,0.0,0.0,0.0,0.0,0.0,0.0,0.0,0.0,0.0,2.3517,2.4605,2.6022,2.6851,2.7977,2.9656,3.269,3.4058,3.5252,3.76,3.7954,3.8138,3.9206,3.9919,4.0505,4.1121,4.2757,4.4404,4.5419,4.6495,4.7445,4.8379,4.8647,4.8746,4.8713,4.9574,5.0303,5.0518,5.0717,5.1187,5.1946,5.158,5.133,5.1442,5.1,5.0595,5.0422,4.9932,4.956,4.9323,4.9323,4.9221,4.9001,4.9124,4.9124,4.9018,4.9649,4.9812,4.9488,4.9725,4.986,5.0011,5.0011,4.9993,5.0126,5.0506,5.0493,5.032,5.0753,5.0794,5.062,0.0,0.0,0.0,0.0,0.0,0.0,0.0,0.0,0.0,0.0,1.2735,1.2735,0.0,0.0,0.0,0.0,0.0,0.0,0.0,1.2848,1.3342,1.4419,1.4702,1.5436,1.6749,1.8159,1.8949,1.9167,2.0157,1.9769,1.8049,1.8268,1.8402,1.8484,1.9235,1.9335,1.8989,1.932,1.9068,1.8485,1.9037,1.8988,1.8657,0.0,0.0,0.0,0.0,0.0,0.0,0.0,0.0,0.0,2.1331,2.2488,2.3764,2.3643,2.4605,2.6037,2.7594,2.8592,3.0095,3.3687,3.4789,3.5619,3.802,3.9007,3.9576,4.005,4.0715,4.1498,4.2389,4.358,4.4866,4.6043,4.6905,4.7716,4.8332,4.858,4.8614,4.8465,4.9226,4.9773,4.9773,5.0038,5.0506,5.1178,5.0894,5.0725,5.0683,5.0291,4.9965,4.9661,4.9238,4.9001,4.9001,4.9001,4.9001,4.9001,4.9124,4.9124,4.9001,4.935,4.9471,4.9488,4.9725,4.986,5.0011,5.0011,5.0011,5.0011,5.0206,5.0302,5.0302,5.062,5.0729,5.0747,0.0,0.0,0.0,0.0,0.0,0.0,0.0,0.0,0.0,0.0,1.2655,1.2636,0.0,0.0,0.0,0.0,0.0,0.0,0.0,1.2832,1.3518,1.5117,1.4992,1.5693,1.7443,1.8247,1.8362,1.7791,1.9124,1.9135,1.7979,1.8968,1.9578,1.9906,2.0462,2.0444,1.9985,1.9814,1.9154,1.8208,1.8377,1.85,1.8603,1.8749,0.0,0.0,0.0,0.0,0.0,0.0,0.0,0.0,2.1312,2.2044,2.283,2.3563,2.4599,2.602,2.8647,2.9247,3.0198,3.4708,3.5266,3.5359,3.8036,4.0136,4.1338,4.0742,4.141,4.2395,4.338,4.4307,4.5317,4.6676,4.752,4.8233,4.8912,4.8431,4.8249,4.8928,4.9011,4.9028,4.9094,4.9657,5.009,5.0309,5.041,5.029,4.983,4.989,4.9695,4.9018,4.9001,4.9001,4.9063,4.9001,4.9001,4.9063,4.9367,4.9307,4.9001,4.9168,4.935,4.9547,4.9877,5.0011,5.0011,5.0011,5.0011,5.0011,5.0302,5.0415,5.0471,5.0764,5.0873,5.0891,0.0,0.0,0.0,0.0,0.0,0.0,0.0,0.0,0.0,0.0,0.0,0.0,0.0,0.0,0.0,0.0,0.0,0.0,0.0,1.2901,1.3518,1.4968,1.5863,1.6412,1.6573,1.7013,1.7173,1.7055,1.8631,1.8752,1.7552,1.846,1.9116,1.9617,2.0417,2.0465,1.9926,2.0002,1.9337,1.8342,1.9032,1.9009,1.8614,1.9349,1.9304,0.0,0.0,0.0,0.0,0.0,0.0,0.0,2.2244,2.3167,2.4144,2.3692,2.47,2.6294,2.7832,2.9083,3.0818,3.453,3.7153,3.9183,4.022,4.156,4.2172,4.0724,4.2043,4.3515,4.3578,4.5197,4.6636,4.6841,4.752,4.8067,4.8216,4.81,4.8067,4.8216,4.8249,4.8465,4.9044,4.873,4.8763,4.9493,4.901,4.8838,4.9022,4.9068,4.9063,4.9001,4.9001,4.9124,4.9367,4.9124,4.9124,4.9367,4.9307,4.9229,4.9168,4.935,4.9488,4.9547,4.9877,5.0011,5.0011,5.0011,5.0011,5.0011,5.0206,5.0302,5.0397,5.062,5.0747,5.0891,0.0,0.0,0.0,0.0,0.0,0.0,0.0,0.0,0.0,0.0,0.0,0.0,0.0,0.0,0.0,0.0,0.0,0.0,0.0,0.0,1.3498,1.4837,1.603,1.6581,1.6463,1.6607,1.6763,1.6892,1.7857,1.8225,1.8001,1.8958,1.9661,2.0175,2.1177,2.0965,1.9866,2.0044,1.9576,1.8776,1.9274,1.9251,1.9076,1.9991,1.9916,1.9465,2.0351,0.0,0.0,0.0,0.0,0.0,0.0,0.0,2.4154,2.3764,2.4705,2.6183,2.7664,2.9554,3.1969,3.5624,3.8167,3.9983,4.0742,4.1691,4.2351,4.2222,4.329,4.4494,4.5069,4.6175,4.7135,4.7371,4.7752,4.8001,4.8001,4.8001,4.8001,4.8001,4.8001,4.815,4.8547,4.8233,4.8215,4.8646,4.8379,4.8356,4.8627,4.8769,4.8832,4.9001,4.9001,4.9063,4.9246,4.9063,4.9063,4.9246,4.9229,4.9229,4.935,4.953,4.9607,4.9607,4.9877,5.0011,5.0011,5.0011,5.0051,5.0092,5.0246,5.0397,5.0509,5.0675,5.0819,5.0945,0.0,0.0,0.0,0.0,0.0,0.0,0.0,0.0,0.0,0.0,0.0,0.0,0.0,0.0,0.0,0.0,0.0,0.0,0.0,0.0,0.0,1.4703,1.5769,1.6355,1.6397,1.6449,1.6562,1.6815,1.7036,1.771,1.8886,1.9771,2.054,2.1177,2.2166,2.172,2.0256,2.0353,1.9983,1.9379,1.9459,1.9554,1.9782,2.0517,2.0414,2.0063,2.1673,2.1821,2.1391,2.2262,0.0,0.0,0.0,0.0,2.3678,2.3728,2.4664,2.6011,2.7558,3.0254,3.345,3.6944,3.8798,3.9918,4.0788,4.1548,4.2545,4.4106,4.4637,4.5284,4.6643,4.7007,4.7289,4.7901,4.8001,4.8001,4.8001,4.8001,4.7935,4.8001,4.8001,4.7935,4.8001,4.8001,4.8066,4.8066,4.8179,4.8356,4.8547,4.8707,4.8832,4.9001,4.9001,4.9001,4.9063,4.9001,4.9063,4.9124,4.9229,4.9411,4.9607,4.9725,4.9708,4.9708,4.9935,5.0011,5.0011,4.9993,5.0092,5.0189,5.0359,5.0509,5.0585,5.0801,5.0873,5.0998,0.0,0.0,0.0,0.0,0.0,0.0,0.0,0.0,0.0,0.0,1.2738,1.2738,0.0,0.0,0.0,0.0,0.0,0.0,0.0,0.0,0.0,1.4505,1.5238,1.5603,1.5567,1.5779,1.5975,1.6127,1.6285,1.7594,1.9983,2.0067,2.0991,2.2539,2.2821,2.2649,2.2099,2.1661,2.0971,2.0161,2.0161,2.0263,2.0488,2.0723,2.035,1.985,2.0859,2.1173,2.1253,2.2075,2.2807,0.0,0.0,0.0,2.3539,2.3522,2.4682,2.6121,2.6872,3.0747,3.5086,3.7057,3.9458,4.1426,4.1538,4.2525,4.3787,4.543,4.569,4.5897,4.6742,4.7421,4.7885,4.7984,4.8001,4.8001,4.8001,4.7853,4.7787,4.8001,4.7853,4.7787,4.8001,4.8115,4.8163,4.8163,4.8356,4.8564,4.8769,4.8786,4.8832,4.9001,4.9001,4.9124,4.9428,4.9124,4.9168,4.959,4.9649,4.9725,4.9935,4.9935,4.986,4.9708,4.9935,5.0011,5.0011,5.0149,5.0189,5.0189,5.0359,5.0509,5.0585,5.0657,5.0838,5.1105,0.0,0.0,0.0,0.0,0.0,0.0,0.0,0.0,0.0,0.0,0.0,1.3348,0.0,0.0,0.0,0.0,0.0,0.0,0.0,0.0,0.0,1.4703,1.5265,1.5587,1.5627,1.6076,1.6224,1.6068,1.6539,1.8081,2.0581,2.0577,2.1481,2.3087,2.3363,2.2926,2.1963,2.1744,2.1231,2.066,2.0881,2.101,2.1115,2.1687,2.1511,2.1073,2.2098,2.2328,2.2259,2.2909,2.3228,2.3336,2.3453,0.0,0.0,0.0,2.4325,2.59,2.9017,3.1917,3.4772,3.7648,3.9649,4.1043,4.1758,4.2595,4.3748,4.5768,4.5967,4.6146,4.7305,4.7785,4.8001,4.8001,4.8001,4.8001,4.8001,4.7919,4.7919,4.8001,4.7919,4.7919,4.8001,4.8115,4.8227,4.8227,4.842,4.8564,4.8769,4.8786,4.8832,4.9001,4.9001,4.9063,4.9246,4.9063,4.9185,4.959,4.9649,4.9784,5.0011,5.0011,4.9935,4.986,4.9935,5.0051,5.0092,5.0189,5.0285,5.0436,5.0492,5.062,5.0801,5.0855,5.0981,5.1158,0.0,0.0,0.0,0.0,0.0,0.0,0.0,0.0,0.0,0.0,0.0,0.0,0.0,0.0,0.0,0.0,0.0,0.0,0.0,0.0,0.0,0.0,1.5432,1.5669,1.5759,1.6278,1.6377,1.6098,1.6841,1.8458,2.086,2.1347,2.2324,2.36,2.4029,2.3529,2.2316,2.2295,2.2048,2.1728,2.203,2.2156,2.2238,2.3102,2.2973,2.2452,2.3465,2.3528,2.3172,2.3567,2.3501,2.3315,2.3407,2.3383,0.0,0.0,0.0,2.587,3.0392,3.2266,3.3717,3.7143,3.8948,4.0222,4.1519,4.2361,4.3471,4.5527,4.5851,4.6179,4.7487,4.7868,4.8001,4.8001,4.8001,4.8001,4.8001,4.7935,4.7935,4.8001,4.7935,4.7919,4.8001,4.8115,4.8227,4.8292,4.8483,4.8627,4.8832,4.8832,4.8894,4.9001,4.9001,4.9001,4.9001,4.9063,4.9246,4.9488,4.9666,4.986,5.0011,5.0011,4.9993,5.0051,5.0051,5.0092,5.0189,5.0285,5.0436,5.0585,5.0657,5.0801,5.0998,5.1052,5.1211,5.135,0.0,0.0,0.0,0.0,0.0,0.0,0.0,0.0,0.0,0.0,0.0,0.0,1.3962,1.446,1.4605,1.3966,1.4443,0.0,0.0,0.0,0.0,0.0,0.0,0.0,1.571,1.5911,1.6054,1.6098,1.6841,1.8359,2.0628,2.245,2.3682,2.4462,2.4932,2.4837,2.4324,2.4199,2.403,2.3851,2.3926,2.4025,2.4223,2.4906,2.443,2.3502,2.4199,2.3966,2.3374,2.3403,2.3505,2.3526,2.328,2.3265,2.3313,0.0,0.0,0.0,2.9215,3.0924,3.2383,3.4413,3.6966,3.9311,4.0675,4.1976,4.328,4.468,4.5424,4.603,4.6808,4.7537,4.8001,4.8001,4.8001,4.8001,4.8001,4.7853,4.7787,4.8001,4.7853,4.7787,4.8001,4.8115,4.8292,4.8483,4.869,4.8832,4.9001,4.9001,4.9001,4.9001,4.9001,4.9001,4.9001,4.9307,4.9488,4.9488,4.9818,5.0011,5.0011,5.0011,5.0051,5.0189,5.0189,5.0189,5.0246,5.0492,5.0585,5.0585,5.0819,5.1034,5.1228,5.1158,5.1402,5.1858,0.0,0.0,0.0,0.0,0.0,0.0,0.0,0.0,0.0,0.0,0.0,0.0,0.0,1.5065,1.4816,1.4621,1.4003,0.0,0.0,0.0,0.0,0.0,0.0,0.0,1.5065,1.6153,1.6492,1.6045,1.7289,1.8746,2.0368,2.1947,2.3253,2.4377,2.5272,2.5245,2.4458,2.4505,2.4234,2.3915,2.4185,2.4308,2.4375,2.4425,2.438,2.4282,2.4521,2.4579,2.4491,2.4508,2.4712,2.4878,2.3991,2.3919,2.4126,2.4123,2.4825,2.6198,2.8711,3.0324,3.1896,3.4433,3.6789,3.8795,4.0172,4.1715,4.3187,4.4148,4.4998,4.5871,4.6758,4.7504,4.8001,4.8001,4.8001,4.8001,4.8001,4.7935,4.7935,4.8001,4.7935,4.7935,4.8001,4.8115,4.8108,4.783,4.8438,4.863,4.8325,4.8748,4.9001,4.9001,4.9001,4.9063,4.9107,4.9367,4.953,4.9649,4.986,5.0011,4.9993,5.0109,5.0132,5.0189,5.038,5.0436,5.0436,5.053,5.0675,5.0819,5.0998,5.1105,5.1211,5.1402,5.1269,5.1021,0.0,0.0,0.0,0.0,0.0,0.0,0.0,0.0,0.0,1.5214,0.0,0.0,0.0,0.0,1.5595,1.5642,1.4578,1.4112,1.4604,1.443,0.0,0.0,0.0,0.0,1.5188,1.6467,1.693,1.6442,1.7664,1.8914,2.0166,2.1547,2.2869,2.4066,2.5258,2.5327,2.4612,2.4973,2.4895,2.4712,2.5304,2.5603,2.5692,2.5998,2.6078,2.6021,2.6284,2.6399,2.6363,2.5889,2.6015,2.62,2.4934,2.4683,2.4908,2.5174,2.5579,2.6347,2.8118,2.9569,3.1168,3.3575,3.5683,3.7678,3.9486,4.1035,4.2354,4.3427,4.4311,4.5272,4.6344,4.7075,4.7654,4.7968,4.8001,4.7918,4.7669,4.7835,4.7918,4.7653,4.7636,4.7736,4.7984,4.7834,4.7778,4.778,4.8358,4.8551,4.8308,4.8731,4.9001,4.9001,4.9001,4.9063,4.9229,4.9428,4.9547,4.9708,4.9976,5.0051,5.0051,5.0206,5.0285,5.0341,5.053,5.0585,5.0585,5.0657,5.0801,5.0998,5.1105,5.1264,5.1384,5.1387,5.1137,5.0796,0.0,0.0,0.0,0.0,0.0,0.0,0.0,0.0,1.5265,1.5862,0.0,0.0,0.0,0.0,0.0,1.6841,1.6249,1.5887,1.5911,1.5305,1.4939,1.4939,1.5704,1.6117,1.6101,1.6897,1.7306,1.7281,1.7909,1.8815,2.0012,2.1358,2.2588,2.3685,2.4761,2.5124,2.4909,2.5742,2.6181,2.6404,2.7456,2.7982,2.829,2.9743,2.9584,2.8792,2.9492,2.9469,2.8963,2.7498,2.728,2.7421,2.6049,2.5532,2.5559,2.6423,2.6697,2.6845,0.0,0.0,0.0,3.153,3.3533,3.588,3.8619,3.9788,4.0815,4.2478,4.3322,4.4188,4.5545,4.6251,4.6929,4.7835,4.7951,4.7719,4.699,4.7504,4.7669,4.6941,4.6874,4.7156,4.7868,4.7305,4.7301,4.8366,4.845,4.8673,4.8968,4.8984,4.8984,4.8968,4.8984,4.9046,4.9195,4.9394,4.9573,4.9708,5.004,5.0154,5.0154,5.0341,5.0492,5.0567,5.0585,5.0585,5.0657,5.0819,5.0998,5.1105,5.1246,5.1538,5.1782,5.1054,5.1012,5.1246,0.0,0.0,0.0,0.0,0.0,0.0,1.6475,1.6427,1.645,0.0,0.0,0.0,1.6717,1.6377,1.5903,1.5368,1.5128,1.531,1.5934,1.5889,1.5866,1.5917,1.6546,1.6645,1.6091,1.688,1.7273,1.7224,1.7976,1.8761,1.9593,2.0812,2.1789,2.2633,2.3291,2.3795,2.4271,2.5507,2.6321,2.678,2.7147,2.8076,2.9287,2.9319,2.9877,3.0593,3.0449,3.0701,3.0895,2.9706,2.9423,2.9202,2.7212,2.5929,2.5292,2.6282,2.6556,2.6713,2.7407,0.0,0.0,0.0,0.0,0.0,3.674,3.816,3.9443,4.1218,4.2261,4.3247,4.4721,4.5302,4.5749,4.6314,4.6858,4.7123,4.6924,4.6609,4.6328,4.6129,4.6096,4.6225,4.655,4.6756,4.6932,4.7032,4.7927,4.8375,4.8179,4.8714,4.8826,4.8344,4.8897,4.9035,4.8802,4.8785,4.9251,5.0057,4.9634,4.9448,4.9559,5.0247,5.025,4.9833,5.0519,5.0873,5.0981,5.1052,5.1088,5.1246,5.1487,5.1383,5.1119,5.1074,5.0506,4.9665,0.0,0.0,0.0,0.0,0.0,1.6664,1.6403,1.6381,1.6355,0.0,0.0,0.0,1.6857,1.6648,1.618,1.551,1.5217,1.5352,1.5958,1.5837,1.5808,1.5917,1.6538,1.6666,1.6229,1.6928,1.7281,1.7273,1.7732,1.8437,1.9411,2.0088,2.1052,2.231,2.2865,2.3442,2.4109,2.5597,2.6561,2.7193,2.8406,2.947,3.0349,3.0925,3.15,3.1952,3.2191,3.244,3.253,3.1647,3.1032,3.0344,2.8301,2.7291,2.6889,2.6805,2.6983,2.723,2.743,2.8007,2.881,3.0125,0.0,0.0,3.5977,3.7361,3.8711,4.0815,4.1597,4.2361,4.3764,4.4098,4.4401,4.5063,4.5196,4.5452,4.5943,4.5864,4.5682,4.5429,4.5396,4.5635,4.6074,4.6162,4.6302,4.6455,4.7485,4.8231,4.8436,4.8826,4.8982,4.8677,4.9069,4.9266,4.9073,4.8747,4.8931,4.959,4.8997,4.8742,4.8814,4.9835,5.0047,4.9679,5.0348,5.0716,5.0751,5.0533,5.0637,5.1007,5.1272,5.103,5.0479,5.0468,4.9913,4.9236,0.0,0.0,0.0,1.6436,1.6573,1.6412,1.591,1.5855,1.5798,0.0,1.5842,1.6206,1.6674,1.7189,1.7239,1.6647,1.6119,1.5892,1.6104,1.5619,1.5413,1.5621,1.6193,1.6497,1.6497,1.7025,1.7346,1.7395,1.733,1.8044,1.9422,1.9394,2.0466,2.2362,2.3009,2.3597,2.4243,2.5812,2.6915,2.7736,3.0248,3.1367,3.1718,3.3572,3.3871,3.3367,3.443,3.46,3.4197,3.341,3.2369,3.11,2.9347,2.9197,2.9349,2.7742,2.772,2.8116,2.7624,2.7982,2.8739,2.9619,3.0976,0.0,3.564,3.6887,3.8157,4.059,4.1019,4.1306,4.2428,4.2624,4.2791,4.3614,4.316,4.3199,4.4444,4.513,4.5341,4.4837,4.4813,4.514,4.6022,4.557,4.5529,4.6346,4.7087,4.7916,4.888,4.9059,4.9137,4.9291,4.9376,4.9436,4.9468,4.8787,4.85,4.8739,4.8236,4.8032,4.8049,4.9258,4.973,4.9711,5.0054,5.019,5.0186,4.9775,4.9948,5.0449,5.0764,5.0543,4.9978,4.9547,4.942,4.9428,0.0,0.0,1.6517,1.7183,1.7252,1.7421,1.7916,1.7436,1.7107,1.7485,1.7547,1.7563,1.7577,1.7792,1.7746,1.7197,1.7099,1.6995,1.6837,1.6808,1.6855,1.6994,1.7065,1.7124,1.7131,1.7248,1.7306,1.7321,1.741,1.8203,1.9638,1.9476,2.0303,2.1955,2.2411,2.2993,2.377,2.574,2.727,2.8512,3.0006,3.1977,3.4045,3.4604,3.5627,3.6706,3.6813,3.6895,3.6667,3.4934,3.3401,3.1949,3.0354,3.0287,3.0408,2.8308,2.8252,2.8783,2.8253,2.838,2.8868,2.9682,3.1245,0.0,3.3934,3.5212,3.6713,3.8677,3.8785,3.8986,4.0323,4.035,4.033,4.0761,4.0538,4.1272,4.3797,4.3913,4.3813,4.4047,4.4198,4.4365,4.4673,4.501,4.5387,4.5831,4.6524,4.7115,4.7427,4.7988,4.8175,4.79,4.8466,4.8524,4.8092,4.7461,4.7538,4.8201,4.7666,4.7455,4.7592,4.862,4.8788,4.824,4.9137,4.9597,4.9751,4.9757,4.9838,4.9982,5.0244,5.0059,4.9596,4.9511,4.9191,4.879,0.0,1.6554,1.6776,1.7708,1.7452,1.7408,1.8084,1.7854,1.767,1.7847,1.8097,1.8268,1.8096,1.8355,1.8374,1.7882,1.7884,1.7869,1.7844,1.7706,1.7652,1.7789,1.7445,1.7273,1.7305,1.7289,1.7314,1.7353,1.7798,1.8576,1.9691,1.9965,2.0908,2.2377,2.2899,2.3777,2.4896,2.6477,2.8227,3.0037,3.1296,3.2779,3.4286,3.5253,3.6189,3.7021,3.7022,3.7286,3.7316,3.5679,3.4592,3.3661,3.1769,3.1405,3.1254,2.9496,2.9248,2.942,2.9025,2.9004,2.9256,2.9721,3.068,0.0,0.0,3.4408,3.5349,3.7517,3.7583,3.7415,3.7891,3.7868,3.7987,3.8584,3.8666,3.9401,4.1511,4.1907,4.2361,4.3313,4.3283,4.3367,4.3833,4.4277,4.4857,4.575,4.614,4.6629,4.7233,4.7609,4.7758,4.7717,4.8079,4.8152,4.7882,4.7228,4.7107,4.7561,4.7017,4.685,4.6917,4.8068,4.8419,4.8175,4.8801,4.919,4.927,4.9113,4.9034,4.9131,4.9633,4.9468,4.8912,4.9084,4.8975,4.8841,1.7567,1.707,1.6898,1.8022,1.7609,1.7318,1.7919,1.8057,1.7992,1.7763,1.8441,1.8932,1.8808,1.9156,1.9226,1.8891,1.8794,1.8776,1.8733,1.8452,1.83,1.8343,1.7734,1.7404,1.747,1.7371,1.7338,1.7361,1.8129,1.8908,1.9734,2.0412,2.1529,2.2924,2.3522,2.4652,2.6141,2.7178,2.909,3.1574,3.2879,3.3763,3.4488,3.5995,3.674,3.7018,3.7171,3.7406,3.7419,3.6267,3.5773,3.5288,3.2996,3.2394,3.2232,3.0503,3.0123,3.0157,2.9725,2.9817,3.004,3.0075,3.0637,3.1711,0.0,0.0,0.0,3.6451,3.6485,3.6011,3.5642,3.5659,3.5916,3.6508,3.6782,3.7353,3.8584,3.927,4.0354,4.227,4.2252,4.2275,4.287,4.3149,4.3886,4.5244,4.5363,4.573,4.6694,4.7086,4.7438,4.7711,4.7711,4.7819,4.7909,4.7213,4.6881,4.6933,4.6618,4.6495,4.656,4.765,4.8228,4.8317,4.8616,4.8787,4.8839,4.8464,4.8344,4.8456,4.9118,4.897,4.8458,4.8768,4.8909,4.9105,1.7443,1.7097,1.7076,1.8114,1.8099,1.8155,1.8676,1.8699,1.8548,1.8327,1.942,2.0219,2.0265,2.058,2.0667,2.0466,2.0213,1.9753,1.8935,1.9173,1.9174,1.8852,1.8289,1.8032,1.8111,1.7567,1.7289,1.7305,1.8104,1.8908,1.9691,2.0329,2.1424,2.2924,2.3291,2.4413,2.6084,2.7029,2.925,3.221,3.3419,3.4976,3.6656,3.7729,3.8507,3.9047,3.9065,3.8736,3.8167,0.0,3.6703,3.5707,3.3264,3.33,3.3563,3.019,3.0319,3.1283,3.0306,3.0825,0.0,0.0,3.2713,3.411,3.3415,0.0,3.4653,3.4798,0.0,3.4458,3.4419,0.0,0.0,3.3734,3.4185,3.4852,3.5576,3.5794,3.7058,4.04,4.1034,4.1224,4.1168,4.1311,4.1998,4.3406,4.3408,4.3544,4.4028,4.5702,4.6756,4.7091,4.7091,4.7195,4.7316,4.663,4.6425,4.6636,4.6737,4.6842,4.6952,4.7383,4.7594,4.7637,4.8075,4.8315,4.8396,4.8456,4.8569,4.8751,4.8844,4.8861,4.8874,4.9079,4.9211,4.9295,1.7471,1.7042,1.6968,1.7992,1.8018,1.8052,1.868,1.9289,1.9708,1.9708,2.0279,2.0852,2.1415,2.1449,2.1435,2.1573,2.1524,2.1233,0.0,2.0186,2.0023,2.0175,1.9085,1.8691,1.9186,1.8594,1.8377,1.8588,1.9312,1.9915,2.0421,2.1043,2.2172,2.3617,2.4149,2.5815,2.8257,2.8649,3.0685,3.3638,3.4562,3.5837,3.7263,3.8159,3.8743,3.9244,3.9781,3.9559,3.8886,0.0,3.7591,0.0,0.0,0.0,3.4292,3.3,3.2833,3.302,3.2746,0.0,0.0,0.0,0.0,0.0,3.3256,0.0,3.2915,0.0,0.0,0.0,0.0,0.0,0.0,0.0,3.3071,3.3841,3.3719,3.4179,3.5553,3.835,3.866,3.8988,3.9922,4.0482,4.12,4.223,4.188,4.2258,4.3827,4.4638,4.5778,4.7312,4.6958,4.7072,4.7678,4.6997,4.6731,4.6842,4.7116,4.7249,4.7294,4.7723,4.7888,4.7929,4.8169,4.8324,4.8419,4.8606,4.8787,4.8925,4.9094,4.9113,4.9079,4.9276,4.9371,4.9495,1.7427,1.6988,1.687,1.7915,1.794,1.8158,1.9161,2.0005,2.0617,2.1039,2.1239,2.1738,2.2692,2.2625,2.264,2.3011,2.3086,2.2839,0.0,2.1531,2.1349,2.163,2.0213,1.9829,2.0632,1.9725,1.9397,1.968,2.0225,2.0636,2.0844,2.1766,2.2851,2.4131,2.5125,2.7049,2.9642,3.0206,3.2151,3.4865,3.5653,3.6827,3.8196,3.8789,3.9184,3.9536,4.0199,3.9978,3.9376,3.8772,3.8205,0.0,3.6708,3.5828,3.4966,3.4764,3.45,3.4311,3.4366,0.0,0.0,0.0,0.0,0.0,0.0,0.0,0.0,0.0,0.0,0.0,0.0,0.0,3.1795,3.0938,0.0,3.2733,3.1856,3.2549,3.3894,3.5906,3.6141,3.6847,3.8752,3.9096,3.9704,4.0907,4.0504,4.106,4.3059,4.4041,4.5244,4.6797,4.6968,4.7293,4.779,4.7311,4.7116,4.7223,4.7493,4.7681,4.7723,4.805,4.8226,4.8208,4.8344,4.8438,4.8532,4.8732,4.8943,4.9075,4.9289,4.9352,4.9371,4.9476,4.9555,4.9663,1.7241,1.6972,1.7007,1.7946,1.8145,1.8818,2.0628,2.079,2.1009,2.1945,2.2502,2.3216,2.4103,2.4453,2.4782,2.5203,2.5091,2.4404,2.2979,2.3363,2.3474,2.2945,2.1872,2.1713,2.2584,2.0804,1.9963,2.0169,2.0379,2.0562,2.0749,2.2178,2.3287,2.4165,2.5909,2.758,2.9248,3.1052,3.3321,3.5699,3.6461,3.8061,3.994,0.0,4.0454,4.0616,4.0456,0.0,0.0,3.8687,3.8288,0.0,0.0,0.0,0.0,0.0,0.0,0.0,0.0,0.0,0.0,3.3931,0.0,0.0,0.0,0.0,3.2055,0.0,0.0,0.0,3.2038,3.1984,3.1533,3.0322,3.0888,0.0,0.0,3.0386,3.1474,3.2802,3.3806,3.5265,3.7524,3.6648,3.6852,3.9013,3.9227,3.9712,4.0742,4.4021,4.5556,4.491,4.7017,4.7829,4.7232,4.7249,4.7407,4.7657,4.7888,4.805,4.8187,4.8247,4.8306,4.8306,4.8514,4.8587,4.8623,4.882,4.9027,4.9289,4.9308,4.9495,4.9778,4.9778,4.9807,4.9807,1.7188,1.7502,1.7879,1.799,1.8383,1.9152,2.058,2.1313,2.2067,2.3091,2.381,2.465,2.5706,2.6352,2.6564,2.6163,2.6452,2.6101,2.4735,2.4657,2.461,2.4557,2.323,2.2852,2.3631,2.2424,2.1584,2.1247,2.1898,2.2096,2.1897,2.2848,2.3769,2.4608,2.5951,2.8025,3.0591,3.2006,3.4149,3.6663,3.7848,3.9391,4.0964,0.0,4.1083,4.0898,4.1203,4.0785,0.0,4.0001,3.9415,3.8606,3.8009,3.7751,3.7498,3.6669,3.6974,0.0,0.0,0.0,3.7575,3.6437,0.0,0.0,0.0,0.0,0.0,0.0,0.0,0.0,0.0,3.1707,3.1394,2.9819,3.0332,3.0467,0.0,2.8913,2.9472,3.0964,3.282,3.4047,3.4232,3.4987,3.5742,3.6454,3.7132,3.8313,4.0184,4.177,4.3668,4.5987,4.6241,4.7012,4.8374,4.806,4.7888,4.7888,4.8111,4.8208,4.8187,4.8381,4.8419,4.8457,4.8569,4.8678,4.882,4.8925,4.9108,4.9384,4.9464,4.9634,4.9807,4.9843,4.9898,4.9952,1.7398,1.8095,1.8655,1.8416,1.9266,2.0353,2.1591,2.2502,2.3527,2.4871,2.5402,2.6207,2.7488,2.8001,2.805,2.7526,2.7921,2.7703,2.6359,2.625,0.0,2.5987,2.4867,2.4431,2.4765,2.3731,2.2956,2.2423,2.2848,2.2942,2.282,2.3815,2.4577,2.5222,2.6855,2.8958,3.1433,3.31,3.5079,3.7284,3.8967,4.0382,4.1384,0.0,4.149,4.1291,0.0,4.1235,4.0544,4.0529,4.0039,3.9313,3.9192,3.9082,3.887,3.8447,3.8747,3.9109,3.8997,3.9132,0.0,3.8114,3.7363,0.0,3.5215,0.0,3.4253,0.0,0.0,0.0,0.0,3.2138,3.1464,3.0154,3.0205,2.9979,0.0,2.8519,2.8792,2.9462,3.1083,3.2254,3.257,3.3493,3.4414,3.5298,3.5708,3.6945,3.9296,4.0775,4.265,4.5096,4.5638,4.667,4.8257,4.7944,4.7895,4.8111,4.8306,4.8382,4.8363,4.855,4.8642,4.8642,4.8714,4.882,4.8906,4.8729,4.8963,4.9457,4.9235,4.9239,4.9465,4.9784,4.9959,5.0063,0.0,1.8663,1.9329,1.9244,2.067,2.2235,2.349,2.4141,2.5196,2.7104,2.7283,2.784,2.948,2.9516,2.9322,2.9187,2.9571,2.9164,2.7799,2.8074,0.0,0.0,2.6857,2.6444,2.6117,0.0,0.0,0.0,2.3275,2.3182,2.3436,2.5061,2.5793,2.5982,2.8468,3.0332,3.1691,3.4213,3.6137,3.7663,3.9773,4.0897,4.1323,4.1573,4.1689,4.1761,4.1963,4.1458,4.0693,4.0531,4.0314,3.9935,3.9267,3.945,3.9749,3.9196,3.9202,3.9487,3.9801,3.9847,3.9697,3.8926,0.0,0.0,0.0,0.0,3.5191,0.0,0.0,0.0,0.0,0.0,3.1741,3.1161,3.0363,2.9434,2.8295,2.8932,2.9212,2.8334,2.8639,2.9898,3.2336,3.2112,3.281,3.5202,3.4908,3.5625,3.7922,4.0803,4.2397,4.2322,4.5077,4.6647,4.6853,4.6908,4.7331,4.8122,4.8384,4.8458,4.8476,4.8674,4.8797,4.8797,4.89,4.8952,4.8897,4.8324,4.8665,4.9529,4.869,4.8513,4.8863,4.9584,4.9974,5.0207,1.8484,1.9479,2.0496,2.1001,2.1465,2.2028,2.305,2.4007,2.5351,2.7343,2.8284,2.9152,3.0098,3.0876,3.1054,3.015,3.0675,0.0,0.0,0.0,0.0,2.8544,2.8048,2.7754,2.776,2.6703,2.584,2.521,2.5575,2.5513,2.5109,2.6279,2.6887,2.7049,2.8642,3.0417,3.2276,3.4017,3.6268,3.8781,3.9853,4.0432,4.0812,0.0,4.1909,4.1744,4.2142,4.1963,4.1605,4.1445,4.1081,4.0633,4.0161,4.0209,4.0463,3.9897,4.0316,4.0941,4.0626,4.0735,4.0903,4.0639,3.9946,3.9154,0.0,0.0,0.0,0.0,0.0,0.0,0.0,0.0,3.1716,3.0755,2.9475,2.8344,2.7493,2.7177,2.7377,2.8312,2.7471,2.7457,2.9153,3.0854,3.1648,3.1134,3.272,3.4269,3.5528,0.0,3.9272,4.1101,4.2261,4.3467,4.4767,4.5382,4.574,4.5928,4.6588,4.6866,4.6833,4.6919,4.7021,4.7144,4.7839,4.8212,4.844,4.8852,4.9276,4.9644,4.9418,4.9466,4.9618,4.9219,4.9543,5.0133,1.9387,2.0422,2.1554,2.2218,2.2653,2.3126,2.3939,2.5047,2.6504,2.8604,2.94,0.0,3.1148,3.1626,3.1649,3.098,3.1323,0.0,3.0758,0.0,0.0,3.0164,2.9604,2.9222,2.896,2.7687,0.0,2.6294,0.0,2.6408,2.6096,2.7115,2.7667,2.7902,2.9146,3.0879,3.3002,3.5189,3.7506,3.9624,3.9945,4.0625,0.0,4.1787,4.1738,4.1536,4.2134,4.2283,4.2082,4.167,4.1308,4.102,4.0546,4.0608,4.0873,4.0653,4.1075,4.1575,4.1422,4.1517,4.1707,4.1832,4.1375,4.0772,4.0583,3.9805,3.9051,0.0,0.0,0.0,0.0,0.0,0.0,2.9904,2.8879,2.7922,2.6806,2.6685,2.69,2.7398,2.7283,2.7163,2.7102,2.8762,2.9944,3.017,3.1261,3.2581,0.0,0.0,3.7403,3.9444,4.0793,4.2284,4.398,4.4758,4.5305,4.5708,4.6186,4.6561,4.6895,4.7062,4.7346,4.7783,4.8378,4.8708,4.8878,4.8923,4.9305,4.9769,4.9465,4.9622,4.9891,4.9093,4.9378,5.0139,2.0556,2.1512,2.2542,2.3139,2.3979,0.0,0.0,2.6631,0.0,3.0096,0.0,3.1135,3.2326,3.2062,3.1797,3.1592,3.1642,3.1775,3.2083,3.2067,3.195,3.1913,3.1321,3.0705,2.9958,2.8611,2.7759,0.0,0.0,2.6799,2.6871,2.7813,2.831,2.8519,2.9768,3.1571,3.3887,3.669,3.8702,4.001,4.0076,4.0953,4.2193,4.184,4.1536,4.1294,4.2106,4.237,4.219,4.1669,4.1474,4.1408,4.0839,4.0954,4.1211,4.1288,4.1456,4.172,4.2045,4.2109,4.2238,4.2508,4.2634,4.2534,4.204,4.0906,4.009,4.0624,3.8317,3.647,0.0,0.0,0.0,2.9062,2.8572,2.7974,2.6496,2.6977,2.7182,2.6382,2.7686,0.0,2.5999,2.6758,2.8229,3.0261,3.0026,3.0779,0.0,0.0,3.6254,3.7866,4.0077,4.2047,4.3732,4.4411,4.5263,4.6243,4.6336,4.6852,4.7681,4.7934,4.845,4.9126,4.9408,4.9522,4.9514,4.8872,4.905,4.9724,4.9125,4.9226,4.9613,4.8884,4.915,4.9877,2.209,2.2671,2.337,2.4375,2.4957,2.569,2.7159,2.7773,2.8642,3.0458,3.1512,3.2193,3.2447,3.2646,3.2451,3.1746,3.1992,0.0,0.0,0.0,0.0,3.2497,3.2309,3.2046,3.1668,3.0937,3.0237,0.0,0.0,2.8611,2.833,2.8658,2.8778,2.8887,3.0256,3.2344,3.4894,3.6079,3.7441,3.8824,3.9576,4.0343,4.1146,4.1792,4.202,4.1932,4.2281,4.2129,4.1858,4.2284,4.2485,4.2574,4.1826,4.1705,4.1872,4.1413,4.1538,4.1882,4.2045,4.2238,4.2381,4.2571,4.2696,4.2805,4.2737,4.1937,4.1299,4.1226,3.9187,3.7246,3.6695,0.0,0.0,0.0,0.0,0.0,0.0,2.7342,2.7395,2.7338,2.7893,2.7679,2.6132,2.7368,2.7859,2.6887,2.8072,2.9326,3.0478,0.0,3.5075,0.0,3.9019,0.0,0.0,0.0,4.3845,4.4774,4.5447,4.6195,4.7049,4.721,4.7372,4.7541,4.8306,4.8739,4.8905,4.9435,4.9421,4.9074,4.8966,4.8547,4.8009,4.7808,4.7846,4.815,2.4042,2.4668,2.5259,2.598,2.6544,0.0,0.0,2.9518,3.0163,3.117,3.2052,3.2669,3.3017,3.3113,3.3088,3.2882,3.271,3.2943,3.384,3.3362,3.3354,3.4005,3.3346,3.3046,3.3198,3.1897,3.1076,3.0692,0.0,0.0,2.8714,2.92,2.9443,2.95,3.1784,3.3783,3.5453,0.0,0.0,3.9191,4.0118,4.0856,4.156,4.1976,4.1671,4.1149,4.2062,4.1924,4.1351,4.2299,4.2879,4.3192,4.224,4.21,4.2181,4.1594,4.1686,4.1898,4.2045,4.2238,4.2445,4.2713,4.2837,4.2863,4.2714,4.2146,4.1533,4.1314,3.9783,3.8007,3.6497,3.4157,0.0,0.0,0.0,0.0,0.0,0.0,2.7365,2.7399,2.7951,2.7901,2.6749,2.7384,2.7533,2.6742,2.7513,2.8609,2.9943,0.0,3.337,0.0,0.0,0.0,4.0828,0.0,4.3192,4.4551,4.4862,4.5979,4.7682,4.7363,4.7701,4.8551,4.8966,4.9238,4.9337,4.9371,4.9201,4.8919,4.8486,4.8024,4.7615,4.7571,4.7498,4.7562,2.5831,2.6398,2.7012,2.7575,2.8023,2.8904,3.0404,3.1204,3.1675,3.2064,3.2589,3.3174,3.3611,3.3627,3.3674,3.3895,3.3514,3.3858,3.5331,3.45,3.441,3.543,3.447,3.4073,3.4353,3.2833,3.1869,0.0,0.0,0.0,0.0,2.9818,3.021,3.0476,3.3147,0.0,0.0,0.0,3.9136,3.9865,4.072,4.1497,4.2092,4.2092,4.1352,4.0546,4.1968,4.1886,4.1207,4.2481,4.3153,4.3356,4.2481,4.2294,4.2265,4.1743,4.1752,4.1898,4.2045,4.2238,4.2508,4.2837,4.2961,4.2888,4.2567,4.2069,4.1615,4.1251,4.0187,3.8598,3.6446,3.472,0.0,0.0,0.0,0.0,0.0,0.0,2.7916,2.773,2.8389,2.8558,2.7788,2.7426,2.7358,2.7657,2.7414,2.7932,2.9557,3.0557,3.2076,0.0,0.0,3.7545,4.0287,0.0,4.2937,4.4738,4.4821,4.6026,4.8154,4.7783,4.8348,4.9616,4.9849,4.9933,4.9922,4.9423,4.902,4.8686,4.8044,4.7522,4.7086,4.7063,4.6991,4.6891,0.0,2.708,0.0,0.0,0.0,2.9207,3.0883,3.189,3.27,3.3458,3.3719,3.3944,3.3958,3.4159,3.4141,3.3686,3.4161,3.469,3.5149,3.5364,3.573,3.6092,3.5694,3.5301,3.5036,3.4675,3.3826,0.0,0.0,3.1818,0.0,0.0,0.0,0.0,0.0,0.0,0.0,3.7464,3.8825,4.0153,4.08,4.1497,4.2092,4.2092,4.1738,4.1427,4.2372,4.2296,4.2108,4.3421,4.3548,4.321,4.2824,4.2615,4.2265,4.1743,4.1752,4.1898,4.2045,4.2302,4.2634,4.2837,4.3146,4.3191,4.2626,4.2255,4.1866,4.1321,4.0319,3.886,3.6594,3.5652,3.4582,0.0,0.0,0.0,0.0,0.0,2.999,2.9439,2.9755,2.9832,2.9344,2.7959,2.7518,2.8502,2.7229,2.6898,2.8046,2.9552,3.211,3.5856,3.6171,3.8116,4.1933,4.2114,4.3088,4.4884,4.5609,4.6452,4.7416,4.8275,4.8745,4.8934,4.9733,5.0133,5.0163,5.0159,4.9266,4.7892,4.7837,4.6819,4.544,4.5354,4.5285,4.5214,0.0,0.0,0.0,0.0,0.0,0.0,0.0,3.186,3.2485,3.3861,3.4304,3.4511,3.4511,3.4715,3.4878,3.4885,3.5111,3.534,3.5858,3.5826,3.5935,3.6176,3.6101,3.6,3.5574,3.5453,3.4821,0.0,0.0,0.0,0.0,0.0,0.0,0.0,0.0,3.5651,3.6835,3.8559,3.9561,4.0191,4.1265,4.1613,4.1497,4.1497,4.1018,4.0388,4.1666,4.1858,4.1632,4.2754,4.3259,4.3359,4.3046,4.2855,4.2588,4.1958,4.1947,4.2206,4.2365,4.2571,4.2899,4.3207,4.3449,4.3429,4.3143,4.2644,4.2064,4.1665,4.0689,3.95,3.8131,3.7032,3.5843,0.0,0.0,0.0,0.0,0.0,3.1201,3.1548,3.0906,3.0593,3.103,2.957,2.8645,2.8738,2.7273,2.701,2.854,2.9273,3.1256,3.4772,0.0,3.6958,4.0965,4.1478,4.2826,4.5029,4.5323,4.6152,4.7422,4.739,4.7889,4.8897,4.974,5.0133,5.0149,4.9716,4.8842,4.7761,4.7226,4.6244,4.5148,4.5125,4.5014,4.4938,2.9378,0.0,2.9843,0.0,3.0097,3.0493,3.168,3.1955,3.2587,3.3973,3.4556,3.4932,3.4932,3.5126,3.5482,3.5843,3.5897,3.6084,3.6543,3.6226,3.6253,3.6588,3.6585,0.0,3.6196,3.6185,3.5713,3.4705,3.4136,0.0,0.0,0.0,0.0,0.0,3.5874,3.6716,3.7433,3.9382,4.0066,3.9944,4.1265,4.1395,4.08,4.08,4.0275,3.978,4.0959,4.1192,4.1053,4.2062,4.2605,4.279,4.2745,4.2611,4.2436,4.2041,4.2141,4.2445,4.2571,4.2675,4.2834,4.3178,4.3356,4.3339,4.2871,4.2594,4.2312,4.1773,4.1036,4.0219,3.9311,3.8239,3.7008,3.5581,0.0,0.0,0.0,3.2125,0.0,3.2791,3.1496,3.103,3.2241,3.0655,2.9701,3.008,2.8259,2.772,2.9061,2.94,3.1056,0.0,0.0,0.0,4.0559,4.1169,4.2579,4.4786,4.4966,4.5641,4.6782,4.653,4.7224,4.8615,4.9453,4.982,4.9849,4.9525,4.8766,4.7742,4.7131,4.6148,4.5125,4.5103,4.5033,4.4919,2.9482,2.9797,3.0109,3.039,3.0647,3.1011,3.1828,3.2448,3.3136,3.3863,3.4691,3.5223,3.5223,3.5416,3.5767,3.6106,3.6599,3.6869,3.6933,3.6862,3.7144,0.0,0.0,3.6847,3.6864,3.7132,3.6549,3.5078,0.0,0.0,3.4249,0.0,3.4854,3.4942,3.6758,3.7492,3.7433,3.9551,3.9926,3.932,4.0597,4.0713,4.0104,4.0104,3.9959,3.9887,4.0551,4.0664,4.0591,4.1624,4.1675,4.1311,4.1681,4.1685,4.167,4.1833,4.2141,4.2445,4.2571,4.2439,4.2334,4.2477,4.2879,4.2846,4.1523,4.2108,4.2616,4.1621,4.138,4.0981,3.9658,3.8943,3.8107,3.6631,0.0,0.0,0.0,3.2784,0.0,3.2773,3.1422,3.1076,3.2818,3.0825,3.0424,3.2959,0.0,0.0,0.0,0.0,0.0,3.5268,3.6221,0.0,4.1437,4.1571,4.2393,4.4015,4.4748,4.5103,4.516,4.6085,4.6969,4.7876,4.8735,4.9098,4.9156,4.9958,4.9308,4.7799,4.7799,4.6724,4.5192,4.5125,4.5057,4.4991,3.0082,3.0392,3.0656,3.0536,3.0589,3.0873,3.1466,3.2188,3.2938,3.3732,3.4477,3.512,3.5679,3.5812,3.5956,0.0,3.6491,3.6677,0.0,3.7003,3.7382,3.7529,3.7631,3.7475,3.729,3.7413,3.7045,3.62,0.0,0.0,0.0,3.5761,3.6079,3.6545,3.7172,3.7594,3.7984,3.9121,3.9455,3.9276,4.0089,4.0046,3.9479,3.9479,3.9302,3.9195,4.0009,4.0353,4.0501,4.1195,4.1279,4.1107,4.1295,4.1543,4.1833,4.1898,4.1996,4.2167,4.2348,4.212,4.1886,4.2294,4.2459,4.2557,4.2535,4.2511,4.2367,4.1681,4.1183,4.0785,4.0542,4.0057,3.937,3.8384,3.7336,0.0,3.6349,0.0,3.377,3.58,3.3796,3.312,3.5305,3.3878,0.0,0.0,0.0,0.0,0.0,0.0,0.0,0.0,3.7348,0.0,4.2355,4.2986,4.3827,4.4895,4.5101,4.5254,4.5273,4.6094,4.665,4.6959,4.7837,4.822,4.8239,4.8487,4.8296,4.7796,4.7754,4.7041,4.6001,4.5931,4.5504,4.4919,3.0044,3.0325,3.0571,3.0408,3.0525,3.0898,3.1651,3.2414,3.3193,3.3921,3.4737,3.5441,3.5978,3.6098,0.0,3.6275,3.6465,3.6574,3.6631,3.6875,3.7243,3.7645,3.788,3.7844,3.7523,3.7799,0.0,3.6592,3.6731,3.6662,3.6315,3.6634,3.6968,3.7317,3.7623,3.7928,3.8246,3.899,3.9121,3.8884,3.9509,3.9392,3.8826,3.8903,3.8867,3.8914,3.9565,3.9949,4.0242,4.0787,4.0873,4.0827,4.1038,4.1437,4.1898,4.1947,4.2185,4.2392,4.2325,4.1988,4.1677,4.1859,4.195,4.221,4.2699,4.2419,4.1974,4.171,4.1163,4.0742,4.0989,4.0605,4.0022,3.9301,3.8647,3.8125,3.7744,0.0,3.4642,3.6859,0.0,0.0,0.0,3.5597,3.5216,0.0,0.0,0.0,0.0,0.0,0.0,3.631,3.8823,0.0,4.333,4.3886,4.4537,4.5338,4.5317,4.5297,4.5316,4.5812,4.6042,4.6099,4.6937,4.7296,4.7315,4.7598,4.7713,4.7694,4.7342,4.6858,4.6311,4.5922,4.5393,4.4846,2.9639,2.9785,3.0061,0.0,3.0434,0.0,3.2166,3.3076,3.3861,3.436,3.5384,3.6015,3.6015,3.6275,3.6413,3.6509,0.0,0.0,0.0,3.6691,3.6964,3.816,3.8118,3.7952,3.7507,3.8102,3.784,3.6514,3.6902,3.6822,3.6446,3.7273,3.7565,3.7404,3.8119,3.8366,3.8246,3.9069,3.8906,3.826,3.8884,3.8754,3.8202,3.8441,3.8649,3.887,3.9265,3.9553,3.9824,4.0316,4.0524,4.0593,4.0966,4.1503,4.1898,4.2061,4.2506,4.2944,4.2374,4.2019,4.164,4.1253,4.1359,4.1692,4.2211,4.1858,4.1515,4.1736,4.129,4.0884,4.1181,4.0809,4.0275,3.9514,3.8891,3.8528,3.8603,3.5983,3.4694,0.0,0.0,0.0,0.0,3.6247,3.705,0.0,0.0,0.0,0.0,0.0,3.6195,3.8012,4.0468,4.2581,4.4285,4.4288,4.4652,4.5398,4.5317,4.5297,4.5297,4.5297,4.5297,4.5335,4.6072,4.6412,4.6447,4.7124,4.7443,4.7419,4.6658,4.6349,4.6182,4.5293,4.4903,4.4789,0.0,0.0,3.0619,3.0402,3.1173,3.1961,3.256,3.3717,3.4662,3.4959,3.5737,3.6275,3.6275,3.6358,3.6496,3.6612,3.6692,3.689,3.7298,3.7247,3.7573,3.8187,3.8282,3.8156,3.7744,3.7893,3.7918,3.7519,3.7624,3.7777,3.7989,3.806,3.8133,3.8237,3.8219,3.8366,3.8456,3.8527,3.8423,3.8217,3.8376,3.8423,3.8441,3.8649,3.8943,3.9337,3.9711,3.9854,3.9996,4.0524,4.0662,4.0593,4.107,4.1554,4.1914,4.1963,4.2199,4.2341,4.1634,4.1383,4.1236,4.0646,4.092,4.1331,4.1441,4.1593,4.1736,4.1902,4.1476,4.1288,4.2232,4.194,4.1305,4.054,4.0388,3.9754,3.7961,3.657,3.6131,0.0,3.6609,3.6607,3.7923,3.7802,3.7769,0.0,0.0,0.0,3.7371,3.7737,3.8212,3.8821,4.1243,4.31,4.4285,4.4825,4.5187,4.5317,4.5317,4.5297,4.5297,4.5254,4.5213,4.5233,4.5357,4.5407,4.538,4.5527,4.5979,4.6518,4.6278,4.6177,4.6114,4.5847,4.5278,4.4632,2.9462,2.9948,3.0486,3.0469,3.1168,3.2051,3.3149,3.4059,3.4811,3.5481,3.6088,3.6358,3.6358,3.6452,3.6628,3.6815,3.6815,3.6922,3.7505,3.7505,3.7677,3.8213,3.8626,3.8496,3.7795,3.828,3.8303,3.7915,3.7991,3.8142,3.8366,3.8366,3.8366,3.8516,3.8501,3.8501,3.8516,3.8501,3.8352,3.8202,3.8202,3.8277,3.8516,3.8723,3.9031,3.9424,3.9854,4.0066,4.0207,4.0746,4.0665,4.0318,4.0802,4.0974,4.1039,4.1039,4.1614,4.2071,4.1016,4.0921,4.1018,4.0525,4.0789,4.1209,4.1209,4.1542,4.1884,4.1902,4.1558,4.15,4.2505,4.2266,4.1685,4.0901,4.0306,3.9195,3.7195,3.6232,3.6104,3.7007,3.747,3.8192,3.9375,3.9296,3.9216,3.9294,3.8657,0.0,3.8525,3.9085,3.9643,4.021,4.1914,4.3446,4.4786,4.5189,4.5338,4.5235,4.5235,4.5254,4.5213,4.517,4.5148,4.5148,4.5057,4.501,4.4943,4.487,4.5376,4.6044,4.5587,4.5636,4.59,4.5434,4.4946,4.4496,2.9338,2.9651,3.0132,3.0384,3.0992,3.1981,3.3654,3.4297,3.4835,3.5767,3.6225,3.6452,3.6452,3.6628,3.6909,3.7108,3.7002,3.7108,3.7505,3.7598,3.7769,3.8213,3.8935,3.8877,3.803,3.8737,3.8717,3.7929,3.8142,3.8202,3.8277,3.8366,3.8516,3.859,3.8649,3.8649,3.859,3.8723,3.8575,3.8277,3.8277,3.8427,3.859,3.8797,3.9177,3.9568,3.9925,4.0076,4.0263,4.0743,4.0411,3.9885,4.0291,4.0198,3.9982,3.9886,4.0815,4.1634,4.04,4.0467,4.0762,4.0491,4.0806,4.1163,4.1163,4.1604,4.1962,4.1841,4.1629,4.174,4.2483,4.232,4.1777,4.0937,3.9557,3.8034,3.6489,0.0,3.5625,3.6574,3.8145,3.9478,4.0304,4.0533,4.0614,4.0694,4.0088,3.9739,3.9889,4.0015,4.0615,4.1724,4.2432,4.3618,4.5342,4.538,4.5317,4.5192,4.5192,4.5148,4.5103,4.508,4.508,4.5061,4.4919,4.487,4.4865,4.4738,4.5119,4.5677,4.486,4.4965,4.5491,4.4674,4.4354,4.4344,2.9206,2.9523,3.0131,3.0609,3.1491,3.2474,3.3467,3.4462,3.5226,3.5562,3.6256,3.6628,3.6628,3.6909,3.7121,3.74,3.7585,3.7769,3.7808,3.7808,3.7979,3.82,3.8935,3.9155,3.8889,3.8932,3.8664,3.8127,3.8202,3.8277,3.8441,3.8277,3.8427,3.8723,3.8427,3.8486,3.8708,3.859,3.8516,3.8441,3.8649,3.8797,3.9031,3.9265,3.9568,3.9925,4.0137,3.991,3.9489,3.988,3.9548,3.9054,3.936,3.9723,3.9886,3.931,3.9586,4.0099,3.9968,3.9993,4.0087,4.0155,4.0631,4.1076,4.0913,4.1453,4.2005,4.1962,4.2216,4.2465,4.2727,4.2846,4.245,4.1028,3.9524,3.7961,3.6362,0.0,3.6452,3.7301,3.8918,4.027,4.1211,4.0859,4.0587,4.0614,4.004,3.9739,3.9804,3.9954,4.076,4.2385,4.2677,4.3577,4.5216,4.5297,4.5254,4.5125,4.5125,4.5125,4.5103,4.4967,4.4919,4.4919,4.477,4.4712,4.4632,4.4551,4.459,4.4627,4.4429,4.4418,4.4512,4.4352,4.4207,4.416,2.9518,2.9799,3.0264,3.0984,3.1658,3.2475,3.3583,3.4407,3.5032,3.5411,3.6193,3.6709,3.6709,3.7108,3.74,3.7677,3.7939,3.8135,3.8253,3.8253,3.8239,3.82,3.9011,3.9381,3.9311,3.871,3.8294,3.8202,3.8202,3.8277,3.8366,3.8202,3.8352,3.8649,3.8427,3.8427,3.8634,3.8223,3.8135,3.8308,3.7828,3.7899,3.8381,3.8198,3.8571,3.9154,3.9209,3.9152,3.9101,3.9358,3.9046,3.8508,3.8738,3.8779,3.8732,3.9013,3.9167,3.9273,3.9495,3.9734,3.9952,4.0238,4.0697,4.099,4.0613,4.0885,4.1266,4.135,4.1663,4.2067,4.2673,4.2592,4.2069,4.0939,3.8729,0.0,0.0,3.5765,3.6054,3.7448,3.949,4.1169,4.2124,4.1698,4.1349,4.1349,4.04,4.0034,4.053,4.0656,4.148,4.3194,4.3757,4.4388,4.5148,4.517,4.5148,4.5057,4.5057,4.501,4.4919,4.487,4.4821,4.477,4.4659,4.4578,4.4524,4.4411,4.4325,4.4248,4.4158,4.4116,4.411,4.4525,4.4628,4.4624,2.9792,2.9949,3.0356,3.1273,3.1585,3.2247,3.3545,3.4173,3.4726,3.529,3.6096,3.6675,3.6896,3.74,3.7769,3.7939,3.8094,3.8196,3.8402,3.8359,3.8332,3.8182,3.8999,3.9382,3.9324,3.8572,3.8225,3.8202,3.8202,3.8202,3.8202,3.8202,3.8204,3.8296,3.8383,3.8281,3.8047,3.7711,3.7682,3.7754,3.6994,3.7193,3.778,3.7434,3.7764,3.8392,3.8392,3.8337,3.8357,3.8546,3.8345,3.7969,3.7981,3.7851,3.7825,3.8592,3.8793,3.8766,3.9094,3.9404,3.9682,3.9966,4.0285,4.04,3.9991,4.0139,4.0394,4.0518,4.0945,4.1543,4.2309,4.2121,4.1561,4.0744,0.0,0.0,0.0,3.5593,3.586,3.764,3.997,4.1773,4.2753,4.2483,4.2273,4.2291,4.1146,4.0738,4.14,4.1506,4.2234,4.371,4.4596,4.508,4.508,4.508,4.5038,4.4986,4.4986,4.4919,4.4796,4.477,4.4719,4.4659,4.4496,4.4458,4.4411,4.4266,4.4258,4.4327,4.4252,4.4337,4.448,4.5041,4.5213,4.5289,2.9792,2.9829,3.0168,3.121,3.1424,3.1838,3.2968,3.3608,3.4249,3.4996,3.5812,3.6623,3.7348,3.7848,3.8122,3.8213,3.8172,3.7966,3.7803,3.7631,3.7736,3.8115,3.8601,3.888,3.8831,3.9006,3.8826,3.8202,3.8202,3.8202,3.8202,3.8202,3.8046,3.7667,3.803,3.7711,3.6789,3.7345,3.7258,3.6731,3.7064,3.7419,3.794,3.8009,3.815,3.8392,3.8165,3.753,3.6715,3.6833,3.7036,3.7192,3.6925,3.7328,3.7919,3.784,3.8129,3.8504,3.875,3.8758,3.8673,3.8673,3.8738,3.8794,3.8725,3.9231,3.9663,3.9704,4.057,4.1325,4.1495,4.1591,4.1359,4.0546,0.0,0.0,3.6772,3.6321,3.6655,3.8426,4.0271,4.1804,4.2794,4.2969,4.3034,4.3109,4.2511,4.2124,4.2133,4.2248,4.273,4.3585,4.4526,4.501,4.501,4.501,4.4967,4.4895,4.4895,4.487,4.4815,4.4738,4.4632,4.4515,4.4373,4.4237,4.4109,4.3974,4.4374,4.5008,4.4961,4.5374,4.6022,4.5935,4.5901,4.592,3.0152,3.0431,3.0823,3.1516,3.1934,3.2458,3.342,3.4149,3.4882,3.5517,3.6134,3.6612,3.6936,3.6895,3.7029,3.7307,3.7283,3.7337,3.7523,3.7297,3.7481,3.8349,3.8431,3.853,3.8822,3.8616,3.8463,3.8202,3.8202,3.8202,3.8202,3.8202,3.7957,3.7448,3.7535,3.7143,3.6372,3.6297,3.6312,3.6385,3.5928,3.6055,3.6447,3.6339,3.6428,3.6684,3.66,3.6625,3.663,3.6552,3.6671,3.6963,3.6843,3.7006,3.7103,3.7074,3.8001,3.8788,3.7693,3.7873,3.832,3.8086,3.8167,3.8305,3.8044,3.8325,3.873,3.8868,3.9373,3.9922,4.054,4.0327,3.995,3.9698,0.0,3.7009,3.7478,3.7029,3.7361,3.9239,4.0099,4.0935,4.1991,4.1801,4.163,4.1667,4.1048,4.1132,4.2146,4.2761,4.2975,4.2743,4.3604,4.431,4.4796,4.4865,4.4846,4.477,4.4209,4.4221,4.4667,4.396,4.4186,4.5073,4.4339,4.4599,4.537,4.429,4.4561,4.5653,4.5102,4.5311,4.5993,4.6452,4.6211,4.5749,3.0637,3.0791,3.1161,3.1838,3.2168,3.2604,3.347,3.4149,3.4768,3.5301,3.5814,3.6159,3.6328,3.627,3.6371,3.6731,3.673,3.6807,3.7159,3.6838,3.7097,3.8095,3.8009,3.8161,3.8611,3.8344,3.8115,3.7837,3.7837,3.7736,3.7533,3.7533,3.72,3.6707,3.6896,3.6519,3.5691,3.5459,3.5503,3.5633,3.5102,3.5049,3.5423,3.5272,3.5507,3.5813,3.5623,3.5897,3.6329,3.6007,3.6215,3.6492,3.6445,3.6496,3.659,3.6369,3.7504,3.8463,3.6551,3.6803,3.7546,3.7317,3.7466,3.757,3.7215,3.7572,3.7983,3.8029,3.8404,3.897,3.9639,3.9408,3.914,3.9175,3.8005,3.732,3.7895,3.7667,3.7936,3.9305,3.9841,4.0392,4.1173,4.1111,4.1033,4.1041,4.0628,4.0904,4.2102,4.2989,4.3064,4.2172,4.3007,4.3566,4.3788,4.4158,4.4341,4.429,4.3664,4.363,4.4129,4.3905,4.4386,4.5388,4.4869,4.5238,4.6128,4.4644,4.498,4.6269,4.5388,4.5462,4.6154,4.6681,4.6254,4.5399,3.1136,3.0766,3.0919,3.2352,3.2117,3.2048,3.3003,3.324,3.3614,3.4197,3.4684,3.5137,3.5706,3.621,3.6558,3.6804,3.6525,3.6356,3.6592,3.6306,3.647,3.7226,3.7303,3.7596,3.8202,3.8188,3.7823,3.6993,3.6993,3.6648,3.6,3.6,3.5811,3.5386,3.6025,3.5604,3.4457,3.5082,3.4994,3.4414,3.4631,3.486,3.5134,3.5273,3.5749,3.6214,3.5575,3.5357,3.5325,3.5022,3.5333,3.5866,3.5478,3.5991,3.6569,3.578,3.657,3.7281,3.5561,3.5619,3.6149,3.6174,3.6346,3.6439,3.6139,3.6938,3.7579,3.7088,3.786,3.864,3.8754,3.8958,3.9085,3.9085,3.8455,3.7967,3.7899,3.8171,3.8415,3.851,3.9503,4.0288,4.0496,4.125,4.1745,4.181,4.1846,4.1935,4.2065,4.2893,4.2942,4.1999,4.2886,4.2889,4.181,4.2844,4.3401,4.3401,4.3302,4.3267,4.3268,4.48,4.5376,4.5217,4.5904,4.6153,4.6046,4.5022,4.5553,4.6887,4.597,4.6057,4.6706,4.6684,4.5956,4.5006,3.228,3.2475,3.272,3.298,3.3251,3.3482,3.3794,3.4081,3.4459,3.5034,3.5002,3.5081,3.5435,3.5168,3.5173,3.5592,3.5528,3.5668,3.6171,3.6182,3.6312,3.6836,3.6571,3.6651,3.7103,3.6747,3.6372,3.6185,3.6185,3.6085,3.5884,3.5942,3.5669,3.5008,3.5476,3.5114,3.421,3.4549,3.4437,3.3991,3.4196,3.4189,3.4084,3.4347,3.4462,3.4411,3.4335,3.4481,3.4738,3.4709,3.4981,3.535,3.5413,3.5864,3.623,3.5474,3.565,3.5721,3.3906,3.3657,3.4214,3.5597,3.609,3.6343,3.648,3.7031,3.7428,3.711,3.7397,3.7802,3.8097,3.8097,3.8043,3.8115,3.7989,3.7916,3.7899,3.8156,3.8587,3.926,3.9761,4.0362,4.1141,4.1518,4.1706,4.1735,4.1801,4.1351,4.0263,4.0993,4.1049,4.0199,4.0993,4.1285,4.0942,4.25,4.3202,4.3109,4.2464,4.2819,4.3959,4.409,4.4761,4.5833,4.5792,4.6413,4.7291,4.5296,4.5422,4.6718,4.5235,4.5046,4.5576,4.5631,4.488,4.3804,3.2738,3.2986,3.3219,3.3196,3.3449,3.3682,3.3977,3.4152,3.4366,3.4712,3.4715,3.4764,3.4777,3.4536,3.4564,3.5086,3.5236,3.5372,3.5388,3.55,3.5672,3.5878,3.537,3.5574,3.6518,3.6082,3.5625,3.5296,3.5223,3.5038,3.4796,3.4825,3.4626,3.4186,3.4481,3.4266,3.3701,3.3991,3.3785,3.3409,3.3701,3.3507,3.3157,3.3423,3.3593,3.3649,3.3578,3.3889,3.4327,3.4218,3.4466,3.481,3.4957,3.5623,3.6245,3.5701,3.588,3.6038,3.4697,3.4491,3.4959,3.6233,3.5811,3.5262,3.5984,3.6401,3.6749,3.7306,3.732,3.7334,3.7703,3.7757,3.7685,3.7703,3.781,3.7899,3.7899,3.814,3.8645,3.9542,3.9845,4.0382,4.1336,4.1204,4.0929,4.0643,4.096,4.0626,3.9376,4.0103,4.0178,3.9312,4.0412,4.0812,4.0421,4.2098,4.276,4.2443,4.1824,4.224,4.359,4.4251,4.4906,4.5585,4.5918,4.646,4.6898,4.5033,4.4974,4.5972,4.4523,4.4147,4.4378,4.4497,4.3703,4.266,3.2881,3.2816,3.2919,3.3157,3.3122,3.3162,3.3636,3.3713,3.3713,3.3713,3.4063,3.4301,3.4095,3.4249,3.4498,3.5006,3.5453,3.5314,3.4402,3.4607,3.4726,3.4582,3.39,3.4377,3.6109,3.575,3.5138,3.4327,3.4212,3.3788,3.3241,3.3072,3.3058,3.3269,3.3269,3.3171,3.2975,3.3367,3.3143,3.2621,3.2975,3.2875,3.2345,3.2561,3.299,3.3491,3.3339,3.3507,3.384,3.3579,3.3865,3.437,3.4332,3.5249,3.6274,3.6134,3.6691,3.7308,3.6837,3.6773,3.6934,3.7273,3.5264,3.3612,3.5232,3.5568,3.6017,3.7498,3.7399,3.7147,3.7503,3.7739,3.781,3.7703,3.781,3.7899,3.7899,3.814,3.8631,3.948,3.985,4.032,4.1193,4.0615,3.99,3.9145,3.9774,3.9888,3.9193,3.9928,3.9984,3.9203,4.064,4.1045,4.0173,4.1649,4.2118,4.1672,4.1484,4.1815,4.2682,4.4799,4.537,4.4711,4.6079,4.62,4.5453,4.44,4.4353,4.4854,4.3787,4.3273,4.3188,4.3273,4.2554,4.1604,3.3496,3.3731,3.394,3.3558,3.3693,3.3766,3.37,3.3713,3.3713,3.3713,3.3979,3.4074,3.3727,3.377,3.392,3.4326,3.5211,3.5411,3.477,3.476,3.457,3.405,3.3574,3.3592,3.4002,3.3553,3.3251,3.3112,3.2767,3.2554,3.2561,3.2704,3.2846,3.3058,3.3058,3.2863,3.2553,3.2621,3.2277,3.1789,3.2069,3.2077,3.2023,3.2141,3.2236,3.2345,3.2687,3.2929,3.3026,3.341,3.3854,3.4113,3.3839,3.4356,3.5035,3.4961,3.5079,3.5263,3.5149,3.4345,3.3668,3.3903,3.3161,3.3399,3.692,3.7351,3.7023,3.7165,3.6928,3.6816,3.7147,3.7466,3.7667,3.7613,3.7775,3.7899,3.7899,3.814,3.8598,3.9413,3.9754,4.0212,4.0969,4.0988,4.064,3.9937,4.003,3.9771,3.8929,3.9135,3.9353,3.9626,4.0093,4.0467,4.0795,4.1097,4.1603,4.2226,4.2193,4.2551,4.3327,4.4291,4.4564,4.4343,4.507,4.5233,4.4916,4.3996,4.368,4.3751,4.2672,4.22,4.2131,4.2027,4.1683,4.1255,3.2868,3.3208,3.3404,3.2855,3.306,3.3273,3.326,3.3178,3.3096,3.3165,3.3342,3.3506,3.3587,3.3668,3.3898,3.414,3.4887,3.483,3.3873,3.391,3.3715,3.3132,3.2927,3.2823,3.2763,3.2464,3.2431,3.2561,3.2214,3.2082,3.2155,3.2155,3.2064,3.1921,3.1921,3.165,3.1158,3.1364,3.1034,3.0502,3.1291,3.1378,3.111,3.1756,3.2023,3.2096,3.2431,3.2489,3.2461,3.2457,3.2961,3.3478,3.3249,3.3943,3.4722,3.4546,3.4778,3.5212,3.5304,3.4981,3.4621,3.4755,3.466,3.4889,3.6307,3.6389,3.648,3.7359,3.7318,3.7236,3.7576,3.7623,3.7649,3.7631,3.7739,3.7792,3.7792,3.7985,3.843,3.9277,3.9522,3.9838,4.0306,4.039,4.0139,3.9375,3.9338,3.9136,3.8732,3.8725,3.9062,3.9726,4.018,4.0753,4.1423,4.1774,4.2175,4.2576,4.2333,4.2606,4.3323,4.3979,4.3955,4.3475,4.407,4.405,4.3549,4.2946,4.2701,4.2605,4.1859,4.1525,4.1498,4.1453,4.1318,4.1152,3.1876,3.2306,3.2515,3.1863,3.2084,3.2473,3.2619,3.246,3.246,3.2619,3.2698,3.2881,3.3378,3.3684,3.3979,3.422,3.4619,3.4319,3.2952,3.3125,3.2901,3.2209,3.2214,3.2228,3.2182,3.1877,3.195,3.2273,3.1863,3.169,3.1583,3.1375,3.1043,3.053,3.0472,3.014,2.9678,3.0048,2.9827,2.9324,3.0529,3.0615,3.0138,3.1162,3.1653,3.1798,3.1973,3.2058,3.2017,3.1664,3.218,3.2988,3.3004,3.3847,3.4743,3.4468,3.4998,3.5751,3.6023,3.6263,3.6443,3.6598,3.6669,3.634,3.4987,3.4918,3.5652,3.7441,3.7583,3.7495,3.7819,3.7724,3.7559,3.754,3.7613,3.7667,3.7667,3.781,3.8168,3.8887,3.9065,3.9204,3.9319,3.9352,3.9112,3.8501,3.8478,3.8478,3.8523,3.8651,3.9045,3.975,4.0586,4.1338,4.2014,4.2685,4.2899,4.2745,4.2267,4.2377,4.301,4.3568,4.334,4.2548,4.3071,4.2858,4.2205,4.1866,4.1692,4.1692,4.1318,4.1163,4.1163,4.1163,4.1105,4.1,3.1876,3.2306,3.2424,3.1682,3.1992,3.2313,3.2166,3.2313,3.2393,3.2473,3.2619,3.2725,3.2803,3.3434,3.3979,3.422,3.4915,3.4861,3.3829,3.3671,3.3109,3.2017,3.1817,3.1743,3.1963,3.1434,3.1347,3.1703,3.1136,3.0651,3.0348,3.0142,2.9902,2.9764,2.9353,2.918,2.9105,2.9306,2.9171,2.8982,2.9678,2.9917,2.9874,3.0024,3.0134,3.0204,3.0539,3.1075,3.1699,3.2419,3.2872,3.3269,3.3729,3.4149,3.4523,3.4743,3.4979,3.5291,3.5751,3.5573,3.5299,3.5419,3.5217,3.4938,3.4578,3.5283,3.6152,3.6544,3.6356,3.6234,3.6481,3.6864,3.7126,3.7297,3.7466,3.7613,3.7613,3.7793,3.7935,3.8043,3.8096,3.8148,3.8298,3.8298,3.8313,3.834,3.834,3.8271,3.8168,3.8839,3.9479,4.0094,4.0961,4.1773,4.2487,4.2595,4.2609,4.2472,4.2386,4.2404,4.2512,4.258,4.244,4.2145,4.2101,4.1972,4.1823,4.1436,4.1363,4.1426,4.1215,4.1093,4.1093,4.0965,4.0888,4.0745,3.1746,3.1889,3.198,3.172,3.1811,3.1811,3.1487,3.159,3.1667,3.1744,3.1885,3.208,3.2473,3.3289,3.3939,3.4339,3.4227,3.3846,3.3243,3.2907,3.2441,3.1917,3.1683,3.1434,3.1022,3.0647,3.0403,3.008,3.0353,3.0144,2.9339,2.9516,2.9194,2.8459,2.8485,2.8313,2.8076,2.8313,2.8273,2.8103,2.901,2.9249,2.9082,2.9843,3.0185,3.0323,3.0637,3.1096,3.166,3.2454,3.2492,3.2382,3.3325,3.3735,3.3908,3.3747,3.3958,3.4302,3.4727,3.471,3.457,3.4772,3.4693,3.4594,3.4691,3.51,3.5656,3.6169,3.6375,3.6529,3.6644,3.6869,3.7027,3.7105,3.7297,3.7447,3.7447,3.7875,3.8272,3.8347,3.8026,3.7828,3.7985,3.7967,3.802,3.8072,3.8072,3.8054,3.7967,3.8742,3.95,4.0182,4.0935,4.1704,4.245,4.2369,4.2287,4.2181,4.2181,4.2205,4.2228,4.2228,4.2103,4.1952,4.1823,4.1692,4.156,4.13,4.1226,4.1215,4.1029,4.1,4.0982,4.084,4.0745,4.0697]},{"header":{"parameterUnit":"m.s-1","parameterCategory":1,"la1":30.6,"la2":28.766,"lo1":-90.7593,"lo2":-88.6598,"dy":0.0162,"dx":0.0183,"nx":116,"ny":114,"refTime":"2023-03-04T18:00:00:Z","depth":0,"parameterNumber":3,"parameterNumberName":"V-component_of_WINDS"},"data":[0.0,0.0,0.0,0.0,0.0,0.0,0.0,0.0,0.0,0.0,0.0,0.0,0.0,0.0,0.0,0.0,0.0,0.0,0.0,0.0,0.0,0.0,0.0,0.0,0.0,0.0,0.0,0.0,0.0,0.0,0.0,0.0,0.0,0.0,0.0,0.0,0.0,0.0,0.0,0.0,0.0,0.0,0.0,0.0,0.0,0.0,0.0,0.0,0.0,0.0,0.0,0.0,0.0,0.0,0.0,0.0,0.0,0.0,0.0,0.0,0.0,0.0,0.0,0.0,0.0,0.0,0.0,0.0,0.0,0.0,0.0,0.0,0.0,0.0,0.0,0.0,0.0,0.0,0.0,0.0,0.0,0.0,0.0,0.0,0.0,0.0,0.0,0.0,0.0,0.0,0.0,0.0,0.0,0.0,0.0,0.0,0.0,0.0,0.0,0.0,0.0,0.0,0.0,0.0,0.0,0.0,0.0,0.0,0.0,0.0,0.0,0.0,0.0,0.0,0.0,0.0,0.0,0.0,0.0,0.0,0.0,0.0,0.0,0.0,0.0,0.0,0.0,0.0,0.0,0.0,0.0,0.0,0.0,0.0,0.0,0.0,0.0,0.0,0.0,0.0,0.0,0.0,0.0,0.0,0.0,0.0,0.0,0.0,0.0,0.0,0.0,0.0,0.0,0.0,0.0,0.0,0.0,0.0,0.0,0.0,0.0,0.0,0.0,0.0,0.0,0.0,0.0,0.0,0.0,0.0,0.0,0.0,0.0,0.0,0.0,0.0,0.0,0.0,0.0,0.0,0.0,0.0,0.0,0.0,0.0,0.0,0.0,0.0,0.0,0.0,0.0,0.0,0.0,0.0,0.0,0.0,0.0,0.0,0.0,0.0,0.0,0.0,0.0,0.0,0.0,0.0,0.0,0.0,0.0,0.0,0.0,0.0,0.0,0.0,0.0,0.0,0.0,0.0,0.0,0.0,0.0,0.0,0.0,0.0,0.0,0.0,0.0,0.0,0.0,0.0,0.0,0.0,0.0,0.0,0.0,0.0,0.0,0.0,0.0,0.0,0.0,0.0,0.0,0.0,0.0,0.0,0.0,0.0,0.0,0.0,0.0,0.0,0.0,0.0,0.0,0.0,0.0,0.0,0.0,0.0,0.0,0.0,0.0,0.0,0.0,0.0,0.0,0.0,0.0,0.0,0.0,0.0,0.0,0.0,0.0,0.0,0.0,0.0,0.0,0.0,0.0,0.0,0.0,0.0,0.0,0.0,0.0,0.0,0.0,0.0,0.0,0.0,0.0,0.0,0.0,0.0,0.0,0.0,0.0,0.0,0.0,0.0,0.0,0.0,0.0,0.0,0.0,0.0,0.0,0.0,0.0,0.0,0.0,0.0,0.0,0.0,0.0,0.0,0.0,0.0,0.0,0.0,0.0,0.0,0.0,0.0,0.0,0.0,0.0,0.0,0.0,0.0,0.0,0.0,0.0,0.0,0.0,0.0,0.0,0.0,0.0,0.0,0.0,0.0,0.0,0.0,0.0,0.0,0.0,0.0,0.0,0.0,0.0,0.0,0.0,0.0,0.0,0.0,0.0,0.0,0.0,0.0,0.0,0.0,0.0,0.0,0.0,0.0,0.0,0.0,0.0,0.0,0.0,0.0,0.0,0.0,0.0,0.0,0.0,0.0,0.0,0.0,0.0,0.0,0.0,0.0,0.0,0.0,0.0,0.0,0.0,0.0,0.0,0.0,0.0,0.0,0.0,0.0,0.0,0.0,0.0,0.0,0.0,0.0,0.0,0.0,0.0,0.0,0.0,0.0,0.0,0.0,0.0,0.0,0.0,0.0,0.0,0.0,0.0,0.0,0.0,0.0,0.0,0.0,0.0,0.0,0.0,0.0,0.0,0.0,0.0,0.0,0.0,0.0,0.0,0.0,0.0,0.0,0.0,0.0,0.0,0.0,0.0,0.0,0.0,0.0,0.0,0.0,0.0,0.0,0.0,0.0,0.0,0.0,0.0,0.0,0.0,0.0,0.0,0.0,0.0,0.0,0.0,0.0,0.0,0.0,0.0,0.0,0.0,0.0,0.0,0.0,0.0,0.0,0.0,0.0,0.0,0.0,0.0,0.0,0.0,0.0,0.0,0.0,0.0,0.0,0.0,0.0,0.0,0.0,0.0,0.0,0.0,0.0,0.0,0.0,0.0,0.0,0.0,0.0,0.0,0.0,0.0,0.0,0.0,0.0,0.0,0.0,0.0,0.0,0.0,0.0,0.0,0.0,0.0,0.0,0.0,0.0,0.0,0.0,0.0,0.0,0.0,0.0,0.0,0.0,0.0,0.0,0.0,0.0,0.0,0.0,0.0,0.0,0.0,0.0,0.0,0.0,0.0,0.0,0.0,0.0,0.0,0.0,0.0,0.0,0.0,0.0,0.0,0.0,0.0,0.0,0.0,0.0,0.0,0.0,0.0,0.0,0.0,0.0,0.0,0.0,0.0,0.0,0.0,0.0,0.0,0.0,0.0,0.0,0.0,0.0,0.0,0.0,0.0,0.0,0.0,0.0,0.0,0.0,0.0,0.0,0.0,0.0,0.0,0.0,0.0,0.0,0.0,0.0,0.0,0.0,0.0,0.0,0.0,0.0,0.0,0.0,0.0,0.0,0.0,0.0,0.0,0.0,0.0,0.0,0.0,0.0,0.0,0.0,0.0,0.0,0.0,0.0,0.0,0.0,0.0,0.0,0.0,0.0,0.0,0.0,0.0,0.0,0.0,0.0,0.0,0.0,0.0,0.0,0.0,0.0,0.0,0.0,0.0,0.0,0.0,0.0,0.0,0.0,0.0,0.0,0.0,0.0,0.0,0.0,0.0,0.0,0.0,0.0,0.0,0.0,0.0,0.0,0.0,0.0,0.0,0.0,0.0,0.0,0.0,0.0,0.0,0.0,0.0,0.0,0.0,0.0,0.0,0.0,0.0,0.0,0.0,0.0,0.0,0.0,0.0,0.0,0.0,0.0,0.0,0.0,0.0,0.0,0.0,0.0,0.0,0.0,0.0,0.0,0.0,0.0,0.0,0.0,0.0,0.0,0.0,0.0,0.0,0.0,0.0,0.0,0.0,0.0,0.0,0.0,0.0,0.0,0.0,0.0,0.0,0.0,0.0,0.0,0.0,0.0,0.0,0.0,0.0,0.0,0.0,0.0,0.0,0.0,0.0,0.0,0.0,0.0,0.0,0.0,0.0,0.0,0.0,0.0,0.0,0.0,0.0,0.0,0.0,0.0,0.0,0.0,0.0,0.0,0.0,0.0,0.0,0.0,0.0,0.0,0.0,0.0,0.0,0.0,0.0,0.0,0.0,0.0,0.0,0.0,0.0,0.0,0.0,0.0,0.0,0.0,0.0,0.0,0.0,0.0,0.0,0.0,0.0,0.0,0.0,0.0,0.0,0.0,0.0,0.0,0.0,0.0,0.0,0.0,0.0,0.0,0.0,0.0,0.0,0.0,0.0,0.0,0.0,0.0,0.0,0.0,0.0,0.0,0.0,0.0,0.0,0.0,0.0,0.0,0.0,0.0,0.0,0.0,0.0,0.0,0.0,0.0,0.0,0.0,0.0,0.0,0.0,0.0,0.0,0.0,0.0,0.0,0.0,0.0,0.0,0.0,0.0,0.0,0.0,0.0,0.0,0.0,0.0,0.0,0.0,0.0,0.0,0.0,0.0,0.0,0.0,0.0,0.0,0.0,0.0,0.0,0.0,0.0,0.0,0.0,0.0,0.0,0.0,0.0,0.0,0.0,0.0,0.0,0.0,0.0,0.0,0.0,0.0,0.0,0.0,0.0,0.0,0.0,0.0,0.0,0.0,0.0,0.0,0.0,0.0,0.0,0.0,0.0,0.0,0.0,0.0,0.0,0.0,0.0,0.0,0.0,0.0,0.0,0.0,0.0,0.0,0.0,0.0,0.0,0.0,0.0,0.0,0.0,0.0,0.0,0.0,0.0,0.0,0.0,0.0,0.0,0.0,0.0,0.0,0.0,0.0,0.0,0.0,0.0,0.0,0.0,0.0,0.0,0.0,0.0,0.0,0.0,0.0,0.0,0.0,0.0,0.0,0.0,0.0,0.0,0.0,0.0,0.0,0.0,0.0,0.0,0.0,0.0,0.0,0.0,0.0,0.0,0.0,0.0,0.0,0.0,0.0,0.0,0.0,0.0,0.0,0.0,0.0,0.0,0.0,0.0,0.0,0.0,0.0,0.0,0.0,0.0,0.0,0.0,0.0,0.0,0.0,0.0,0.0,0.0,0.0,0.0,0.0,0.0,0.0,0.0,0.0,0.0,0.0,0.0,0.0,0.0,0.0,0.0,0.0,0.0,0.0,0.0,0.0,0.0,0.0,0.0,0.0,0.0,0.0,0.0,0.0,0.0,0.0,0.0,0.0,0.0,0.0,0.0,0.0,0.0,0.0,0.0,0.0,0.0,0.0,0.0,0.0,0.0,0.0,0.0,0.0,0.0,0.0,0.0,0.0,0.0,0.0,0.0,0.0,0.0,0.0,0.0,0.0,0.0,0.0,0.0,0.0,0.0,0.0,0.0,0.0,0.0,0.0,0.0,0.0,0.0,0.0,0.0,0.0,0.0,0.0,0.0,0.0,0.0,0.0,0.0,0.0,0.0,0.0,0.0,0.0,0.0,0.0,0.0,0.0,0.0,0.0,0.0,0.0,0.0,0.0,0.0,0.0,0.0,0.0,0.0,0.0,0.0,0.0,0.0,0.0,0.0,0.0,0.0,0.0,0.0,0.0,0.0,0.0,0.0,0.0,0.0,0.0,0.0,0.0,0.0,0.0,0.0,0.0,0.0,0.0,0.0,0.0,0.0,0.0,0.0,0.0,0.0,0.0,0.0,0.0,0.0,0.0,0.0,0.0,0.0,0.0,0.0,0.0,0.0,0.0,0.0,0.0,0.0,0.0,0.0,0.0,0.0,0.0,0.0,0.0,0.0,0.0,0.0,0.0,0.0,0.0,0.0,0.0,0.0,0.0,0.0,0.0,0.0,0.0,0.0,0.0,0.0,0.0,0.0,0.0,0.0,0.0,0.0,0.0,0.0,0.0,0.0,0.0,0.0,0.0,0.0,0.0,0.0,0.0,0.0,0.0,0.0,0.0,0.0,0.0,0.0,0.0,0.0,0.0,0.0,0.0,0.0,0.0,0.0,0.0,0.0,0.0,0.0,0.0,0.0,0.0,0.0,0.0,0.0,0.0,0.0,0.0,0.0,0.0,0.0,0.0,0.0,0.0,0.0,0.0,0.0,0.0,0.0,0.0,0.0,0.0,0.0,0.0,0.0,0.0,0.0,0.0,0.0,0.0,0.0,0.0,0.0,0.0,0.0,0.0,0.0,0.0,0.0,0.0,0.0,0.0,0.0,0.0,0.0,0.0,0.0,0.0,0.0,0.0,0.0,0.0,0.0,0.0,0.0,0.0,0.0,0.0,0.0,0.0,0.0,0.0,0.0,0.0,0.0,0.0,0.0,0.0,0.0,0.0,0.0,0.0,0.0,0.0,0.0,0.0,0.0,0.0,0.0,0.0,0.0,0.0,0.0,0.0,0.0,0.0,0.0,0.0,0.0,0.0,0.0,0.0,0.0,0.0,0.0,0.0,0.0,0.0,0.0,0.0,0.0,0.0,0.0,0.0,0.0,0.0,0.0,0.0,0.0,0.0,0.0,0.0,0.0,0.0,0.0,0.0,0.0,0.0,0.0,0.0,0.0,0.0,0.0,0.0,0.0,0.0,0.0,0.0,0.0,0.0,0.0,0.0,0.0,0.0,0.0,0.0,0.0,0.0,0.0,0.0,0.0,0.0,0.0,0.0,0.0,0.0,0.0,0.0,0.0,0.0,0.0,0.0,0.0,0.0,0.0,0.0,0.0,0.0,0.0,0.0,0.0,0.0,0.0,0.0,0.0,0.0,0.0,0.0,0.0,0.0,0.0,0.0,0.0,0.0,0.0,0.0,0.0,0.0,0.0,0.0,0.0,0.0,0.0,0.0,0.0,0.0,0.0,0.0,0.0,0.0,0.0,0.0,0.0,0.0,0.0,0.0,0.0,0.0,0.0,0.8871,0.0,0.0,0.0,0.0,0.0,0.0,0.0,0.0,0.0,0.0,0.0,0.0,0.0,0.0,0.0,0.0,0.0,0.0,0.0,0.0,0.0,0.0,0.0,0.0,0.0,0.0,0.0,0.0,0.0,0.0,0.0,0.0,0.0,0.0,0.0,0.0,0.0,0.0,0.0,0.0,0.0,0.0,0.0,0.0,0.0,0.0,0.0,0.0,0.0,0.0,0.0,0.0,0.0,0.0,0.0,0.0,0.0,0.0,0.0,0.0,0.0,0.0,0.0,0.0,0.0,0.0,0.0,0.0,0.0,0.0,0.0,0.0,0.0,0.0,0.0,0.0,0.0,0.0,0.0,0.0,0.0,0.0,0.0,0.0,0.0,0.0,0.0,0.0,0.0,0.0,0.0,0.0,0.0,0.0,0.0,0.0,0.0,0.0,0.0,0.0,0.0,0.0,0.0,0.0,0.0,0.0,0.0,0.0,0.0,0.0,0.0,0.0,0.0,0.0,0.0,0.0,1.0655,0.0,0.0,0.0,0.0,0.0,0.0,0.0,0.0,0.0,0.0,0.0,0.0,0.0,0.0,0.0,0.0,0.0,0.0,0.0,0.0,0.0,0.0,0.0,0.0,0.0,0.0,0.0,0.0,0.0,0.0,0.0,0.0,0.0,0.0,0.0,0.0,0.0,0.0,0.0,0.0,0.0,0.0,0.0,0.0,0.0,0.0,0.0,0.0,0.0,0.0,0.0,0.0,0.0,0.0,0.0,0.0,0.0,0.0,0.0,0.0,0.0,0.0,0.0,0.0,0.0,0.0,0.0,0.0,0.0,0.0,0.0,0.0,0.0,0.0,0.0,0.0,0.0,0.0,0.0,0.0,0.0,0.0,0.0,0.0,0.0,0.0,0.0,0.0,0.0,0.0,0.0,0.0,0.0,0.0,0.0,0.0,0.0,0.0,0.0,0.0,0.0,0.0,0.0,0.0,0.0,0.0,0.0,0.0,1.3091,1.3924,1.4805,1.507,1.5411,1.5542,1.3554,1.3041,1.344,1.2241,0.0,0.0,0.0,0.0,0.0,0.0,0.0,0.0,0.0,0.0,0.0,0.0,0.0,0.0,0.0,0.0,0.0,0.0,0.0,0.0,0.0,0.0,0.0,0.0,0.0,0.0,0.0,0.0,0.0,0.0,0.0,0.0,0.0,0.0,0.0,0.0,0.0,0.0,2.0864,2.1392,2.162,2.146,1.7801,0.0,0.0,0.0,0.0,0.0,0.0,0.0,0.0,0.0,0.0,0.0,0.0,0.0,0.0,0.0,0.0,0.0,0.0,0.0,0.0,0.0,0.0,0.0,0.0,0.0,0.0,0.0,0.0,0.0,0.0,0.0,0.0,0.0,0.0,0.0,0.0,0.0,0.0,0.0,0.0,0.0,0.0,0.0,0.9486,0.9649,0.0,0.0,0.0,0.0,0.0,0.0,0.0,0.0,0.0,0.0,0.0,0.0,0.0,1.203,1.2868,1.3605,1.4315,1.4825,1.5493,1.5825,1.6058,1.6536,1.6893,1.7151,1.6586,0.0,1.4873,1.3287,0.0,0.0,0.0,0.0,0.0,0.0,0.0,0.0,0.0,0.0,0.0,0.0,0.0,0.0,0.0,0.0,0.0,0.0,0.0,0.0,0.0,0.0,0.0,0.0,0.0,0.0,0.0,0.0,0.0,0.0,0.0,0.0,0.0,0.0,0.0,0.0,1.8942,2.1499,2.3381,2.3578,2.3753,2.3829,2.2092,2.037,1.8657,1.7443,0.0,0.0,0.0,0.0,0.0,0.0,0.0,0.0,0.0,0.0,0.0,0.0,0.0,0.0,0.0,0.0,0.0,0.0,0.0,0.0,0.0,0.0,0.0,0.0,0.0,0.0,0.0,0.0,0.0,0.0,0.0,0.0,0.0,0.0,0.0,0.0,0.0,0.0,0.0,0.9875,1.0835,1.1254,1.0954,1.0664,0.0,0.0,0.0,0.0,0.0,0.0,0.0,0.0,0.0,1.238,1.3332,1.4189,1.4959,1.5321,1.5777,1.6348,1.6763,1.6996,1.7204,1.7599,1.7768,1.7981,1.7753,1.7457,1.6879,1.5308,1.4503,1.4186,0.0,0.0,0.0,0.0,1.0708,1.1063,0.0,0.0,0.0,0.0,0.0,0.0,0.0,0.0,0.0,0.0,0.0,0.0,0.0,0.0,0.0,1.0819,0.0,0.0,0.0,0.0,0.0,0.0,0.0,0.0,0.0,0.0,0.0,0.0,2.1984,2.3888,2.5703,2.5649,2.5649,2.569,2.5498,2.3823,2.1117,2.003,1.8802,0.0,0.0,0.0,0.0,0.0,0.0,0.0,0.0,0.0,0.0,0.0,0.0,0.0,0.0,0.0,0.0,0.0,0.0,0.0,0.0,0.0,0.0,0.0,0.0,0.0,0.0,0.0,0.0,0.0,0.0,0.0,0.0,0.0,0.0,0.0,0.0,0.0,0.0,1.1053,1.2079,1.2454,1.2365,1.2246,0.0,0.0,0.0,0.0,0.0,0.0,1.2192,1.3182,1.3987,1.4514,1.5486,1.6216,1.6757,1.6678,1.6852,1.7492,1.7674,1.7845,1.816,1.8454,1.8547,1.8547,1.8547,1.8503,1.8343,1.703,1.6019,1.5327,1.4269,1.3685,1.349,1.2738,1.28,1.3313,0.0,0.0,0.0,0.0,0.0,0.0,0.0,0.0,0.0,0.0,0.0,0.0,0.0,0.0,1.3641,1.4609,1.4778,1.5051,0.0,0.0,0.0,0.0,0.0,0.0,0.0,0.0,0.0,2.3365,2.4957,2.6644,2.8176,2.8019,2.8019,2.8164,2.7477,2.594,2.3782,2.2985,2.1886,2.0511,0.0,0.0,0.0,0.0,0.0,0.0,0.0,0.0,0.0,0.0,0.0,0.0,0.0,0.0,0.0,0.0,0.0,0.0,0.0,0.0,0.0,0.0,0.0,0.0,0.0,0.0,0.0,0.0,0.0,0.0,0.0,0.0,0.0,0.0,0.0,0.0,0.0,0.0,0.0,1.2255,1.33,0.0,0.0,0.0,0.0,1.4007,1.3483,1.386,1.558,1.6067,1.6468,1.6843,1.7465,1.7896,1.8225,1.7944,1.8017,1.8346,1.8346,1.8518,1.8826,1.9124,1.9228,1.9228,1.9228,1.9052,1.8708,1.7826,1.718,1.6872,1.626,1.5763,1.5321,1.5471,1.5383,1.5301,0.0,0.0,0.0,0.0,0.0,0.0,0.0,0.0,0.0,0.0,0.0,0.0,0.0,1.375,1.5736,1.6003,1.7337,1.8082,1.7861,0.0,0.0,0.0,0.0,0.0,0.0,0.0,2.2277,2.4365,2.6218,2.7563,2.8426,2.8182,2.8195,2.8413,2.7981,2.7326,2.6396,2.5174,2.3816,2.2247,2.0761,1.8459,0.0,0.0,0.0,0.0,0.0,0.0,0.0,0.0,0.0,0.0,0.0,0.0,0.0,0.0,0.0,0.0,0.0,0.0,0.0,0.0,0.0,0.0,0.0,0.0,0.0,0.0,0.0,0.0,0.0,0.0,0.0,0.0,0.0,0.0,0.0,0.0,0.0,1.4122,1.4731,0.0,1.5292,1.4695,1.4767,1.5928,1.5509,1.5834,1.7311,1.731,1.7684,1.8334,1.8364,1.8572,1.8907,1.9021,1.9192,1.9515,1.9933,2.0104,2.0008,2.0108,2.0108,1.9894,1.9894,1.9935,2.0022,1.9679,1.8912,1.7858,1.7645,1.733,1.6989,1.6693,1.6458,1.6423,0.0,0.0,0.0,0.0,0.0,0.0,0.0,0.0,0.0,0.0,0.0,1.1725,1.2509,1.5731,1.7934,1.818,1.9624,2.0358,1.9924,0.0,0.0,0.0,0.0,0.0,0.0,2.245,2.4627,2.6321,2.7688,2.8722,2.9325,2.8986,2.8924,2.925,2.8635,2.8312,2.8138,2.7157,2.5744,2.4092,2.2578,2.0487,1.8014,0.0,0.0,0.0,0.0,0.0,0.0,0.0,0.0,0.0,0.0,0.0,0.0,0.0,0.0,0.0,0.0,0.0,0.0,0.0,0.0,0.0,0.0,0.0,0.0,0.0,0.0,0.0,0.0,0.0,0.0,0.0,0.0,0.0,0.0,1.376,1.4981,1.5431,1.611,1.6686,1.6952,1.6895,1.707,1.7786,1.7611,1.7771,1.8769,1.8735,1.8812,1.9262,1.9169,1.932,1.9547,1.9783,1.9956,2.0181,2.0833,2.0992,2.0674,2.0674,2.0565,2.0347,2.0237,2.0347,2.0674,2.0783,2.0257,1.9328,1.8692,1.8195,1.7923,1.6915,1.6658,1.6749,0.0,0.0,0.0,0.0,0.0,0.0,0.0,0.0,0.0,0.0,1.1669,1.4227,1.5395,1.809,2.0232,2.1263,2.1437,2.1605,2.1797,2.036,0.0,0.0,0.0,0.0,2.3886,2.4853,2.6627,2.9351,2.95,3.015,3.1214,3.0509,3.0392,3.0861,2.9517,2.895,2.8925,2.8813,2.7804,2.6158,2.413,2.2551,2.1221,0.0,0.0,0.0,0.0,0.0,0.0,0.0,0.0,0.0,0.0,0.0,0.0,0.0,0.0,0.0,0.0,0.0,0.0,0.0,0.0,0.0,0.0,0.0,0.0,0.0,0.0,0.0,0.0,0.0,0.0,0.0,0.0,0.0,1.3227,1.4919,1.6086,1.6102,1.7511,1.8374,1.7858,1.863,1.9281,1.9646,1.9544,1.9614,1.9957,2.021,2.02,1.9628,1.9933,2.0094,2.0101,2.0242,2.0203,2.021,2.0848,2.1015,2.0704,2.0696,2.0696,2.0704,2.0376,2.0485,2.0813,2.1023,2.1349,2.1464,1.9406,1.8434,1.798,1.6498,1.6072,1.6491,0.0,0.0,0.0,0.0,0.0,0.0,0.0,0.0,0.0,0.0,1.2061,1.4575,1.6196,1.8976,2.1099,2.1976,2.1944,2.1827,2.1605,0.0,0.0,0.0,0.0,0.0,2.5438,2.7222,2.8794,3.0062,3.0548,3.1111,3.187,3.124,3.0982,3.1097,3.0305,2.9986,2.9948,2.9461,2.8979,2.846,2.6819,2.4659,2.2224,0.0,0.0,0.0,0.0,0.0,0.0,0.0,0.0,0.0,0.0,0.0,0.0,0.0,0.0,0.0,0.0,0.0,0.0,0.0,0.0,0.0,0.0,0.0,0.0,0.0,0.0,0.0,0.0,0.0,0.0,0.0,1.3715,1.4965,1.5242,1.6565,1.7564,1.8003,1.9112,1.9762,1.9571,2.0085,2.0526,2.0882,2.0541,2.0572,2.113,2.0643,2.0411,2.057,2.09,2.0864,2.0452,2.1256,2.1439,2.122,2.1209,2.1375,2.1714,2.1256,2.1279,2.1729,2.1609,2.1721,2.2066,2.2178,2.2393,2.2426,2.0986,2.0522,2.049,1.965,1.945,1.9517,0.0,0.0,0.0,0.0,0.0,0.0,0.0,0.0,0.0,0.0,1.3156,1.5568,1.7404,1.9976,2.1868,2.2457,2.2706,2.2562,2.1852,0.0,0.0,0.0,0.0,2.6264,2.7645,2.9094,3.011,3.0672,3.1164,3.1732,3.2354,3.1873,3.1768,3.1867,3.1073,3.0855,3.0944,3.0303,2.9894,2.9704,2.8847,2.6899,2.4418,2.3504,2.2028,2.0354,1.9457,1.8737,1.807,1.7291,0.0,0.0,0.0,0.0,0.0,0.0,0.0,0.0,0.0,0.0,0.0,0.0,0.0,0.0,0.0,0.0,0.0,0.0,0.0,0.0,0.0,0.0,0.0,0.0,1.5378,1.6605,1.7719,1.8302,1.8774,1.9335,2.0172,2.0683,2.0746,2.1208,2.1526,2.1645,2.1514,2.1668,2.2047,2.1651,2.1334,2.1131,2.1683,2.1584,2.0801,2.1698,2.1937,2.1827,2.1757,2.1925,2.2335,2.191,2.1933,2.2343,2.2116,2.2343,2.257,2.257,2.2796,0.0,0.0,0.0,0.0,0.0,2.0189,2.0264,0.0,0.0,0.0,0.0,0.0,0.0,0.0,0.0,0.0,0.0,0.0,1.6666,1.8598,2.0798,2.2261,2.268,2.3276,2.3179,0.0,0.0,0.0,2.4778,2.6118,2.7806,2.987,3.0426,3.0825,3.1169,3.1692,3.2267,3.2881,3.259,3.2662,3.2924,3.1765,3.1468,3.1652,3.1061,3.0522,3.0114,3.0128,2.8925,2.705,2.5868,2.472,2.3649,2.2681,2.1803,2.095,2.0004,0.0,0.0,0.0,0.0,0.0,0.0,0.0,0.0,0.0,0.0,0.0,0.0,0.0,0.0,0.0,0.0,0.0,0.0,0.0,0.0,0.0,0.0,0.0,0.0,1.6861,1.7863,2.0159,1.9988,1.9855,2.0377,2.094,2.1311,2.1448,2.2054,2.2304,2.2124,2.2466,2.2724,2.2849,2.2762,0.0,0.0,0.0,2.2084,2.1121,2.1892,2.2221,2.2102,2.2375,2.2531,2.257,2.2531,2.2539,2.2683,2.2335,2.2343,2.2683,2.2683,2.2796,2.2838,2.1547,2.1091,2.0944,2.0003,1.9817,2.0136,0.0,0.0,0.0,0.0,0.0,0.0,0.0,0.0,0.0,1.174,1.3966,1.6139,1.7993,1.9961,2.1415,2.2039,2.1892,2.1735,0.0,0.0,2.3916,2.6105,2.771,2.9176,3.0504,3.0633,3.1215,3.2359,3.2476,3.3051,3.4058,3.3368,3.3049,3.3114,3.2269,3.1608,3.1276,3.1137,3.0778,3.0355,3.0329,2.9532,2.8292,2.7613,2.6658,2.5537,2.4749,2.4013,2.3297,2.2845,2.207,2.1203,2.0512,1.9432,0.0,0.0,0.0,0.0,0.0,0.0,0.0,0.0,0.0,0.0,0.0,0.0,0.0,0.0,0.0,0.0,0.0,0.0,0.0,1.7401,1.8778,1.9881,2.0512,2.1208,2.1585,2.156,2.1734,2.1905,2.1876,2.2501,2.2895,2.2895,2.3263,2.3502,2.3554,2.3351,2.292,2.2282,2.2855,2.2792,2.1853,2.2815,2.3031,2.2469,0.0,0.0,2.2562,2.2066,2.2313,2.2901,2.2901,2.2901,2.2901,2.2901,2.2901,2.3006,2.2639,2.2584,2.2576,2.2624,2.2442,2.203,0.0,0.0,0.0,0.0,0.0,0.0,0.0,0.0,0.0,0.0,1.4347,1.6089,1.78,1.9419,2.0395,2.0422,2.0181,0.0,0.0,2.3255,2.49,2.7659,2.8951,2.9978,3.0823,3.1122,3.1538,3.2267,3.2855,3.3349,3.3814,3.3731,3.3566,3.3457,3.2739,3.247,3.2418,3.1855,3.1391,3.111,3.0894,3.0215,2.9336,2.8749,2.7974,2.7064,2.6165,2.5448,2.4797,2.419,2.3305,2.2391,2.1934,2.0923,1.9488,0.0,0.0,0.0,0.0,0.0,0.0,0.0,0.0,0.0,0.0,0.0,0.0,0.0,0.0,1.4625,1.5961,0.0,1.7814,1.9253,2.0237,2.0954,2.1635,2.2039,2.2189,2.1898,2.2071,2.224,2.2518,2.2895,2.3014,2.2703,2.3363,2.3568,2.3347,2.3631,2.3411,2.2763,2.3459,2.3337,2.2056,2.2847,2.3135,2.2788,2.2383,2.2391,2.2788,2.2503,2.2631,2.3014,2.3014,2.3014,2.303,2.3205,2.317,2.3071,2.3467,2.3324,2.3014,2.3239,2.3014,2.2765,0.0,0.0,0.0,0.0,0.0,0.0,0.0,0.0,0.0,0.0,0.0,1.5828,1.7174,1.8496,1.9107,0.0,0.0,0.0,0.0,2.3943,2.5691,2.8918,2.9738,3.0398,3.0973,3.1431,3.1784,3.2006,3.3027,3.3522,3.3498,3.3952,3.3979,3.3784,3.3264,3.3251,3.3411,3.2516,3.1924,3.1546,3.1236,3.0648,2.9947,2.9479,2.8812,2.8124,2.7138,2.6249,2.5405,2.4642,2.3625,2.2633,2.2332,2.1545,2.0408,1.8541,1.7952,0.0,0.0,0.0,0.0,0.0,0.0,0.0,0.0,1.4183,1.5042,1.4655,1.5313,1.647,1.8005,1.8593,1.9314,2.0989,2.1373,2.1692,2.2725,2.2743,2.26,2.2296,2.2356,2.2641,2.3057,2.3246,2.3122,2.2711,2.3462,2.3781,2.3253,2.3962,2.4023,2.3263,2.3994,2.378,2.2379,2.2879,2.3127,2.3014,2.2796,2.2796,2.3014,2.3014,2.3014,2.3014,2.3014,2.3014,2.3046,2.3395,2.3315,2.3239,2.3802,2.3713,2.322,2.322,2.3213,2.3107,0.0,0.0,0.0,0.0,0.0,0.0,0.0,0.0,0.0,0.0,0.0,0.0,0.0,0.0,0.0,0.0,0.0,0.0,2.2592,2.3726,2.5769,2.9144,2.9968,3.0545,3.0973,3.1264,3.1866,3.2895,3.3027,3.3634,3.4581,3.4468,3.4243,3.4076,3.3746,3.3308,3.2733,3.2606,3.1833,3.0696,3.0712,3.036,2.9779,2.9524,2.9149,2.8762,2.7631,2.6263,2.4874,2.4294,2.3305,2.2411,2.246,2.225,2.1516,1.8977,1.8847,1.8812,1.5904,1.5476,1.5814,1.577,1.593,1.6249,0.0,1.6866,1.718,1.7166,1.8064,1.9,1.9543,1.9968,2.0615,2.1762,2.2195,2.2591,2.2991,2.3359,2.3583,2.3285,2.3089,2.3023,2.3109,2.3717,2.4002,2.4002,2.447,2.4693,2.4582,2.4727,2.4531,2.4206,2.4359,2.4016,2.3303,2.3672,2.3576,2.3014,2.3247,2.3247,2.3014,2.3014,2.3014,2.3014,2.3014,2.3014,2.3046,2.3395,2.3431,2.3462,2.392,2.3999,2.3935,2.3935,2.3818,2.3575,0.0,0.0,0.0,0.0,0.0,0.0,0.0,0.0,0.0,0.0,0.0,0.0,0.0,0.0,0.0,0.0,0.0,0.0,2.2005,2.3949,2.6311,2.917,3.0441,3.1109,3.1198,3.1527,3.2011,3.25,3.2686,3.3013,3.343,3.3255,3.3273,3.3348,3.3084,3.3051,3.3056,3.2971,3.2349,3.1512,3.1198,3.0746,3.0193,2.9362,2.9189,2.9037,2.7127,2.5961,0.0,0.0,2.2627,2.1968,2.205,2.1525,2.0694,1.9404,1.9044,1.8594,1.6627,1.6345,1.6543,1.6661,1.714,1.7735,1.7977,1.8397,1.8831,1.9003,1.9435,2.0066,2.0796,2.1122,2.158,2.2575,2.2939,2.3235,2.3439,2.3647,2.3646,2.3447,2.3193,2.3203,2.3617,2.3717,2.3668,2.3787,2.4378,2.4608,2.4056,2.4471,2.471,2.4384,2.4376,2.4153,2.348,2.3585,2.3472,2.3014,2.3127,2.3135,2.3014,2.3014,2.3014,2.3014,2.3014,2.2901,2.2835,2.3494,2.3723,2.3653,2.4452,2.4666,2.4619,2.4206,2.4182,2.4237,0.0,0.0,0.0,0.0,0.0,0.0,0.0,0.0,0.0,0.0,0.0,0.0,0.0,0.0,0.0,0.0,0.0,0.0,0.0,2.4082,2.6583,2.8948,3.0672,3.1522,3.1272,3.1757,3.1985,3.2143,3.2488,3.262,3.254,3.254,3.2771,3.3096,3.2823,3.2873,3.3242,3.3013,3.2512,3.1738,3.1336,3.0771,3.0055,2.9239,2.8798,2.8426,2.6542,2.5469,0.0,0.0,2.1574,2.0938,2.0879,2.0288,1.9499,1.9037,1.8376,1.7706,1.7079,1.7145,1.7484,1.7658,1.8562,1.9507,1.9597,2.0014,2.0387,2.0608,2.0754,2.0967,2.1779,2.1905,2.2277,2.3289,2.3474,2.3556,2.3971,2.3845,2.3546,2.3447,2.2987,2.3039,2.4035,2.3653,2.3552,2.372,2.4437,2.4471,2.3863,2.4446,2.471,2.4487,2.4487,2.4264,2.3705,2.3697,2.3472,2.3135,2.3014,2.3014,2.3014,2.3014,2.3014,2.2909,2.2909,2.2851,2.2764,2.3575,2.3984,2.4015,2.4751,2.5111,2.5048,2.4531,2.4507,2.473,0.0,0.0,0.0,0.0,0.0,0.0,0.0,0.0,0.0,0.0,0.0,0.0,0.0,0.0,0.0,0.0,0.0,0.0,0.0,2.3875,2.6544,2.8441,3.0533,3.1522,3.1272,3.1535,3.1841,3.2183,3.2412,3.2704,3.2988,3.2988,3.3159,3.3587,3.3329,3.307,3.2905,3.267,3.1883,3.067,3.0645,2.9967,2.8976,2.8938,2.7934,2.6527,2.5853,0.0,0.0,0.0,2.0153,1.8987,1.8927,1.8742,1.8358,1.7431,1.6698,1.6294,1.7009,1.8015,1.9043,1.9491,2.0727,2.1837,2.1768,2.198,2.2083,2.2103,2.2113,2.2169,2.2178,2.2254,2.2706,2.354,2.3514,2.3539,2.4328,2.3836,2.3329,2.3329,2.2342,2.2331,2.3904,2.3892,2.4048,2.4659,2.4812,2.4812,2.4804,2.4812,2.4821,2.4821,2.4821,2.4599,2.4376,2.4033,2.3809,2.3472,2.3135,2.3014,2.3014,2.3014,2.2909,2.257,2.257,2.2764,2.3099,2.3434,2.4015,2.4603,2.4968,2.5111,2.5103,2.5087,2.5087,2.5087,0.0,0.0,0.0,0.0,0.0,0.0,0.0,0.0,0.0,0.0,0.0,0.0,0.0,0.0,0.0,0.0,1.5159,1.695,0.0,2.2475,2.4641,2.6375,2.8116,2.9078,2.9248,2.994,3.0415,3.0834,3.1316,3.153,3.1485,3.1318,3.1474,3.1791,3.1711,3.1741,3.1909,3.1839,3.1543,3.1072,3.0357,2.9977,2.9633,2.8238,2.7254,2.6408,0.0,0.0,0.0,0.0,1.9361,1.8765,1.8722,1.8171,1.7462,1.6778,1.6858,1.7375,1.8208,1.9013,1.99,2.0948,2.16,2.2128,2.2416,2.2355,2.2298,2.2742,2.2573,2.2408,2.2756,2.283,2.3019,2.3763,2.3824,2.3923,2.4454,2.4134,2.3945,2.4005,2.3321,2.3315,2.4286,2.3283,2.312,2.4393,2.4217,2.4107,2.4107,2.4344,2.4599,2.4821,2.4368,2.4256,2.4376,2.4033,2.3809,2.3472,2.3135,2.3014,2.3014,2.3014,2.2901,2.257,2.257,2.2518,2.2444,2.3224,2.3755,2.4047,2.4759,2.5111,2.5111,2.5111,2.5111,2.5111,0.0,0.0,0.0,0.0,0.0,0.0,0.0,0.0,0.0,0.0,0.0,0.0,0.0,0.0,0.0,0.0,0.0,1.633,1.8672,0.0,2.3005,2.4346,2.5994,2.7013,2.7324,2.8114,2.8572,2.8716,2.9386,2.9645,2.9619,2.9545,2.9794,3.0303,3.0291,3.0416,3.0507,3.0428,3.0361,3.0194,2.9297,2.8959,2.8781,2.7234,2.6103,0.0,0.0,0.0,0.0,0.0,1.8795,1.8175,1.8396,1.7864,1.7184,1.6785,1.7357,1.8301,1.9262,2.0192,2.1225,2.2451,2.292,2.3233,2.3517,2.3248,2.3031,2.3236,2.292,2.266,2.291,2.2872,2.3108,2.3827,2.3909,2.401,2.4454,2.4143,2.399,2.4101,2.3633,2.3617,2.4584,2.3143,2.2888,2.4401,2.4107,2.3855,2.4107,2.4352,2.4599,2.4821,2.4368,2.4256,2.4487,2.4144,2.3809,2.3472,2.3247,2.3127,2.3014,2.3014,2.2901,2.257,2.257,2.2526,2.2567,2.3231,2.3763,2.4055,2.4759,2.5111,2.5111,2.5111,2.5111,2.5111,0.0,0.0,0.0,0.0,0.0,0.0,0.0,0.0,0.0,0.0,0.0,0.0,0.0,0.0,0.0,0.0,0.0,0.0,1.6809,0.0,0.0,2.247,2.4112,2.5122,2.5465,2.6127,2.6375,2.6077,2.688,2.7314,2.7494,2.7646,2.8221,2.9109,2.9035,2.8899,2.8787,2.8662,2.8436,2.8071,2.7582,2.7005,2.6407,2.6033,0.0,0.0,0.0,0.0,1.9342,1.923,1.8333,1.7355,1.7833,1.7854,1.7592,1.7546,1.8078,1.9021,2.0196,2.1486,2.286,2.3928,2.4556,2.4861,2.4861,2.468,2.4299,2.3614,2.3177,2.2829,2.2725,2.2575,2.2833,2.3804,2.3775,2.3909,2.4417,2.3827,2.3489,2.3812,2.3246,2.3329,2.4602,2.3592,2.3469,2.4761,2.4234,2.4073,2.477,2.4812,2.4821,2.4812,2.4487,2.4496,2.4847,2.4306,2.3858,2.3642,2.3513,2.3384,2.3046,2.3022,2.2901,2.257,2.257,2.2772,2.3115,2.3442,2.4015,2.4619,2.4968,2.5111,2.5111,2.5111,2.5111,2.5111,0.0,0.0,0.0,0.0,0.0,0.0,0.0,0.0,0.0,0.0,0.0,0.0,0.0,0.0,0.0,0.0,0.0,0.0,1.6254,0.0,0.0,0.0,0.0,0.0,0.0,0.0,0.0,2.4256,2.5256,2.5677,2.5567,2.5369,2.5598,2.6258,2.6037,2.619,2.6572,2.65,2.6369,2.6189,0.0,2.5499,2.5361,0.0,0.0,0.0,0.0,1.9452,1.7827,1.8428,1.8487,1.8279,1.8319,1.8747,1.9251,1.8889,1.9849,2.1174,2.1655,2.2652,2.3711,2.4303,2.4522,2.4594,2.4444,2.4026,2.3581,2.3133,2.2685,2.228,2.1928,2.2116,2.2486,2.3248,2.34,2.3616,2.4122,2.3935,2.3806,2.407,2.3835,2.4032,2.47,2.3989,2.3855,2.4787,2.436,2.4181,2.4048,2.4531,2.4898,2.5119,2.4359,2.439,2.5232,2.5163,2.5076,2.4961,2.4212,2.3845,2.3723,2.3238,2.2901,2.257,2.257,2.265,2.2767,2.3324,2.3896,2.4248,2.4846,2.5111,2.5111,2.5111,2.5111,2.5111,0.0,0.0,0.0,0.0,0.0,0.0,0.0,0.0,0.0,0.0,0.0,0.0,0.0,0.0,0.0,0.0,0.0,0.0,0.0,0.0,0.0,0.0,0.0,0.0,0.0,0.0,0.0,0.0,0.0,0.0,2.2699,2.2518,2.2862,2.3469,2.3457,2.3697,2.4062,2.4062,0.0,0.0,0.0,0.0,0.0,0.0,0.0,0.0,1.9909,1.8605,1.7304,1.7996,1.8576,1.8995,1.8998,1.9614,2.0422,2.0463,2.1271,2.2213,2.2773,2.3463,2.4127,2.4586,2.4629,2.443,2.4075,2.3743,2.3279,2.2565,2.219,2.1816,2.1471,2.1684,2.215,2.2806,2.3056,2.3386,2.4072,2.3854,2.3741,2.4202,2.4088,2.4012,2.4504,2.4302,2.4141,2.4351,2.4352,2.4324,2.4268,2.4675,2.5,2.5221,2.447,2.4432,2.5133,2.5515,2.5501,2.5217,2.4655,2.413,2.3748,2.3448,2.3022,2.2796,0.0,2.2879,2.2991,2.356,2.4023,2.4369,2.4846,2.5111,2.5111,2.5111,2.5111,2.5111,0.0,0.0,0.0,0.0,0.0,0.0,0.0,0.0,0.0,0.0,0.0,0.0,0.0,0.0,0.0,0.0,0.0,0.0,0.0,0.0,0.0,0.0,0.0,0.0,0.0,0.0,0.0,0.0,0.0,0.0,0.0,0.0,0.0,0.0,0.0,0.0,0.0,0.0,0.0,0.0,0.0,0.0,0.0,0.0,0.0,0.0,1.8327,1.7678,1.7119,1.7606,1.8593,1.9583,1.9854,2.0589,2.1384,2.1964,2.2431,2.2878,2.3679,2.4148,2.4378,2.4766,2.4692,2.4402,2.3854,2.3572,2.2987,2.1814,2.1433,2.1204,2.0936,2.112,2.1532,2.2423,2.2648,2.3084,2.4077,2.3696,2.3639,2.4306,2.3885,2.3721,2.4088,2.437,2.4376,2.4033,2.4285,2.4571,2.4795,2.5128,2.5221,2.5119,2.4744,2.4707,2.5011,2.5622,2.5648,2.4973,2.4922,2.4398,2.3658,2.3497,2.336,2.3014,2.3014,2.322,2.3454,2.3912,2.4261,2.4611,2.4968,2.5111,2.5111,2.5111,2.5111,2.5111,0.0,0.0,0.0,0.0,0.0,0.0,0.0,0.0,0.0,0.0,1.0608,1.1025,0.0,0.0,0.0,0.0,0.0,0.0,0.0,0.0,0.0,0.0,0.0,0.0,1.5844,1.6342,1.6885,1.7455,1.769,0.0,0.0,0.0,0.0,0.0,0.0,0.0,0.0,0.0,0.0,0.0,0.0,0.0,0.0,0.0,0.0,0.0,1.5631,1.5439,1.5708,1.6779,1.8285,1.9827,2.0617,2.1754,2.2709,2.2481,2.3234,2.414,2.3971,2.4472,2.502,2.4925,2.4838,2.4545,2.3763,2.2977,2.2109,2.0828,2.0113,1.9652,1.9382,1.9841,2.0513,2.1373,2.1985,2.2584,2.3467,2.3291,2.3234,2.3782,2.3788,2.373,2.3871,2.437,2.4599,2.4376,2.4744,2.4939,2.4787,2.5348,2.5357,2.4923,2.5337,2.5527,2.536,2.5967,2.6123,2.5716,2.5163,2.4758,2.435,2.3715,2.336,2.3014,2.3014,0.0,2.3231,2.3794,2.4142,2.4248,2.4846,2.5111,2.5111,2.5111,2.5111,2.5111,0.0,0.0,0.0,0.0,0.0,0.0,0.0,0.9398,0.9569,1.0465,1.0649,1.0854,1.1322,1.1511,1.1743,0.0,0.0,0.0,0.0,0.0,0.0,0.0,0.0,0.0,0.0,1.4795,1.5151,1.5434,0.0,1.5377,1.5264,1.4994,1.5176,1.5688,1.577,1.6165,1.6661,0.0,0.0,0.0,0.0,0.0,0.0,0.0,0.0,0.0,0.0,1.4818,1.535,1.6498,1.7725,1.9144,2.0604,2.1665,2.2309,2.2708,2.3325,2.3865,2.399,2.4449,2.4786,2.47,2.4502,2.3956,2.2862,2.2095,2.1248,1.9823,1.934,1.912,1.9004,1.9349,1.9925,2.0869,2.1283,2.1933,2.3303,2.2924,2.2814,2.3571,2.3585,2.3516,2.3762,2.4428,2.4758,2.4653,2.5199,2.5336,2.4812,2.5348,2.5578,2.5247,2.5957,2.6039,2.5369,2.6082,2.6054,2.5396,2.5218,2.4927,2.4403,2.3891,2.3585,2.3255,2.3424,2.3713,2.3957,2.4426,2.4779,2.4873,2.504,2.5111,2.5111,2.5111,2.5111,2.5111,0.0,0.0,0.0,0.0,0.0,0.0,0.0,0.9368,0.9645,1.0786,1.0826,1.0834,1.1157,1.1318,1.1582,0.0,0.0,0.0,0.0,0.0,0.0,0.0,0.0,0.0,0.0,0.0,0.0,1.3819,1.3604,0.0,0.0,0.0,0.0,0.0,1.3982,1.431,1.4657,1.5257,0.0,0.0,0.0,1.5271,0.0,0.0,0.0,0.0,0.0,1.4443,1.5071,1.6049,1.6985,1.804,1.999,2.1104,2.1842,2.2715,2.3145,2.3546,2.4067,2.4358,2.4519,2.4416,2.4042,2.3266,2.1869,2.1154,2.039,1.8934,1.8627,1.8632,1.8667,1.892,1.9416,2.0454,2.0686,2.1327,2.3167,2.2636,2.2434,2.3576,2.3521,2.3434,2.3771,2.4519,2.502,2.4897,2.5396,2.5449,2.5051,2.5357,2.5679,2.5688,2.6194,2.6131,2.5353,2.5874,2.5646,2.4788,2.5023,2.487,2.4264,2.4144,2.385,2.361,2.3975,2.4301,2.4558,2.4922,2.5238,2.5375,2.5202,2.5111,2.5111,2.5111,2.5111,2.5111,0.0,0.0,0.0,0.0,0.0,0.0,0.0,0.9319,0.973,1.0911,1.0953,1.1085,1.1662,1.1704,1.1726,0.0,0.0,0.0,0.0,0.0,0.0,0.0,0.0,0.0,0.0,0.0,0.0,1.3819,1.3604,0.0,0.0,0.0,0.0,0.0,0.0,1.2701,1.2797,1.3252,0.0,0.0,0.0,0.0,0.0,0.0,0.0,0.0,0.0,1.3535,1.4167,1.5042,1.5785,1.6701,1.8409,2.0411,2.2229,2.2493,2.3264,2.4094,2.4176,2.4368,2.4447,2.4043,2.3559,2.2692,2.1084,2.0134,1.9302,1.7889,1.7477,1.7409,1.7604,1.8097,1.8779,1.972,2.0381,2.1345,2.2903,2.2545,2.2492,2.3619,2.3665,2.3733,2.3908,2.4791,2.5247,2.4897,2.5138,2.5375,2.5578,2.534,2.534,2.5679,2.5714,2.5622,2.5171,2.5086,2.477,2.4426,2.4426,2.4298,2.3921,2.4264,2.4223,2.3966,2.4326,2.4309,0.0,2.4803,2.4972,2.4666,2.4984,2.5111,2.5111,2.5111,2.5111,2.5111,0.0,0.0,0.0,0.0,0.0,0.0,0.9717,0.9859,1.0276,1.1393,1.1577,1.168,1.1785,1.155,1.1518,1.1811,0.0,0.0,0.0,0.0,0.0,0.0,0.0,0.0,0.0,0.0,1.2464,1.2528,1.2451,0.0,0.0,0.0,0.0,0.0,0.0,1.1892,1.183,1.2337,0.0,0.0,0.0,0.0,0.0,0.0,0.0,0.0,0.0,0.0,1.386,1.4619,1.5302,1.6067,1.7274,1.8697,2.0236,2.133,2.2419,2.3355,2.371,2.411,2.4436,2.4148,2.3577,2.2629,2.0947,1.99,1.8876,1.7617,1.7116,1.7076,1.7447,1.7815,1.8366,1.9486,1.9834,2.0542,2.2071,2.1953,2.2079,2.3005,2.3517,2.3943,2.4474,2.5261,2.5596,2.5473,2.5578,2.5698,2.6025,2.5692,2.5684,2.6042,2.5812,2.5459,2.5,2.5,2.4795,2.4376,2.4599,2.4709,2.4808,2.4695,2.4783,2.492,2.5136,2.4833,0.0,2.5157,2.5141,2.486,2.509,2.5234,2.5357,2.5111,2.5111,2.5111,0.0,0.0,0.0,0.0,0.0,0.9049,1.0066,1.0151,1.0485,1.1567,1.1752,1.1752,1.1703,1.1316,1.1238,1.1597,1.1485,0.0,0.0,0.0,0.0,0.0,0.0,0.0,0.0,0.0,1.1656,1.1461,1.1568,1.1571,0.0,0.0,1.1023,1.085,0.0,0.0,0.0,0.0,0.0,0.0,0.0,0.0,0.0,0.0,0.0,0.0,0.0,0.0,0.0,0.0,0.0,1.5311,1.6094,1.7039,1.8218,2.012,2.1499,2.2529,2.3097,2.3639,2.3965,2.3691,2.2943,2.1869,2.0342,1.9324,1.8327,1.7235,1.6807,1.6788,1.714,1.7533,1.8087,1.9093,1.9446,2.0024,2.1562,2.1582,2.1827,2.2632,2.3394,2.4088,2.4653,2.5311,2.5771,2.6002,2.5865,2.5865,2.6206,2.6063,2.6104,2.6385,2.5892,2.534,2.4889,2.4898,2.4804,2.4376,2.4599,2.4846,2.5093,2.5091,2.5049,2.5094,2.5586,2.5222,0.0,2.5303,2.5513,2.5108,2.509,2.5357,2.561,2.5357,2.5234,2.5103,0.0,0.0,0.0,0.0,0.0,0.0,1.0066,0.9872,1.0041,1.1362,1.124,1.1126,1.1456,1.1068,1.0895,1.1171,1.0675,0.0,0.0,0.0,0.0,0.0,0.0,0.0,0.0,0.0,1.093,1.093,1.1319,1.1459,1.1394,1.1212,1.0964,1.0677,0.0,0.0,0.0,0.0,0.0,0.0,0.0,0.0,0.0,0.0,0.0,0.0,0.0,0.0,0.0,0.0,0.0,0.0,0.0,1.5735,1.6838,1.8843,2.0603,2.2016,2.2363,2.2735,2.2814,2.2314,2.1204,1.9954,1.8934,1.8048,1.7235,1.6742,1.6473,1.6342,1.6542,1.7126,1.7778,1.8479,1.9151,2.0068,2.1391,2.1703,2.1981,2.2707,2.3668,2.4275,2.4342,2.5051,2.5604,2.6169,2.5935,2.5874,2.5908,2.6264,2.654,2.6722,2.5754,2.5221,2.5221,2.4693,2.4384,2.4376,2.4376,2.4384,2.4393,2.5093,2.4906,2.4138,2.5805,2.5434,0.0,2.5408,2.5748,2.5108,2.509,2.5357,2.561,2.561,2.5357,2.5111,0.0,0.0,0.0,0.0,0.0,0.0,0.0,0.9923,1.0247,1.157,1.1115,1.0787,1.1115,1.0365,0.9892,0.9955,1.0089,0.0,0.0,0.0,0.0,0.0,0.0,0.0,0.0,0.0,1.0884,1.0826,1.1209,1.1421,1.1384,1.1088,1.0878,1.0677,1.0457,1.0273,0.0,0.0,0.0,0.0,0.0,0.0,0.0,0.0,0.0,0.0,0.0,0.0,0.0,0.0,0.0,0.0,0.0,0.0,0.0,1.6688,1.876,2.0905,2.1159,2.153,2.1676,2.1223,2.0434,1.9495,1.8334,1.7609,1.7016,1.6342,1.6147,1.616,1.6358,1.6989,1.7693,1.8302,1.9067,1.9889,2.0676,2.1279,2.1907,2.2394,2.3981,2.5267,2.576,2.6231,2.637,2.5967,2.6663,2.6936,2.6619,2.6628,2.6566,2.6214,2.5604,2.5173,2.4923,2.471,2.471,2.471,2.4966,2.5085,2.5102,2.5848,2.6014,2.5688,2.6303,2.5683,2.4346,2.5303,2.5246,2.4404,2.4873,2.5357,2.561,2.5357,2.5234,2.5111,0.0,0.0,0.0,0.0,0.0,0.0,0.0,0.9683,0.9852,1.0844,1.0495,1.0192,1.0387,0.9741,0.9308,0.9368,0.9386,0.0,0.0,0.0,0.0,0.0,0.0,0.0,0.9655,1.0047,1.0354,1.0529,1.0949,1.1211,1.1384,1.105,1.084,1.0677,1.0457,1.0235,0.0,0.0,0.0,0.0,0.0,0.0,1.0007,0.0,0.0,0.0,0.0,0.0,0.0,0.0,0.0,0.0,0.0,0.0,0.0,0.0,1.7024,1.8892,1.969,2.0093,2.0263,1.9975,1.9235,1.8289,1.7615,1.6853,1.6167,1.5914,1.5824,1.5804,1.6131,1.6843,1.7573,1.8031,1.8935,1.9732,2.0348,2.1327,2.2425,2.3445,2.4343,2.5423,2.67,2.6767,2.6749,2.6519,2.7128,2.7341,2.6873,2.6893,2.6558,2.6082,2.5578,2.5147,2.4915,2.4812,2.4821,2.4821,2.5198,2.5369,2.5395,2.6148,2.6287,2.5957,2.6593,2.5911,0.0,2.5545,2.5496,2.4658,2.5132,2.548,2.5725,2.5357,2.5234,2.5111,0.0,0.0,0.0,0.0,0.0,0.0,0.0,0.9204,0.9108,0.9496,0.9459,0.9376,0.9368,0.9154,0.9083,0.9174,0.0,0.0,0.0,0.0,0.0,0.0,0.0,0.0,0.8589,0.9001,0.9507,1.007,1.0502,1.0952,1.1384,1.105,1.084,1.0677,1.0428,1.0166,0.0,0.0,0.0,0.0,0.0,0.0,0.0,0.0,0.0,0.0,0.0,0.0,0.0,0.0,0.0,0.0,0.0,0.0,0.0,0.0,0.0,0.0,0.0,1.8428,1.8598,1.8598,1.7588,1.66,1.6711,1.5838,0.0,1.5566,1.541,1.5437,1.5965,1.6706,1.7342,1.7692,1.8707,1.9756,2.0408,2.1646,2.3332,2.5392,2.4815,2.5072,2.7107,2.6792,2.6644,2.7319,2.7297,2.7083,2.6731,2.6715,2.6636,2.6264,2.5532,2.5221,2.5221,2.4915,2.4821,2.483,2.5223,2.5508,2.5508,2.6291,2.6084,0.0,2.6482,2.6022,2.4378,2.5882,2.6206,2.5563,2.5578,2.5839,2.6075,2.5725,2.5357,2.5111,0.0,0.0,0.0,0.0,0.0,0.0,0.0,0.0,0.0,0.0,0.904,0.8624,0.89,0.8589,0.8313,0.0,0.0,0.0,0.0,0.0,0.0,0.0,0.0,0.0,0.8449,0.9077,0.9495,0.9642,1.0551,1.1041,1.1164,1.1002,1.084,1.0677,1.0428,1.0127,0.0,0.0,0.0,0.0,0.0,0.0,0.0,0.0,0.0,0.0,0.9781,1.0126,0.0,0.0,0.0,0.0,0.0,0.0,0.0,0.0,1.4629,0.0,1.5512,0.0,1.6664,1.6385,1.5881,1.5507,0.0,1.5331,1.537,1.5283,1.5453,1.5709,1.6003,1.6667,1.7268,1.7384,1.8591,1.9698,1.9987,2.1705,2.3425,2.4861,2.516,2.5806,2.6875,2.7049,2.7243,2.7304,2.7464,2.7251,2.6403,2.6465,2.622,2.5838,2.5622,2.5459,2.5221,2.4915,2.4821,2.483,2.5708,2.5986,2.5865,2.7038,2.7428,2.695,2.6661,2.6406,2.5889,2.5844,2.5749,2.5588,2.5822,2.5839,2.5725,2.561,2.5357,2.5111,0.0,0.0,0.0,0.0,0.0,0.0,0.0,0.0,0.0,0.0,0.0,0.828,0.8469,0.8284,0.0,0.0,0.0,0.0,0.0,0.0,0.0,0.0,0.0,0.8091,0.8308,0.8901,0.9303,0.9509,1.0374,1.0824,1.0916,1.084,1.0725,1.0572,1.0312,1.0049,0.0,0.0,0.0,0.0,0.9056,0.0,0.0,0.0,0.0,0.0,0.9048,0.9436,0.0,1.0442,1.1029,1.1609,0.0,0.0,0.0,0.0,1.3795,0.0,1.4236,1.4937,1.563,1.5504,1.5207,1.4989,1.5106,1.4992,1.4898,1.505,1.5323,1.5632,1.6105,1.6727,1.7294,1.7743,1.9005,2.035,2.1808,2.3211,2.436,2.5436,2.5789,2.6098,2.6636,2.7077,2.7271,2.7289,2.7493,2.729,2.646,2.6331,2.6313,2.6406,2.6286,2.5976,2.5569,2.5523,2.5508,2.5628,2.6514,2.6777,2.661,2.7529,2.7904,2.7692,2.6915,2.6704,2.7097,2.633,2.6244,2.6662,2.672,2.6562,2.6214,2.597,2.5602,2.5357,0.0,0.0,0.0,0.0,0.0,0.0,0.0,0.0,0.0,0.0,0.0,0.0,0.0,0.0,0.0,0.0,0.0,0.0,0.0,0.0,0.0,0.0,0.7947,0.7996,0.829,0.8643,0.9097,0.9579,1.0182,1.0594,1.0866,1.0928,1.0811,1.0518,1.0264,1.001,0.0,0.0,0.9475,0.9177,0.9056,0.0,0.0,0.0,0.0,0.0,0.0,0.0,0.0,0.9674,1.0375,1.1137,1.1452,0.0,0.0,0.0,0.0,0.0,1.3545,1.4307,1.5027,1.5201,1.4959,1.4759,1.5221,1.4751,1.4409,1.5041,1.528,1.56,1.6302,1.7006,1.7613,1.8247,1.9534,2.1435,2.4119,2.4895,2.5418,2.6263,2.63,2.6336,2.6654,2.7086,2.7399,2.7545,2.7563,2.7371,2.6765,2.6427,2.6618,2.7251,2.7149,2.6873,2.6527,2.652,2.6569,2.6803,2.7427,2.766,2.7678,2.8072,2.8224,2.8024,0.0,0.0,2.7816,2.6889,2.7103,2.794,2.7624,2.7409,2.7073,2.6562,2.6083,2.5602,0.0,0.0,0.0,0.0,0.0,0.0,0.0,0.0,0.0,0.0,0.0,0.0,0.0,0.0,0.0,0.0,0.0,0.0,0.0,0.0,0.0,0.7764,0.7754,0.8039,0.8685,0.8602,0.9046,0.9996,1.0557,1.11,1.1638,1.2109,1.1882,1.1065,1.0558,1.0127,0.9723,0.9603,0.9395,0.9177,0.8992,0.0,0.0,0.0,0.0,0.0,0.0,0.0,0.0,0.9674,1.0166,1.0701,1.1112,0.0,0.0,0.0,0.0,0.0,1.3003,1.3539,1.4049,1.4196,1.4293,1.4495,1.5006,1.5015,1.5059,1.5504,1.5957,1.6302,1.6514,1.7614,1.8479,1.836,2.0289,2.2285,2.3815,2.4948,2.5614,2.5326,2.6235,2.6989,2.7305,2.7587,2.7975,2.8272,2.7796,2.7422,2.7483,2.716,2.7242,2.7664,2.7891,2.8089,2.8249,2.7863,2.7446,2.7332,2.8265,2.8486,2.8253,2.9146,2.9254,2.8667,0.0,2.7319,2.7382,2.6733,2.6819,2.7567,2.7767,2.7547,2.7073,2.7289,2.6796,2.6075,0.0,0.0,0.0,0.0,0.0,0.0,0.0,0.0,0.0,0.0,0.0,0.0,0.0,0.0,0.0,0.0,0.0,0.0,0.0,0.0,0.7989,0.8269,0.8168,0.8236,0.8579,0.9349,0.9914,1.0328,1.1321,1.1819,1.1818,1.1613,1.1246,1.0755,1.0194,0.9791,0.9457,0.9386,0.9226,0.9033,0.0,0.0,0.0,0.0,0.0,0.0,0.0,0.0,0.0,0.0,0.9818,1.0288,1.0548,0.0,0.0,0.0,0.0,0.0,1.2537,1.3018,1.3427,1.4127,1.4483,1.4824,1.5559,1.5695,1.5806,1.626,1.666,1.724,1.7991,1.8434,1.9082,2.0305,2.23,2.4119,2.5423,2.6144,2.6559,2.6332,2.7182,2.7678,2.7441,2.7739,2.8167,2.8478,2.8096,2.7833,2.8015,2.7809,2.8117,2.8651,2.8445,2.8766,2.993,2.9022,2.8559,2.867,2.9207,2.9404,2.9287,2.9719,2.946,2.8797,0.0,2.7422,2.7528,2.6733,2.6875,2.7633,2.803,2.7946,2.7498,2.7572,2.7039,2.6319,0.0,0.0,0.0,0.0,0.0,0.0,0.0,0.0,0.0,0.0,0.0,0.0,0.0,0.0,0.0,0.0,0.0,0.0,0.0,0.8052,0.8226,0.8798,0.8711,0.8775,0.9084,1.0087,1.0797,1.1186,1.2289,1.2698,1.2487,1.149,1.0889,1.0596,0.9901,0.9432,0.9195,0.9142,0.8984,0.879,0.0,0.0,0.0,0.0,0.0,0.0,0.0,0.0,0.0,0.0,0.0,0.0,0.0,0.0,0.0,1.1027,1.1202,1.1406,1.215,1.2707,1.3222,1.4336,1.4731,1.5137,1.6183,1.6392,1.6569,1.7031,1.7505,1.8052,1.9146,1.9318,2.0063,2.2565,2.423,2.5586,2.6734,2.7425,2.7747,2.7625,2.8305,2.8629,2.818,2.8449,2.8752,2.8953,2.8752,2.8713,2.8899,2.8814,2.9127,2.9786,2.925,2.946,3.0723,2.9831,2.9553,2.9776,2.9977,2.984,2.9754,2.9849,2.938,2.8642,2.7746,2.7459,2.7471,2.6794,2.6893,2.755,2.797,2.801,2.7696,2.7489,2.7099,2.6687,0.0,0.0,0.0,0.0,0.0,0.0,0.0,0.0,0.0,0.0,0.0,0.0,0.0,0.0,0.0,0.0,0.0,0.0,0.0,0.8169,0.8335,0.888,0.9178,0.9874,1.1079,1.0396,1.1106,1.3258,1.3377,1.385,1.4655,1.3114,1.1959,1.1206,1.0085,0.9355,0.8927,0.8918,0.8781,0.8521,0.8291,0.0,0.0,0.0,0.0,0.0,0.0,0.0,0.0,0.0,0.0,0.0,0.0,0.0,0.9893,0.0,1.0901,1.1429,1.1916,1.2757,1.371,1.4504,1.479,1.5233,1.6457,1.7054,1.7451,1.7714,1.8172,1.8717,1.8984,2.0041,2.1699,2.4173,2.5128,2.5904,2.6655,2.8074,2.8817,2.8481,2.9233,2.9848,3.0229,3.0299,3.0319,3.0309,3.0309,3.0398,3.0507,3.0527,3.062,3.083,3.0694,3.0615,3.0244,3.0185,3.0062,2.9767,3.0015,2.9812,2.9115,2.9632,2.9249,2.8142,2.7762,2.7216,2.6701,2.7031,2.6955,2.6785,2.72,2.7362,2.7292,2.7094,2.6898,2.6875,0.0,0.0,0.0,0.0,0.0,0.0,0.0,0.0,0.0,0.0,0.0,0.0,0.0,0.0,0.0,0.0,0.0,0.0,0.0,0.8301,0.8471,0.9013,0.9274,1.0016,1.133,1.1517,1.2362,1.3882,1.3882,1.39,1.3873,1.2246,1.1341,1.1067,0.9957,0.9366,0.9154,0.8973,0.8708,0.8455,0.8373,0.834,0.0,0.0,0.0,0.0,0.0,0.0,0.0,0.0,0.8659,0.9104,0.0,0.0,0.0,0.0,1.0812,1.1209,1.1508,1.2158,1.3076,1.4226,1.496,1.5584,1.6462,1.7512,1.8442,1.9068,1.9618,2.0333,2.1006,2.2246,2.3708,2.5567,2.6367,2.7143,2.8131,2.8943,2.9397,2.8955,2.9889,3.058,3.0295,3.0651,3.0872,3.0872,3.077,3.0631,3.0856,3.06,3.0407,3.0449,2.9734,2.9502,2.9805,2.9167,2.892,2.9191,2.9678,2.9726,2.9356,2.9408,2.8933,2.8056,2.7706,2.7261,2.66,2.6747,2.6701,2.6728,2.713,2.7441,2.7564,2.7249,2.6982,2.6876,0.0,0.0,0.0,0.0,0.0,0.0,0.0,0.0,0.0,0.0,0.0,0.0,0.0,0.0,0.0,0.0,0.0,0.0,0.8499,0.8432,0.868,0.9297,0.9519,1.0262,1.1583,1.2405,1.3357,1.4508,1.4803,1.4536,1.3734,1.2135,1.126,1.1064,1.0161,0.9649,0.9457,0.938,0.9045,0.8488,0.8414,0.8373,0.0,0.0,0.0,0.0,0.0,0.0,0.0,0.0,0.8357,0.0,0.0,0.0,0.0,0.0,0.0,1.1233,1.1306,1.1988,1.2877,1.4073,1.5054,1.5879,1.6836,1.8204,1.9524,2.0165,2.0843,2.1611,2.2679,2.3855,2.5104,2.6478,2.7331,2.8111,2.9212,2.9591,2.9799,2.9662,3.0579,3.1065,3.0806,3.1228,3.1562,3.1448,3.1345,3.1082,3.0905,3.0496,3.026,3.0,2.922,2.8998,2.9365,2.8561,2.8348,2.8721,2.8804,2.906,2.917,2.8872,2.8477,2.7858,2.7409,2.704,2.6591,2.6591,2.6582,2.6509,2.668,2.6924,2.706,2.6855,2.6592,2.639,0.0,0.0,0.0,0.0,0.0,0.0,0.0,0.0,0.0,0.0,0.0,0.0,0.0,0.0,0.0,0.0,0.0,0.0,0.8499,0.8572,0.8966,0.9755,1.0048,1.0794,1.2059,1.2866,1.396,1.5304,1.6272,1.6095,1.4732,1.3144,1.198,1.1267,1.0724,1.0225,0.9811,1.0223,0.9739,0.8675,0.8496,0.834,0.8175,0.0,0.0,0.0,0.0,0.0,0.0,0.0,0.7579,0.0,0.0,0.0,0.0,1.0213,1.1124,1.1752,1.147,1.2334,1.3497,1.426,1.5125,1.6246,1.7768,1.938,2.0699,2.0866,2.1532,2.2475,2.3414,2.4382,2.5553,2.7029,2.7986,2.876,2.9665,2.9966,3.0219,3.0778,3.1241,3.1557,3.1992,3.2447,3.2602,3.2363,3.2238,3.1825,3.071,3.068,3.0359,2.958,2.956,2.9346,2.8916,2.8916,2.8701,2.8291,2.7647,2.7755,2.831,2.8186,2.7829,2.7323,2.68,2.6591,2.6591,2.6591,2.6364,2.6053,2.5889,2.5801,2.5732,2.5786,2.556,2.5282,0.0,0.0,0.0,0.0,0.0,0.0,0.0,0.0,0.0,0.0,0.0,0.0,0.0,0.0,0.0,0.0,0.0,0.0,0.8572,0.8555,0.8767,0.9276,0.9852,1.0386,1.0951,1.2501,1.3656,1.4395,1.4933,1.4451,1.301,1.1744,1.1036,1.0891,1.0975,1.0437,0.9466,1.0027,0.9674,0.87,0.8846,0.8756,0.8553,0.0,0.0,0.0,0.0,0.0,0.0,0.0,0.0,0.0,0.0,0.0,0.0,1.047,1.0955,1.1518,1.1815,1.2456,1.3437,1.507,1.6336,1.7672,1.9261,2.0393,2.1358,2.2522,2.328,2.3978,2.4586,2.5312,2.6287,2.7969,2.8492,2.9074,2.9792,3.025,3.046,3.0292,3.0977,3.1433,3.1567,3.1692,3.1676,3.1521,3.1146,3.069,3.0,2.9594,2.9358,2.9111,2.8828,2.8613,2.8476,2.8476,2.8418,2.8291,2.8077,2.8077,2.8301,2.7663,2.7328,2.7431,2.6999,2.6791,2.6591,2.6591,2.6582,2.6373,2.6152,2.6006,2.5916,2.5582,2.5325,2.5238,0.0,0.0,0.0,0.0,0.0,0.0,0.0,0.0,0.0,0.0,0.8712,0.8712,0.0,0.0,0.0,0.0,0.0,0.0,0.0,0.8544,0.8789,0.9319,0.9917,1.0609,1.1458,1.2715,1.3392,1.3421,1.4049,1.365,1.2289,1.1638,1.1277,1.1216,1.1672,1.1276,1.0257,1.0709,1.0192,0.9016,0.9131,0.9006,0.87,0.0,0.0,0.0,0.0,0.0,0.0,0.0,0.0,0.0,0.8727,0.9604,1.0394,1.028,1.0955,1.1866,1.2213,1.2805,1.3794,1.5888,1.7156,1.8542,2.0967,2.1845,2.2505,2.3827,2.4464,2.5058,2.5849,2.6445,2.7225,2.8631,2.9167,2.9528,3.0201,3.0356,3.0377,3.0284,3.076,3.1102,3.1102,3.1267,3.1254,3.1055,3.0732,3.0178,2.9557,2.9182,2.8848,2.8672,2.8428,2.8291,2.8291,2.8291,2.8291,2.8291,2.8077,2.8077,2.8291,2.7638,2.7422,2.7431,2.6999,2.6791,2.6591,2.6591,2.6591,2.6591,2.6136,2.5907,2.5907,2.5238,2.5017,2.5026,0.0,0.0,0.0,0.0,0.0,0.0,0.0,0.0,0.0,0.0,0.8861,0.8889,0.0,0.0,0.0,0.0,0.0,0.0,0.0,0.8533,0.8947,0.9677,1.0256,1.1297,1.2907,1.3197,1.3037,1.2457,1.3516,1.3398,1.2184,1.2318,1.2234,1.1961,1.2662,1.2467,1.1596,1.1847,1.1003,0.9478,0.9364,0.9073,0.8724,0.8594,0.0,0.0,0.0,0.0,0.0,0.0,0.0,0.0,0.8773,0.93,0.9749,0.982,1.1016,1.2411,1.268,1.3252,1.4404,1.6741,1.7775,1.9198,2.2742,2.3642,2.3987,2.4723,2.5128,2.5726,2.7107,2.7686,2.8317,2.9166,2.9694,3.0139,3.0563,3.0263,3.0149,3.0574,3.0626,3.0636,3.0677,3.1029,3.1148,3.0829,3.0589,3.0068,2.9352,2.9095,2.8691,2.8301,2.8291,2.8291,2.8184,2.8291,2.8291,2.8184,2.7647,2.7755,2.8291,2.796,2.7638,2.7323,2.68,2.6591,2.6591,2.6591,2.6591,2.6591,2.5907,2.5688,2.5578,2.5034,2.4812,2.4821,0.0,0.0,0.0,0.0,0.0,0.0,0.0,0.0,0.0,0.0,0.0,0.0,0.0,0.0,0.0,0.0,0.0,0.0,0.0,0.8499,0.8947,0.9907,1.0953,1.1869,1.2602,1.2304,1.208,1.1942,1.2685,1.247,1.1344,1.1479,1.183,1.2318,1.2696,1.2357,1.162,1.1606,1.0719,0.9346,0.9541,0.9323,0.8928,0.8971,0.8696,0.0,0.0,0.0,0.0,0.0,0.0,0.0,0.9328,0.9953,1.0498,1.0363,1.074,1.1433,1.2684,1.3562,1.4782,1.7499,2.0068,2.2169,2.3692,2.4726,2.5339,2.5201,2.589,2.6666,2.7231,2.8105,2.8859,2.927,2.9694,3.0036,3.0129,3.0056,3.0036,3.0129,3.0149,3.0284,3.0646,3.045,3.0323,3.0329,3.0033,2.949,2.8876,2.8759,2.8613,2.8291,2.8291,2.8077,2.7647,2.8077,2.8077,2.7647,2.7755,2.7853,2.796,2.7638,2.7431,2.7323,2.68,2.6591,2.6591,2.6591,2.6591,2.6591,2.6136,2.5907,2.5679,2.5238,2.5026,2.4821,0.0,0.0,0.0,0.0,0.0,0.0,0.0,0.0,0.0,0.0,0.0,0.0,0.0,0.0,0.0,0.0,0.0,0.0,0.0,0.0,0.8977,1.0102,1.1329,1.2102,1.2294,1.2066,1.1847,1.1664,1.1875,1.2063,1.2256,1.237,1.2829,1.3608,1.3687,1.3037,1.176,1.1572,1.0851,0.9826,0.9927,0.9756,0.9407,0.9535,0.9234,0.8717,0.8691,0.0,0.0,0.0,0.0,0.0,0.0,0.0,1.0377,1.0148,1.0678,1.1589,1.2534,1.3938,1.5939,1.9242,2.1265,2.2737,2.3999,2.4927,2.5573,2.5747,2.6658,2.7534,2.8162,2.8714,2.9168,2.9601,2.9839,2.9994,2.9994,2.9994,2.9994,2.9994,2.9994,3.0087,3.0336,3.0139,2.9982,3.0103,2.9792,2.9343,2.893,2.8727,2.8621,2.8291,2.8291,2.8184,2.7862,2.8184,2.8184,2.7862,2.7853,2.7853,2.7638,2.7314,2.7215,2.7215,2.68,2.6591,2.6591,2.6591,2.6473,2.6354,2.6017,2.5679,2.5459,2.5128,2.4923,2.471,0.0,0.0,0.0,0.0,0.0,0.0,0.0,0.0,0.0,0.0,0.0,0.0,0.0,0.0,0.0,0.0,0.0,0.0,0.0,0.0,0.0,1.0295,1.1457,1.2047,1.2022,1.1951,1.1759,1.1395,1.1169,1.2059,1.3912,1.3716,1.4183,1.5245,1.5092,1.4105,1.2474,1.2049,1.1364,1.0522,1.0456,1.0234,0.9917,1.0062,0.9737,0.9196,0.9424,0.9375,0.919,0.9335,0.0,0.0,0.0,0.0,1.0051,0.9829,1.0724,1.1922,1.2342,1.4512,1.7506,2.1009,2.2175,2.293,2.4266,2.5088,2.5817,2.6633,2.7488,2.8297,2.9145,2.9373,2.9549,2.9932,2.9994,2.9994,2.9994,2.9994,3.0099,2.9994,2.9994,3.0099,2.9994,2.9994,2.9889,2.9889,2.9669,2.9343,2.9026,2.8834,2.8621,2.8291,2.8291,2.8291,2.8184,2.8291,2.8184,2.8077,2.7853,2.753,2.7215,2.6999,2.6989,2.6989,2.6691,2.6591,2.6591,2.6582,2.6354,2.6127,2.5798,2.5459,2.5221,2.4915,2.4812,2.4599,0.0,0.0,0.0,0.0,0.0,0.0,0.0,0.0,0.0,0.0,0.8673,0.8673,0.0,0.0,0.0,0.0,0.0,0.0,0.0,0.0,0.0,1.0539,1.1224,1.1651,1.1731,1.1411,1.1134,1.0878,1.0677,1.2262,1.5473,1.4313,1.4766,1.6527,1.6203,1.5494,1.4489,1.38,1.2538,1.1004,1.1004,1.0774,1.0383,1.0219,0.987,0.9468,0.9616,0.9538,0.9407,0.9771,1.0095,0.0,0.0,0.0,1.0419,1.0411,1.0732,1.129,1.2105,1.5414,1.9249,2.1828,2.3826,2.5138,2.533,2.6187,2.7228,2.7839,2.8274,2.868,2.9208,2.9632,2.9922,2.9984,2.9994,2.9994,2.9994,3.0193,3.0297,2.9994,3.0193,3.0297,2.9994,2.9774,2.9659,2.9659,2.9343,2.9036,2.8727,2.8737,2.8621,2.8291,2.8291,2.8077,2.7539,2.8077,2.796,2.7206,2.7098,2.6999,2.6691,2.6691,2.6791,2.6989,2.6691,2.6591,2.6591,2.6245,2.6127,2.6127,2.5798,2.5459,2.5221,2.5119,2.4795,2.4376,0.0,0.0,0.0,0.0,0.0,0.0,0.0,0.0,0.0,0.0,0.0,0.9131,0.0,0.0,0.0,0.0,0.0,0.0,0.0,0.0,0.0,1.0295,1.0989,1.1376,1.1354,1.1467,1.1255,1.0686,1.0895,1.2485,1.5299,1.5435,1.6633,1.8695,1.8253,1.712,1.5522,1.5155,1.3854,1.1988,1.2423,1.2008,1.1168,1.117,1.0784,1.0392,1.1138,1.1071,1.0677,1.1173,1.1141,1.082,1.0565,0.0,0.0,0.0,1.0767,1.1599,1.384,1.6,1.8391,2.1627,2.3238,2.4297,2.4967,2.5847,2.6809,2.7773,2.8307,2.8835,2.9559,2.986,2.9994,2.9994,2.9994,2.9994,2.9994,3.0088,3.0088,2.9994,3.0088,3.0088,2.9994,2.9774,2.9554,2.9554,2.9237,2.9036,2.8727,2.8737,2.8621,2.8291,2.8291,2.8184,2.7862,2.8184,2.797,2.7206,2.7098,2.689,2.6591,2.6591,2.6691,2.6791,2.6691,2.6473,2.6354,2.6127,2.5898,2.556,2.545,2.5238,2.4915,2.4804,2.459,2.4264,0.0,0.0,0.0,0.0,0.0,0.0,0.0,0.0,0.0,0.0,0.0,0.0,0.0,0.0,0.0,0.0,0.0,0.0,0.0,0.0,0.0,0.0,1.0957,1.1229,1.1137,1.1451,1.1309,1.0605,1.1147,1.2626,1.5017,1.6455,1.824,2.0335,2.0162,1.88,1.6664,1.6725,1.5367,1.325,1.4238,1.371,1.2454,1.307,1.2538,1.1688,1.3141,1.2908,1.1998,1.2465,1.2169,1.1498,1.0853,1.0718,0.0,0.0,0.0,1.1995,1.4988,1.6175,1.7458,2.0695,2.2148,2.3106,2.4335,2.5328,2.6249,2.7491,2.8235,2.8856,2.9673,2.9911,2.9994,2.9994,2.9994,2.9994,2.9994,3.0099,3.0099,2.9994,3.0099,3.0088,2.9994,2.9774,2.9554,2.9448,2.9132,2.893,2.8621,2.8621,2.8514,2.8291,2.8291,2.8291,2.8291,2.8184,2.7862,2.7431,2.7107,2.6791,2.6591,2.6591,2.6582,2.6473,2.6473,2.6354,2.6127,2.5898,2.556,2.5221,2.5119,2.4915,2.4599,2.4487,2.4153,2.3809,0.0,0.0,0.0,0.0,0.0,0.0,0.0,0.0,0.0,0.0,0.0,0.0,0.9373,0.9753,0.9851,0.9332,0.9742,0.0,0.0,0.0,0.0,0.0,0.0,0.0,1.1206,1.0987,1.0777,1.0605,1.1147,1.2736,1.5334,1.7071,1.8922,2.0709,2.1482,2.0565,1.8413,1.8737,1.7299,1.4904,1.6291,1.5827,1.4483,1.6407,1.5489,1.3433,1.5342,1.4831,1.3224,1.3173,1.3029,1.2707,1.148,1.0972,1.0871,0.0,0.0,0.0,1.4328,1.5842,1.7309,1.9174,2.1128,2.2926,2.3959,2.5097,2.6263,2.738,2.8109,2.8763,2.9249,2.9704,2.9994,2.9994,2.9994,2.9994,2.9994,3.0193,3.0297,2.9994,3.0193,3.0297,2.9994,2.9774,2.9448,2.9132,2.8824,2.8621,2.8291,2.8291,2.8291,2.8291,2.8291,2.8291,2.8291,2.7755,2.7431,2.7431,2.6909,2.6591,2.6591,2.6591,2.6473,2.6127,2.6127,2.6127,2.6017,2.545,2.5221,2.5221,2.4923,2.4479,2.4024,2.4264,2.3697,2.2683,0.0,0.0,0.0,0.0,0.0,0.0,0.0,0.0,0.0,0.0,0.0,0.0,0.0,1.0113,0.9993,0.9723,0.9312,0.0,0.0,0.0,0.0,0.0,0.0,0.0,1.0697,1.105,1.1071,1.0721,1.1389,1.2585,1.4328,1.6538,1.8331,1.974,2.1776,2.1657,2.0073,2.0929,1.945,1.6513,1.7652,1.7179,1.5754,1.5786,1.5457,1.5099,1.5924,1.5508,1.4643,1.4653,1.4996,1.4948,1.2622,1.2253,1.2492,1.1442,1.151,1.2216,1.3618,1.5037,1.6515,1.8405,2.0287,2.2061,2.3076,2.4695,2.6077,2.679,2.7981,2.8942,2.9218,2.9684,2.9994,2.9994,2.9994,2.9994,2.9994,3.0099,3.0099,2.9994,3.0099,3.0099,2.9994,2.9774,2.9337,2.8739,2.8675,2.8502,2.79,2.8144,2.8291,2.8291,2.8291,2.8184,2.8067,2.7647,2.7314,2.7098,2.6791,2.6591,2.6582,2.6364,2.6236,2.6127,2.567,2.556,2.556,2.5331,2.5128,2.4923,2.4599,2.4376,2.4153,2.3697,2.3095,2.245,0.0,0.0,0.0,0.0,0.0,0.0,0.0,0.0,0.0,1.0311,0.0,0.0,0.0,0.0,1.0619,1.055,0.9787,0.9429,0.9712,0.9551,0.0,0.0,0.0,0.0,1.0487,1.1107,1.1259,1.0934,1.1636,1.2578,1.3795,1.5799,1.739,1.8718,2.0914,2.1441,2.0743,2.1613,2.034,1.779,1.9416,1.9118,1.7823,1.8374,1.826,1.7967,1.8748,1.8313,1.7284,1.6973,1.7137,1.6853,1.4035,1.3194,1.3104,1.2142,1.2064,1.2496,1.3411,1.4582,1.5881,1.7478,1.9173,2.0778,2.2227,2.3691,2.5073,2.6094,2.7421,2.8427,2.8959,2.9559,2.9922,2.9973,2.9994,2.9942,2.9787,2.9891,2.9942,2.9777,2.9766,2.9829,2.9984,2.9745,2.9278,2.8709,2.877,2.8599,2.7891,2.8135,2.8291,2.8291,2.8291,2.8184,2.7853,2.7539,2.7323,2.6989,2.6573,2.6473,2.6473,2.6136,2.5898,2.5789,2.5331,2.5221,2.5221,2.5119,2.4915,2.4599,2.4376,2.4041,2.3689,2.2879,2.2235,2.1693,0.0,0.0,0.0,0.0,0.0,0.0,0.0,0.0,1.02,1.0851,0.0,0.0,0.0,0.0,0.0,1.1737,1.122,1.0919,1.0987,1.0421,1.0124,1.0124,1.0493,1.0718,1.0707,1.1025,1.1185,1.1223,1.1797,1.2691,1.3883,1.5025,1.6261,1.7606,1.9,1.9806,2.0261,2.066,1.9908,1.8747,2.1548,2.1764,2.0838,2.4409,2.4171,2.1993,2.3882,2.3128,2.1043,2.007,1.9369,1.8409,1.5729,1.3719,1.2466,1.2745,1.2805,1.2948,0.0,0.0,0.0,1.6414,1.7642,1.9178,2.1297,2.2168,2.3092,2.5398,2.6418,2.7211,2.8322,2.9182,2.9753,2.9891,2.9963,2.9818,2.9363,2.9684,2.9787,2.9332,2.929,2.9466,2.9911,2.9559,2.9271,2.9061,2.9112,2.8814,2.8271,2.8281,2.8281,2.8271,2.8281,2.8174,2.7833,2.752,2.7196,2.6989,2.6327,2.6109,2.6109,2.5789,2.545,2.5212,2.5221,2.5221,2.5119,2.4923,2.4599,2.4376,2.4033,2.3352,2.2515,2.1934,2.113,2.0186,0.0,0.0,0.0,0.0,0.0,0.0,1.1165,1.1237,1.1306,0.0,0.0,0.0,1.1435,1.1309,1.1135,1.081,1.0642,1.0621,1.0849,1.0567,1.0353,1.0238,1.0848,1.1017,1.0651,1.1015,1.1271,1.1346,1.173,1.2242,1.2968,1.4304,1.5328,1.5995,1.6922,1.7687,1.8289,2.0108,2.0843,2.0923,2.1593,2.2433,2.3296,2.3848,2.3872,2.3687,2.3682,2.3451,2.2966,2.1583,2.1672,2.1707,1.7841,1.4895,1.2957,1.3032,1.3096,1.3174,1.3665,0.0,0.0,0.0,0.0,0.0,1.9432,2.0504,2.1864,2.4037,2.5645,2.7024,2.7945,2.9,2.9568,2.9081,2.928,2.9446,2.9321,2.9125,2.8949,2.8825,2.8804,2.8745,2.8665,2.9075,2.8901,2.7981,2.8655,2.878,2.7957,2.8125,2.8048,2.7631,2.7806,2.7601,2.6774,2.6764,2.6602,2.6336,2.5838,2.5604,2.5388,2.5327,2.5191,2.4846,2.4913,2.4812,2.459,2.4487,2.4368,2.4033,2.3464,2.2743,2.1831,2.1286,2.0406,1.9563,0.0,0.0,0.0,0.0,0.0,1.1886,1.1646,1.1577,1.1612,0.0,0.0,0.0,1.1748,1.1875,1.1756,1.1217,1.0955,1.0799,1.0815,1.0433,1.0119,0.9946,1.0536,1.0771,1.0439,1.0941,1.1223,1.1271,1.146,1.1916,1.2605,1.3423,1.4334,1.5262,1.5936,1.6644,1.7356,1.9027,2.0473,2.163,2.2394,2.3442,2.4686,2.5493,2.5623,2.553,2.5606,2.5574,2.5301,2.4174,2.3597,2.2659,1.9269,1.6806,1.4982,1.4028,1.3897,1.41,1.4052,1.4425,1.4998,1.5432,0.0,0.0,1.853,1.9553,2.08,2.321,2.4625,2.5706,2.6819,2.7689,2.8015,2.7615,2.7696,2.799,2.8569,2.8659,2.8545,2.8249,2.8229,2.8102,2.8096,2.8288,2.8097,2.75,2.8251,2.841,2.7824,2.8048,2.7854,2.74,2.7621,2.7308,2.6644,2.6467,2.6291,2.6091,2.537,2.4969,2.4872,2.4711,2.4545,2.4364,2.415,2.3919,2.38,2.3296,2.321,2.3245,2.256,2.1792,2.1038,2.0135,1.941,1.8777,0.0,0.0,0.0,1.233,1.2375,1.2199,1.1827,1.1572,1.1584,0.0,1.1722,1.172,1.2338,1.2953,1.305,1.2374,1.1873,1.1388,1.0913,1.0338,0.9867,0.9572,1.0021,1.0309,1.0309,1.0899,1.1158,1.1082,1.1147,1.1662,1.2552,1.2595,1.3418,1.4942,1.552,1.6218,1.6897,1.7823,1.9376,2.1475,2.3526,2.4727,2.5571,2.8296,2.8547,2.7628,2.8762,2.8649,2.7816,2.7175,2.5063,2.2389,2.0264,1.9052,1.7897,1.5378,1.5051,1.5345,1.4611,1.4644,1.4881,1.5092,1.5698,0.0,1.816,1.8896,1.9969,2.2615,2.3207,2.3728,2.5368,2.5611,2.5712,2.5819,2.555,2.5829,2.7503,2.8064,2.8058,2.7611,2.7462,2.7527,2.7653,2.7381,2.7222,2.73,2.7736,2.7944,2.7796,2.7756,2.7659,2.7182,2.7229,2.7121,2.6859,2.6352,2.606,2.5779,2.4843,2.4342,2.435,2.3892,2.372,2.3578,2.3075,2.2873,2.2739,2.1643,2.1589,2.2198,2.1418,2.0678,1.9939,1.8895,1.8232,1.7868,0.0,0.0,1.2222,1.2831,1.3,1.3068,1.3318,1.308,1.3126,1.3722,1.3833,1.397,1.4233,1.4216,1.3864,1.3136,1.2943,1.2461,1.1571,1.1231,1.0946,1.0619,1.0872,1.0962,1.0914,1.1094,1.1185,1.1088,1.0985,1.1375,1.2212,1.2468,1.3059,1.392,1.4833,1.5509,1.6033,1.7444,1.9451,2.1779,2.3233,2.5436,2.8064,2.9555,3.0161,3.0393,3.0753,3.0686,3.0226,2.8797,2.6688,2.4294,2.1953,2.0621,1.9372,1.6592,1.5984,1.6037,1.534,1.4852,1.463,1.488,1.5155,0.0,1.6459,1.7269,1.8505,2.0782,2.1721,2.2395,2.3634,2.4125,2.4233,2.389,2.3998,2.4676,2.6577,2.6386,2.6325,2.6992,2.682,2.6657,2.6446,2.6911,2.7003,2.6594,2.6996,2.7065,2.6833,2.7151,2.6979,2.6143,2.6452,2.6346,2.5706,2.5103,2.4747,2.4825,2.4026,2.3531,2.3341,2.319,2.288,2.2623,2.2264,2.1952,2.1503,2.0992,2.0899,2.0959,2.0428,1.9467,1.8543,1.8266,1.7661,1.6919,0.0,1.2138,1.2527,1.3465,1.3574,1.3662,1.4192,1.4075,1.4118,1.4582,1.4985,1.4992,1.4523,1.4731,1.455,1.3784,1.4225,1.4024,1.2787,1.2746,1.2417,1.1552,1.1329,1.1164,1.1078,1.1174,1.1136,1.1002,1.1175,1.1551,1.2126,1.2536,1.3128,1.3983,1.4729,1.5812,1.719,1.8027,2.0227,2.3257,2.3798,2.5266,2.7395,2.8932,2.97,2.9979,3.0655,3.101,3.1035,2.9674,2.8012,2.5946,2.3294,2.1685,2.0296,1.7461,1.6801,1.6815,1.5759,1.526,1.4987,1.5062,1.4798,0.0,0.0,1.6689,1.7432,1.9843,2.03,2.0527,2.1438,2.1753,2.1821,2.1719,2.1654,2.2179,2.3725,2.4562,2.5328,2.6283,2.5879,2.5545,2.5563,2.5692,2.5898,2.6148,2.6371,2.6381,2.6182,2.639,2.6201,2.5372,2.5564,2.5468,2.5059,2.4454,2.4262,2.4233,2.3314,2.2724,2.263,2.2159,2.1811,2.1449,2.1093,2.0627,2.0282,1.947,1.9192,1.9106,1.9052,1.8495,1.7802,1.7381,1.6863,1.6223,1.2705,1.2459,1.2561,1.3954,1.4069,1.4149,1.4771,1.4819,1.4898,1.5171,1.582,1.6027,1.5504,1.6003,1.6132,1.5435,1.6337,1.6179,1.4504,1.4546,1.4042,1.2725,1.1849,1.1356,1.1291,1.1227,1.1099,1.0954,1.1383,1.1758,1.2093,1.2631,1.3387,1.4324,1.4913,1.6472,1.8646,1.8766,2.1135,2.478,2.4552,2.5327,2.6824,2.876,2.9487,2.9577,3.0505,3.111,3.1399,3.0432,2.9098,2.7323,2.4527,2.2894,2.1334,1.8328,1.7744,1.7764,1.6392,1.5854,1.5638,1.5656,1.5109,1.5041,0.0,0.0,0.0,1.8975,1.8993,1.8846,1.9453,1.9462,1.9399,1.9412,1.9352,1.9652,2.0624,2.2331,2.3889,2.5023,2.4394,2.404,2.4378,2.4041,2.4202,2.5338,2.5404,2.5348,2.509,2.5433,2.5356,2.4837,2.4837,2.4629,2.4411,2.3927,2.363,2.3528,2.2486,2.1928,2.1835,2.1091,2.0596,2.0385,1.9766,1.9341,1.8993,1.8,1.7477,1.7397,1.7635,1.7582,1.716,1.6318,1.5891,1.5601,1.2907,1.2422,1.235,1.3899,1.4332,1.4636,1.5327,1.5483,1.5633,1.5862,1.6808,1.8205,2.0089,2.0048,1.9958,2.0024,2.039,1.9496,1.6974,1.6376,1.5736,1.4795,1.3106,1.2106,1.1987,1.1463,1.1174,1.1078,1.1423,1.1758,1.2126,1.2764,1.3518,1.4324,1.5343,1.6857,1.8692,1.9014,2.1545,2.5392,2.5297,2.6959,2.9684,3.124,3.2168,3.2619,3.278,3.2503,3.2026,0.0,3.0121,2.8276,2.5756,2.4641,2.361,1.9888,1.9038,1.9076,1.7586,1.6824,0.0,0.0,1.6848,1.6453,1.6934,0.0,1.6901,1.7445,0.0,1.7938,1.8013,0.0,0.0,1.7467,1.7701,1.8239,1.8916,1.9132,2.0121,2.2394,2.2048,2.1689,2.2005,2.1735,2.198,2.3079,2.3324,2.3153,2.2433,2.3918,2.4599,2.4123,2.4123,2.3918,2.3591,2.2996,2.2393,2.1995,2.1546,2.1224,2.1027,2.0235,1.9836,1.9732,1.8695,1.8064,1.7734,1.7397,1.6961,1.643,1.6461,1.6349,1.5998,1.5357,1.4928,1.4719,1.2869,1.2496,1.2498,1.4057,1.4526,1.4947,1.5536,1.633,1.6832,1.6832,1.7784,1.9192,2.0953,2.117,2.1156,2.1015,2.2386,2.1988,0.0,1.8416,1.8188,1.8166,1.4911,1.3517,1.4392,1.308,1.2222,1.1899,1.2362,1.2505,1.2392,1.3022,1.3721,1.4615,1.5384,1.7577,2.0719,2.0911,2.3439,2.7483,2.7739,2.902,3.0854,3.0901,3.1514,3.235,3.3233,3.3194,3.2629,0.0,3.0577,0.0,0.0,0.0,2.4236,2.2258,2.1629,2.1341,2.0462,0.0,0.0,0.0,0.0,0.0,1.6945,0.0,1.6054,0.0,0.0,0.0,0.0,0.0,0.0,0.0,1.6488,1.6781,1.672,1.667,1.7726,2.0606,2.0018,1.9545,1.9905,1.9963,2.0318,2.1055,2.0881,2.0954,2.1258,2.2134,2.2824,2.3203,2.2903,2.2578,2.2486,2.1915,2.142,2.1224,2.0609,2.03,2.0197,1.916,1.8743,1.8639,1.801,1.7589,1.7384,1.6855,1.6324,1.5779,1.5244,1.525,1.5357,1.4713,1.439,1.3959,1.2896,1.257,1.2598,1.4123,1.4592,1.5035,1.5936,1.6935,1.7843,1.8369,1.9377,2.0901,2.3294,2.3738,2.3858,2.3828,2.5416,2.5034,0.0,2.0975,2.0797,2.1348,1.7264,1.5702,1.7313,1.5136,1.3772,1.34,1.3323,1.3083,1.2711,1.3338,1.4072,1.486,1.5776,1.8331,2.1934,2.2453,2.5119,2.9126,2.9521,3.0493,3.1626,3.1271,3.1589,3.2302,3.3433,3.3545,3.2895,3.2247,3.0937,0.0,2.8167,2.6511,2.4941,2.4004,2.349,2.3143,2.2639,0.0,0.0,0.0,0.0,0.0,0.0,0.0,0.0,0.0,0.0,0.0,0.0,0.0,1.6113,1.5425,0.0,1.5438,1.4686,1.4577,1.5536,1.8197,1.7725,1.7476,1.7968,1.792,1.8094,1.875,1.8459,1.8604,1.9397,2.0303,2.1098,2.1697,2.1653,2.1553,2.1402,2.0941,2.0609,2.0411,1.9672,1.9264,1.916,1.8325,1.7911,1.7905,1.7477,1.7272,1.7067,1.6424,1.5785,1.5238,1.46,1.4385,1.439,1.3954,1.3743,1.3423,1.3111,1.2559,1.2413,1.4021,1.4304,1.4902,1.6704,1.7215,1.8344,2.0825,2.1825,2.4146,2.9109,2.9402,2.9535,3.0303,3.0573,2.9342,2.6088,2.4193,2.3372,2.3864,2.0218,1.8874,2.0424,1.7534,1.5879,1.5616,1.4072,1.3163,1.2903,1.3859,1.4481,1.4881,1.6906,1.9044,2.125,2.3082,2.6033,2.9559,2.9923,3.0959,3.2487,0.0,3.3645,3.3481,3.3796,0.0,0.0,3.2319,3.1422,0.0,0.0,0.0,0.0,0.0,0.0,0.0,0.0,0.0,0.0,2.1512,0.0,0.0,0.0,0.0,1.6333,0.0,0.0,0.0,1.6324,1.6473,1.6154,1.4953,1.4816,0.0,0.0,1.2742,1.3279,1.4776,1.4875,1.5242,1.6316,1.518,1.4889,1.6259,1.6048,1.5944,1.6049,1.8459,1.969,1.9411,2.0688,2.117,2.0537,2.03,1.9879,1.9376,1.8743,1.8325,1.8016,1.7799,1.7582,1.7582,1.6942,1.673,1.6624,1.6099,1.5458,1.46,1.4606,1.3959,1.2989,1.2989,1.2881,1.2881,1.455,1.3984,1.3595,1.4374,1.482,1.5578,1.704,1.8856,2.0668,2.2396,2.381,2.6204,3.0365,3.1685,3.194,3.118,3.1524,3.0696,2.8081,2.5983,2.5596,2.7273,2.323,2.1686,2.3324,1.9752,1.8031,1.8308,1.6278,1.54,1.5547,1.5339,1.5362,1.5753,1.734,1.9532,2.2226,2.467,2.7285,2.9955,3.1617,3.2907,3.3918,0.0,3.3866,3.3415,3.3966,3.392,0.0,3.3121,3.2204,3.1124,3.037,2.9627,2.8773,2.7507,2.7359,0.0,0.0,0.0,2.5464,2.4003,0.0,0.0,0.0,0.0,0.0,0.0,0.0,0.0,0.0,1.6156,1.591,1.4063,1.3743,1.3247,0.0,1.1171,1.1019,1.2041,1.2763,1.3326,1.3657,1.3168,1.3097,1.3539,1.3332,1.3567,1.4427,1.5825,1.7201,1.8347,1.8918,1.9353,1.979,1.9053,1.8743,1.8743,1.8108,1.7905,1.8016,1.749,1.7384,1.7279,1.6842,1.6524,1.6099,1.5779,1.5131,1.4277,1.4067,1.3532,1.2881,1.2659,1.2441,1.2223,1.5734,1.5049,1.4509,1.478,1.6023,1.746,1.8686,2.126,2.3733,2.5642,2.724,2.9491,3.3051,3.4425,3.4485,3.3096,3.3275,3.2436,3.019,2.7783,0.0,2.9633,2.5863,2.4431,2.6096,2.2717,2.0943,2.1002,1.8338,1.7132,1.7196,1.6521,1.6267,1.6458,1.82,2.0277,2.2628,2.5745,2.8154,3.0057,3.2988,3.4338,3.4726,0.0,3.4507,3.3736,0.0,3.4447,3.372,3.3708,3.286,3.1835,3.1455,3.081,3.0097,2.9236,2.9066,2.9071,2.8333,2.7912,0.0,2.5467,2.4264,0.0,2.1369,0.0,2.0581,0.0,0.0,0.0,0.0,1.6641,1.5945,1.4222,1.3212,1.2036,0.0,0.9681,0.9355,1.0001,1.0931,1.166,1.1935,1.1614,1.1515,1.164,1.1259,1.156,1.2863,1.404,1.5418,1.6861,1.7633,1.8266,1.8766,1.8164,1.7907,1.8108,1.7582,1.7371,1.7483,1.6955,1.6749,1.6749,1.6418,1.6099,1.5773,1.5364,1.4736,1.3948,1.3654,1.3194,1.2562,1.2413,1.211,1.1673,0.0,1.58,1.5169,1.5308,1.7811,2.0197,2.143,2.4141,2.7138,3.0235,3.1664,3.3622,3.6896,3.7441,3.7195,3.6204,3.5714,3.4603,3.2405,2.9714,0.0,0.0,2.7933,2.7027,2.8626,0.0,0.0,0.0,2.0233,1.8357,1.8064,1.7466,1.7153,1.7116,1.9474,2.114,2.2501,2.6253,2.8488,2.9958,3.3969,3.5239,3.4828,3.598,3.5605,3.4578,3.5524,3.4942,3.3694,3.3859,3.3233,3.2339,3.1798,3.11,3.0363,2.9671,2.9273,2.8953,2.8521,2.8423,2.7925,2.601,0.0,0.0,0.0,0.0,2.1671,0.0,0.0,0.0,0.0,0.0,1.626,1.5283,1.3045,1.0786,0.8921,0.8365,0.8239,0.8595,0.9444,1.0295,1.1134,1.0511,1.0188,1.0511,0.9845,0.9963,1.1233,1.2963,1.4186,1.4883,1.6742,1.7673,1.7401,1.7422,1.7461,1.7515,1.6897,1.6685,1.6692,1.6168,1.5855,1.5855,1.5535,1.5435,1.5417,1.489,1.43,1.3619,1.3503,1.2886,1.207,1.2248,1.1882,1.1131,1.7236,1.7008,1.6896,1.7235,1.8742,2.0452,2.1874,2.3694,2.6482,3.1042,3.1275,3.2806,3.7501,3.8129,3.8009,3.7735,3.6395,0.0,0.0,0.0,0.0,3.0879,2.8792,2.8615,3.0696,2.6356,2.5172,2.7391,2.2232,2.0385,2.1635,1.9713,1.8739,1.8677,2.0149,2.1597,2.3128,2.5867,2.9108,3.2541,3.495,3.5771,3.5634,0.0,3.6753,3.5811,3.5676,3.5524,3.5221,3.447,3.3714,3.2904,3.2089,3.1556,3.0909,3.0201,2.9969,2.9745,2.9112,2.8656,2.8244,2.78,2.6944,2.6162,0.0,0.0,0.0,0.0,0.0,0.0,0.0,0.0,1.731,1.4505,1.1611,0.9278,0.8274,0.7537,0.74,0.8118,0.8072,0.8526,0.9755,1.0025,0.9978,0.9593,0.9537,0.9665,1.002,0.0,1.21,1.2664,1.4038,1.4861,1.4979,1.5295,1.5638,1.5814,1.5815,1.5909,1.6126,1.5813,1.5505,1.5318,1.5198,1.4855,1.4234,1.4355,1.4014,1.3418,1.3357,1.2793,1.2027,1.193,1.1666,1.1459,1.864,1.8388,1.849,1.8976,2.0667,2.2528,2.4149,2.6394,2.9435,3.349,3.3524,0.0,3.8637,3.923,3.891,3.7918,3.733,0.0,3.4461,0.0,0.0,3.2918,3.0656,3.0129,3.1743,2.8052,0.0,2.8197,0.0,2.2159,2.2585,2.0712,1.9735,1.9537,2.079,2.2127,2.3758,2.7002,3.0372,3.3842,3.5496,3.6259,0.0,3.7625,3.7417,3.6586,3.6465,3.6113,3.5625,3.481,3.39,3.2922,3.2107,3.1584,3.108,3.0496,3.0256,3.0068,2.941,2.9071,2.8798,2.8616,2.8039,2.7501,2.7117,2.6346,2.536,0.0,0.0,0.0,0.0,0.0,0.0,1.3314,1.0368,0.8337,0.756,0.6963,0.6832,0.747,0.7374,0.7661,0.8741,0.8931,0.8941,0.8794,0.867,0.8806,0.0,0.0,1.0991,1.1871,1.3058,1.3841,1.4184,1.4759,1.5159,1.5183,1.523,1.5466,1.5577,1.5065,1.4815,1.4723,1.4445,1.4082,1.3555,1.3683,1.3327,1.2871,1.2562,1.2257,1.1978,1.1786,1.1513,1.1345,2.0378,2.006,2.0208,2.0653,2.336,0.0,0.0,3.0367,0.0,3.6673,0.0,3.7436,3.992,4.0307,3.9619,3.7818,3.8385,3.7868,3.5476,3.5148,3.5175,3.5288,3.2718,3.1657,3.2551,3.0282,2.8745,0.0,0.0,2.3709,2.2548,2.115,2.038,2.0155,2.143,2.2937,2.4733,2.8795,3.1903,3.4172,3.5613,3.6713,3.7494,3.8004,3.7729,3.7181,3.7416,3.667,3.5558,3.4964,3.4037,3.2937,3.2051,3.1425,3.1055,3.0691,3.0397,3.0034,2.9577,2.9485,2.9301,2.8943,2.8757,2.8555,2.7958,2.6947,2.5911,2.5139,2.3596,2.2349,0.0,0.0,0.0,1.2261,0.9768,0.8021,0.6914,0.6601,0.6588,0.6884,0.7225,0.0,0.7949,0.7799,0.7762,0.8108,0.7695,0.7745,0.0,0.0,1.0396,1.1487,1.2732,1.3561,1.3999,1.4752,1.5035,1.4803,1.4832,1.4885,1.492,1.4085,1.3778,1.3971,1.347,1.327,1.3151,1.2981,1.2685,1.2167,1.1567,1.1478,1.1797,1.1736,1.146,1.1172,2.1994,2.2572,2.2865,2.2141,2.688,3.0889,3.0969,3.1392,3.3535,3.8463,3.7554,3.7693,4.0974,4.0314,3.9718,3.991,3.8983,0.0,0.0,0.0,0.0,3.4697,3.3311,3.3185,3.456,3.1758,3.0502,0.0,0.0,2.4871,2.4955,2.239,2.1197,2.1181,2.2286,2.4484,2.7509,2.9742,3.1978,3.4198,3.5791,3.6806,3.7374,3.7795,3.7835,3.7756,3.7572,3.6946,3.6067,3.5324,3.4867,3.4169,3.2532,3.1857,3.141,3.0784,3.0318,2.9874,2.9577,2.9301,2.9128,2.885,2.8664,2.8466,2.8287,2.6975,2.5681,2.5761,2.3896,2.2159,2.194,0.0,0.0,0.0,0.0,0.0,0.0,0.6754,0.6703,0.6437,0.7735,0.8265,0.7431,0.7654,0.7857,0.7773,0.7522,0.7516,0.774,0.0,0.9153,0.0,1.1096,0.0,0.0,0.0,1.3509,1.3475,1.3678,1.3903,1.4048,1.3426,1.3137,1.3184,1.3056,1.2718,1.2307,1.244,1.2093,1.1442,1.1305,1.1208,1.1194,1.1367,1.1376,1.1449,2.4787,2.4884,2.5149,2.5643,2.961,0.0,0.0,3.5808,3.7248,3.9717,3.8883,3.9107,4.1694,4.1443,4.0861,4.0425,4.0035,3.926,3.7915,3.7216,3.6881,3.6948,3.5293,3.4824,3.5913,3.3031,3.1348,3.1096,0.0,0.0,2.4633,2.3435,2.2491,2.1929,2.406,2.6394,2.8966,0.0,0.0,3.4521,3.6123,3.7111,3.7586,3.7795,3.7521,3.705,3.7377,3.6766,3.5788,3.5336,3.4878,3.405,3.2412,3.1725,3.1355,3.0638,3.0148,2.9886,2.9577,2.9301,2.9035,2.8675,2.8488,2.8236,2.7607,2.6464,2.5451,2.4947,2.3434,2.1943,2.0965,1.8546,0.0,0.0,0.0,0.0,0.0,0.0,0.7141,0.7086,0.7817,0.8133,0.7544,0.7594,0.7571,0.7353,0.7115,0.7001,0.7051,0.0,0.8088,0.0,0.0,0.0,1.1227,0.0,1.2487,1.2565,1.297,1.3184,1.3335,1.2802,1.267,1.2896,1.2777,1.2505,1.2187,1.1967,1.1585,1.1069,1.086,1.0867,1.0993,1.1092,1.1403,1.1638,2.8067,2.7939,2.8217,2.97,3.2522,3.5377,3.7882,3.9939,4.1279,4.1225,4.0787,4.0967,4.2444,4.2655,4.2145,4.0755,4.1019,4.0709,3.9412,3.9339,3.9237,3.9006,3.729,3.6379,3.6518,3.4298,3.2431,0.0,0.0,0.0,0.0,2.4471,2.3923,2.3069,2.5781,0.0,0.0,0.0,3.402,3.5115,3.6504,3.7364,3.79,3.79,3.7233,3.6348,3.713,3.6572,3.5506,3.5331,3.4789,3.3873,3.245,3.1726,3.1275,3.0468,3.0057,2.9886,2.9577,2.9301,2.8943,2.8488,2.8301,2.7985,2.6858,2.6033,2.5128,2.4057,2.2853,2.1616,2.0099,1.8364,0.0,0.0,0.0,0.0,0.0,0.0,0.7939,0.7951,0.8275,0.8324,0.8034,0.7735,0.7395,0.7024,0.6708,0.6384,0.6081,0.6635,0.7185,0.0,0.0,0.9187,1.0607,0.0,1.1807,1.1883,1.2325,1.2656,1.279,1.2358,1.2279,1.2601,1.2313,1.2219,1.21,1.141,1.098,1.0682,1.0322,1.0427,1.0763,1.0865,1.1173,1.1583,0.0,3.2705,0.0,0.0,0.0,3.8935,3.8999,4.1187,4.3003,4.3406,4.3353,4.3251,4.3464,4.333,4.2921,4.216,4.1625,4.1159,4.0793,4.0503,3.9683,3.8367,3.8445,3.7691,3.5809,3.5751,3.4724,0.0,0.0,2.9283,0.0,0.0,0.0,0.0,0.0,0.0,0.0,3.2281,3.4049,3.5996,3.6737,3.7364,3.79,3.79,3.7417,3.6651,3.6996,3.6606,3.5805,3.5635,3.5108,3.4217,3.3158,3.2112,3.1275,3.0468,3.0057,2.9886,2.9577,2.9209,2.8757,2.8488,2.8019,2.7516,2.6765,2.5767,2.4784,2.3977,2.258,2.1099,1.9869,1.8857,1.7526,0.0,0.0,0.0,0.0,0.0,0.9456,0.8511,0.974,1.0127,0.8901,0.8282,0.7696,0.7106,0.6474,0.5534,0.4067,0.5277,0.646,0.754,0.7936,0.9151,1.1334,1.1186,1.1244,1.1399,1.1795,1.2122,1.2373,1.1925,1.1815,1.1861,1.1711,1.1459,1.1236,1.0891,1.0584,1.0289,1.0168,1.0165,1.0074,1.0367,1.0663,1.0959,0.0,0.0,0.0,0.0,0.0,0.0,0.0,4.1334,4.2528,4.257,4.3514,4.4172,4.4172,4.4036,4.3457,4.2319,4.203,4.1196,3.9304,3.9964,3.9735,3.8289,3.9054,3.8775,3.7487,3.6873,3.5745,0.0,0.0,0.0,0.0,0.0,0.0,0.0,0.0,3.0854,3.2733,3.4115,3.531,3.6188,3.7155,3.7469,3.7364,3.7364,3.661,3.5732,3.6379,3.6067,3.54,3.5401,3.4875,3.4028,3.303,3.1856,3.08,3.0205,2.9783,2.9416,2.9117,2.885,2.8395,2.7925,2.7547,2.7138,2.5923,2.5119,2.4408,2.3334,2.1863,2.0562,1.985,1.8869,1.7579,0.0,0.0,0.0,0.0,0.0,1.0591,1.0099,1.0117,0.994,0.9192,0.8689,0.7944,0.6966,0.6109,0.5373,0.4584,0.4702,0.5511,0.6995,0.0,0.7519,0.9835,0.9958,1.0282,1.0811,1.109,1.14,1.1714,1.1268,1.1276,1.1514,1.1598,1.1459,1.1118,1.0908,1.0605,1.0152,1.0038,1.0146,1.0216,1.0314,1.0703,1.11,3.7772,0.0,3.6854,0.0,3.887,3.9205,4.0186,4.1457,4.2277,4.233,4.3639,4.4511,4.4511,4.4358,4.3622,4.2153,4.203,4.1146,3.9016,3.9708,3.9737,3.8894,3.9404,0.0,3.7811,3.7307,3.6184,3.4403,3.3254,0.0,0.0,0.0,0.0,0.0,3.1461,3.2484,3.3705,3.5305,3.5918,3.5966,3.7155,3.7273,3.6737,3.6737,3.5947,3.4886,3.5763,3.5494,3.4754,3.4828,3.4348,3.3582,3.2651,3.153,3.0409,2.9988,2.9508,2.9035,2.885,2.838,2.7817,2.7243,2.696,2.6428,2.5002,2.4468,2.3817,2.2446,2.1248,2.0272,1.96,1.8547,1.7454,1.6403,0.0,0.0,0.0,1.2011,0.0,1.1131,1.0386,0.9858,0.978,0.9153,0.8447,0.7639,0.6265,0.52,0.4668,0.4525,0.5058,0.0,0.0,0.0,0.8806,0.9033,0.944,1.0134,1.0485,1.0852,1.1123,1.0742,1.0686,1.1,1.119,1.1159,1.0937,1.0866,1.0588,1.0148,1.0018,1.0125,1.0314,1.0413,1.0708,1.1096,3.8947,3.8657,3.8712,3.9606,3.9581,3.9693,4.0193,4.1718,4.2989,4.3538,4.4005,4.4281,4.4281,4.4127,4.3389,4.1903,4.1368,4.1128,4.1018,4.0052,3.9658,0.0,0.0,3.8323,3.5912,3.6809,3.6232,3.4023,0.0,0.0,3.111,0.0,3.0432,3.0509,3.2378,3.3316,3.3705,3.5146,3.5635,3.5404,3.6554,3.6658,3.6109,3.6109,3.5509,3.4674,3.525,3.473,3.3909,3.4008,3.3448,3.2713,3.2273,3.1269,3.0136,2.9977,2.9508,2.9035,2.885,2.7957,2.697,2.6671,2.602,2.5238,2.4094,2.3582,2.2899,2.1092,2.0744,2.0321,1.9022,1.8159,1.7266,1.6309,0.0,0.0,0.0,1.2421,0.0,1.1125,1.0666,1.0473,1.0742,0.9793,0.9374,0.9763,0.0,0.0,0.0,0.0,0.0,0.5428,0.6143,0.0,0.8808,0.8647,0.8914,0.9456,1.0125,1.0413,1.0426,1.0322,1.0305,1.0176,1.0359,1.0436,1.0448,1.0619,1.0481,1.016,1.016,1.0145,1.0019,1.0314,1.0609,1.0801,4.0839,4.1072,4.1241,4.0892,4.0778,4.0417,3.9558,4.083,4.1781,4.147,4.2576,4.3563,4.3864,4.3832,4.3232,0.0,4.2164,4.1456,0.0,4.0559,4.0795,3.9375,3.9655,3.9318,3.7947,3.7413,3.6564,3.5418,0.0,0.0,0.0,3.2059,3.2202,3.2618,3.3177,3.3701,3.4201,3.507,3.537,3.5365,3.6096,3.6057,3.5547,3.5547,3.4925,3.4071,3.4474,3.4312,3.3834,3.3359,3.313,3.2845,3.1686,3.074,2.9977,2.9886,2.8998,2.7909,2.7633,2.6833,2.592,2.5287,2.501,2.457,2.3456,2.2723,2.1821,2.0668,2.0086,1.9563,1.8797,1.7834,1.7017,1.6591,1.5561,0.0,1.441,0.0,1.2291,1.2765,1.139,1.0761,1.1557,1.0763,0.0,0.0,0.0,0.0,0.0,0.0,0.0,0.0,0.6502,0.0,0.8714,0.8843,0.9116,0.9543,0.9792,0.9826,0.983,1.0008,1.0022,0.9981,1.0168,1.0249,1.0253,1.0306,1.0266,1.0268,1.0369,1.0429,1.0515,1.0815,1.0924,1.1096,4.1351,4.117,4.0939,4.0353,4.0142,3.9905,3.9436,4.0751,4.1729,4.1518,4.2516,4.3378,4.3645,4.3596,0.0,4.173,4.2134,4.1521,3.9282,4.0596,4.1001,4.0018,4.0092,3.9532,3.8184,3.7635,0.0,3.5491,3.4553,3.3595,3.2698,3.2841,3.3141,3.36,3.3727,3.4001,3.4437,3.4953,3.507,3.5012,3.5574,3.5469,3.4959,3.4875,3.4386,3.3679,3.3792,3.367,3.332,3.2589,3.2512,3.2475,3.1347,3.0522,2.9886,2.9783,2.8723,2.753,2.7094,2.6237,2.529,2.4411,2.4098,2.3639,2.2703,2.1847,2.1042,2.0343,1.9634,1.9107,1.8572,1.7656,1.6783,1.638,1.5712,1.5018,1.4489,0.0,1.2523,1.3052,0.0,0.0,0.0,1.148,1.0935,0.0,0.0,0.0,0.0,0.0,0.0,0.6648,0.702,0.0,0.8521,0.873,0.9061,0.943,0.9529,0.9628,0.9632,0.9738,0.9786,0.9799,1.0084,1.0269,1.0273,1.0443,1.0468,1.0464,1.0604,1.071,1.0905,1.1025,1.1213,1.1389,4.0607,3.9526,3.865,0.0,3.8433,0.0,3.9899,4.1397,4.257,4.3196,4.3501,4.369,4.369,4.3423,4.2823,4.163,0.0,0.0,0.0,4.0394,4.0516,4.1645,4.0698,3.913,3.7181,3.7606,3.6701,3.4499,3.4112,3.3594,3.2816,3.3122,3.3381,3.3679,3.4022,3.4243,3.4437,3.4717,3.4725,3.445,3.5012,3.4894,3.4397,3.416,3.3894,3.3641,3.324,3.2896,3.2537,3.1925,3.1661,3.1572,3.1151,3.0432,2.9886,2.9588,2.8806,2.7755,2.7125,2.6002,2.4897,2.3938,2.3281,2.2637,2.174,2.1098,2.0473,2.0019,1.9364,1.8848,1.8335,1.7428,1.6477,1.5965,1.5418,1.479,1.4146,1.3008,1.2201,0.0,0.0,0.0,0.0,1.2128,1.2128,0.0,0.0,0.0,0.0,0.0,0.7446,0.6788,0.7683,0.818,0.8208,0.8508,0.8882,0.9236,0.9529,0.9628,0.9628,0.9628,0.9628,0.9636,1.0109,1.0289,1.0403,1.0771,1.0953,1.1057,1.0879,1.0914,1.1194,1.1293,1.1404,1.1688,0.0,0.0,4.0266,3.9621,4.026,4.0909,4.0934,4.201,4.2804,4.2788,4.316,4.3423,4.3423,4.3329,4.3111,4.2678,4.2583,4.2438,4.2158,4.1916,4.1729,4.1673,4.0517,3.934,3.8241,3.7401,3.6141,3.4682,3.4627,3.4314,3.3757,3.397,3.4035,3.3978,3.4262,3.4243,3.4173,3.4386,3.4444,3.441,3.4554,3.4444,3.416,3.3894,3.3556,3.3154,3.2736,3.2562,3.2388,3.1661,3.1484,3.1572,3.0949,3.0329,2.9897,2.9794,2.8598,2.7104,2.6651,2.5359,2.3928,2.3231,2.2218,2.1401,2.1229,2.0624,2.0019,1.9762,1.9011,1.8383,1.7926,1.7051,1.6271,1.5867,1.5504,1.4863,1.3911,1.322,1.2883,0.0,1.2338,1.216,1.2965,1.2465,1.1999,0.0,0.0,0.0,0.9318,0.8973,0.8384,0.7458,0.8204,0.8475,0.8208,0.8815,0.9193,0.9529,0.9529,0.9628,0.9628,0.9826,0.992,0.9924,1.0263,1.0483,1.0686,1.0825,1.1038,1.1383,1.1539,1.162,1.1711,1.1964,1.2132,1.2273,3.857,3.9206,3.973,3.9175,3.9893,4.0839,4.1488,4.206,4.2607,4.3042,4.3199,4.3329,4.3329,4.325,4.3076,4.2915,4.2915,4.285,4.2392,4.2392,4.2213,4.1702,4.0703,3.969,3.8629,3.7453,3.6189,3.4743,3.466,3.4494,3.4243,3.4243,3.4243,3.4076,3.4063,3.4063,3.4076,3.4063,3.423,3.4397,3.4397,3.4314,3.4076,3.381,3.3484,3.3081,3.2562,3.23,3.2125,3.1407,3.1063,3.0937,3.033,2.9633,2.9004,2.9004,2.8069,2.6802,2.613,2.4954,2.3682,2.2811,2.1802,2.0997,2.0997,2.0374,1.9754,1.9762,1.883,1.8045,1.7933,1.7077,1.6211,1.5803,1.517,1.446,1.3446,1.3008,1.2785,1.2924,1.2719,1.2779,1.3366,1.2673,1.2083,1.1826,1.1085,0.0,0.9695,0.9383,0.8879,0.8089,0.8432,0.8642,0.8503,0.8989,0.943,0.9821,0.9821,0.9826,0.992,1.0117,1.0216,1.0216,1.0609,1.0806,1.0998,1.1292,1.1524,1.1908,1.2109,1.2228,1.2299,1.26,1.2676,1.2759,3.7382,3.7781,3.8223,3.8198,3.8788,3.9847,4.1559,4.1791,4.2258,4.3389,4.3364,4.325,4.325,4.3076,4.2835,4.2688,4.2754,4.2688,4.2392,4.231,4.2131,4.1702,4.1029,4.0083,3.8699,3.7572,3.6262,3.4756,3.4494,3.4397,3.4314,3.4243,3.4076,3.3992,3.3894,3.3894,3.3992,3.381,3.3979,3.4314,3.4314,3.4147,3.3992,3.3725,3.3313,3.2909,3.2475,3.2164,3.1741,3.1122,3.059,3.0055,2.9542,2.8805,2.7995,2.7928,2.7401,2.6651,2.5862,2.4798,2.3772,2.2792,2.1811,2.1087,2.1087,2.0292,1.9679,1.9845,1.8862,1.7933,1.8033,1.7206,1.6351,1.5817,1.4888,1.3937,1.3101,0.0,1.2616,1.2683,1.3041,1.3305,1.3485,1.278,1.232,1.2054,1.1118,1.0463,1.0038,0.9607,0.9097,0.8584,0.8729,0.8874,0.9019,0.913,0.9529,1.0019,1.0019,1.0216,1.0413,1.0511,1.0511,1.0507,1.1096,1.1292,1.1394,1.1883,1.2195,1.2453,1.2546,1.2681,1.283,1.3127,1.3244,1.3346,3.6389,3.6785,3.7375,3.7968,3.9063,4.0102,4.0779,4.1806,4.2543,4.2569,4.2827,4.3076,4.3076,4.2835,4.2703,4.2459,4.2295,4.2131,4.2175,4.2175,4.1995,4.1688,4.1029,4.0194,3.9059,3.6945,3.5429,3.4481,3.4397,3.4314,3.416,3.4314,3.4147,3.381,3.4147,3.405,3.3797,3.3992,3.4076,3.416,3.3894,3.3725,3.3484,3.324,3.2909,3.2475,3.2213,3.1746,3.1271,3.0739,3.0209,2.9697,2.9258,2.8596,2.7928,2.7525,2.6953,2.629,2.5955,2.4748,2.3495,2.3067,2.2176,2.1383,2.1526,2.0555,1.9587,1.9679,1.8796,1.8025,1.7807,1.7311,1.6615,1.5852,1.4974,1.4193,1.3505,0.0,1.3088,1.3209,1.3496,1.3768,1.3789,1.2981,1.2409,1.232,1.1292,1.0463,1.0294,0.9777,0.9598,0.9591,0.9266,0.9263,0.9817,0.9628,0.9826,1.0314,1.0314,1.0314,1.0413,1.09,1.1096,1.1096,1.1683,1.198,1.2273,1.2565,1.2786,1.3008,1.3266,1.3368,1.3397,1.3454,1.3727,1.4136,3.5808,3.631,3.7041,3.7586,3.8575,3.9571,4.0379,4.137,4.2121,4.2389,4.2753,4.2981,4.2981,4.2688,4.2459,4.2213,4.1951,4.18,4.1745,4.1745,4.1731,4.1688,4.093,3.9726,3.7962,3.6098,3.4936,3.4397,3.4397,3.4314,3.4243,3.4397,3.423,3.3894,3.4147,3.4147,3.3882,3.3669,3.3887,3.4191,3.332,3.3091,3.3071,3.2625,3.2365,3.2276,3.2178,3.1846,3.1382,3.1027,3.0506,3.0086,2.9725,2.9089,2.853,2.8344,2.7045,2.5626,2.5283,2.4349,2.3416,2.2882,2.2097,2.1338,2.0917,2.0162,1.9462,1.9282,1.8549,1.7965,1.7785,1.7208,1.6571,1.592,1.4867,0.0,0.0,1.3372,1.3212,1.3261,1.3694,1.3975,1.389,1.2848,1.2248,1.2248,1.1014,1.026,1.0293,0.9948,0.9863,1.0171,0.9901,0.9942,1.0216,1.0117,1.0216,1.0609,1.0609,1.0806,1.1096,1.1292,1.1487,1.1683,1.2175,1.2467,1.2662,1.305,1.334,1.3528,1.3817,1.4016,1.4226,1.4467,1.4716,1.5039,3.5504,3.6009,3.6661,3.727,3.7976,3.8772,3.9978,4.0726,4.1384,4.2058,4.2451,4.2752,4.282,4.2459,4.2131,4.1951,4.1573,4.132,4.1181,4.0955,4.0926,4.1306,4.0209,3.8701,3.6671,3.55,3.4721,3.4397,3.4397,3.4397,3.4397,3.4397,3.4249,3.3882,3.4108,3.4017,3.3662,3.3364,3.3485,3.3845,3.273,3.2474,3.2841,3.2255,3.2111,3.2215,3.2215,3.1884,3.1339,3.1075,3.0638,3.0202,2.9808,2.9307,2.8893,2.8687,2.7037,2.5295,2.4786,2.4029,2.3258,2.2727,2.1873,2.1031,2.0376,1.9686,1.9159,1.8894,1.8337,1.7848,1.7742,1.7125,1.6581,1.6255,0.0,0.0,0.0,1.3663,1.3229,1.3421,1.386,1.4079,1.3788,1.2887,1.2221,1.2227,1.1025,1.0346,1.0514,1.0253,1.0237,1.0696,1.0604,1.0511,1.0511,1.0511,1.0605,1.0904,1.0904,1.1096,1.1585,1.1683,1.1878,1.2175,1.2759,1.2958,1.305,1.3534,1.3955,1.4189,1.4485,1.4727,1.5099,1.5509,1.5789,1.5927,3.5504,3.5549,3.5953,3.7195,3.7449,3.7943,3.929,4.0053,4.0636,4.1156,4.1562,4.1945,4.24,4.2034,4.1785,4.1702,4.0755,4.0359,4.0539,3.9655,3.942,4.0165,3.8601,3.7057,3.5738,3.543,3.4959,3.4397,3.4397,3.4397,3.4397,3.4397,3.3957,3.3325,3.4092,3.3658,3.2549,3.304,3.2963,3.2497,3.1937,3.2243,3.2836,3.2606,3.244,3.2215,3.2453,3.1631,3.0536,3.0363,2.9991,2.9452,2.859,2.8514,2.8445,2.7367,2.6451,2.5728,2.5285,2.4219,2.3237,2.3123,2.1805,2.0519,2.0482,1.9453,1.8601,1.8514,1.8169,1.7861,1.7613,1.7334,1.7026,1.6691,0.0,0.0,1.5137,1.4216,1.3614,1.3891,1.4063,1.3987,1.3596,1.3034,1.2747,1.277,1.159,1.0992,1.1191,1.0828,1.0753,1.1272,1.0895,1.0806,1.0806,1.0806,1.09,1.1194,1.1194,1.1292,1.159,1.1883,1.2273,1.2764,1.3249,1.363,1.3908,1.4394,1.474,1.506,1.5262,1.5623,1.5959,1.6267,1.648,1.6827,3.5148,3.5474,3.6089,3.7064,3.7555,3.834,3.9828,4.0517,4.1022,4.1585,4.1568,4.1565,4.1748,4.1157,4.0588,4.0359,3.9982,3.969,3.9541,3.8622,3.8308,3.8686,3.7438,3.6404,3.5574,3.5076,3.4633,3.4397,3.4397,3.4397,3.4397,3.4397,3.4027,3.3424,3.3796,3.3443,3.2606,3.2397,3.241,3.2475,3.1369,3.1342,3.1963,3.1312,3.1388,3.1749,3.1816,3.1698,3.1423,3.067,3.0771,3.0879,2.9702,2.9436,2.925,2.7059,2.6362,2.604,2.483,2.4012,2.3368,2.2659,2.1704,2.069,2.0016,1.9213,1.8473,1.8228,1.7736,1.7462,1.7313,1.7014,1.6752,1.6443,0.0,1.533,1.5524,1.4867,1.4342,1.4282,1.42,1.3995,1.3543,1.278,1.2331,1.2342,1.1384,1.0925,1.1293,1.1258,1.1214,1.1253,1.1277,1.1356,1.1585,1.1394,1.1389,1.1683,1.1742,1.1849,1.2073,1.2502,1.2984,1.3565,1.4087,1.4491,1.4961,1.4927,1.5344,1.5831,1.575,1.6157,1.674,1.7022,1.7278,1.7561,3.5244,3.5421,3.6005,3.7278,3.7664,3.8344,3.9888,4.0338,4.0708,4.1332,4.1018,4.0871,4.1061,4.0459,3.9866,3.9562,3.9216,3.8956,3.8647,3.7816,3.7259,3.7111,3.6385,3.5742,3.5226,3.4677,3.4319,3.4219,3.4219,3.4127,3.3944,3.3944,3.3642,3.3051,3.3221,3.2881,3.2136,3.1927,3.1967,3.2084,3.0919,3.1008,3.1616,3.0933,3.1139,3.1824,3.1656,3.1759,3.186,3.0889,3.1067,3.1583,3.0311,2.9819,2.9236,2.7158,2.6628,2.6312,2.4538,2.4015,2.369,2.2422,2.1631,2.0933,1.9787,1.9144,1.8628,1.8037,1.7603,1.7249,1.7133,1.6829,1.6513,1.6327,1.5937,1.565,1.5794,1.5218,1.4752,1.45,1.4109,1.3711,1.3279,1.2765,1.235,1.2254,1.165,1.1248,1.138,1.1619,1.164,1.1497,1.1624,1.1877,1.2247,1.1935,1.1778,1.1971,1.2109,1.2305,1.255,1.3109,1.3676,1.4202,1.4796,1.5356,1.5771,1.57,1.6039,1.6726,1.652,1.6885,1.7486,1.7803,1.7987,1.8343,3.5976,3.5392,3.5569,3.7712,3.7604,3.7689,3.9158,3.9265,3.9357,4.004,3.9723,3.9715,4.0359,4.0039,3.9722,3.9467,3.8658,3.8145,3.7892,3.7107,3.6312,3.548,3.5399,3.5059,3.4397,3.4384,3.4206,3.3898,3.3898,3.3582,3.2988,3.2988,3.2528,3.1862,3.2437,3.2058,3.1026,3.1588,3.1509,3.0986,3.0773,3.125,3.2053,3.19,3.2189,3.2607,3.2032,3.1836,3.1667,3.0714,3.0714,3.0904,3.0035,2.9015,2.806,2.7579,2.7184,2.647,2.4327,2.4138,2.4154,2.2604,2.1839,2.1144,1.9929,1.9434,1.9044,1.8189,1.7755,1.7508,1.7254,1.6838,1.6591,1.6591,1.6126,1.5824,1.6087,1.5325,1.465,1.4398,1.3892,1.3285,1.2768,1.2907,1.2962,1.2683,1.2495,1.2124,1.1666,1.1895,1.201,1.2043,1.1994,1.2197,1.2683,1.2285,1.2036,1.2036,1.2315,1.2509,1.2714,1.359,1.4307,1.4801,1.5582,1.6117,1.6306,1.661,1.7032,1.7647,1.7531,1.7795,1.828,1.8389,1.8684,1.8988,3.6166,3.6385,3.6821,3.7607,3.7915,3.8517,3.9743,3.9728,3.9815,4.048,3.9912,3.9478,3.9528,3.9059,3.8553,3.8167,3.7933,3.7586,3.713,3.6819,3.647,3.5884,3.5316,3.4781,3.4298,3.382,3.3622,3.3449,3.3449,3.3357,3.3171,3.3079,3.2684,3.222,3.2083,3.1756,3.1211,3.1245,3.1281,3.1421,3.1198,3.1466,3.1923,3.1611,3.1717,3.2088,3.1739,3.2013,3.2253,3.0979,3.1085,3.1551,3.0112,2.9172,2.8306,2.6853,2.6259,2.5597,2.3631,2.3132,2.3078,2.2678,2.2333,2.1729,2.0956,2.0211,1.938,1.81,1.7638,1.7228,1.6565,1.6565,1.664,1.6474,1.6223,1.5997,1.6087,1.5416,1.4909,1.4679,1.4276,1.3799,1.3566,1.329,1.315,1.3059,1.278,1.2445,1.1926,1.2143,1.2159,1.2003,1.2143,1.2327,1.2517,1.2488,1.2592,1.277,1.2881,1.2989,1.3335,1.4539,1.5303,1.567,1.6667,1.7353,1.7681,1.7161,1.7322,1.7816,1.7591,1.7858,1.853,1.8552,1.8935,1.9503,3.6359,3.6635,3.7056,3.7521,3.7974,3.8576,3.9432,3.9461,3.9534,3.9932,3.9411,3.8949,3.8964,3.8524,3.8052,3.7625,3.7457,3.6951,3.6011,3.6283,3.6142,3.5411,3.4758,3.4353,3.4353,3.3647,3.3221,3.3058,3.3135,3.3104,3.2876,3.276,3.2573,3.23,3.2013,3.1814,3.1703,3.1421,3.1643,3.1982,3.1703,3.1936,3.23,3.1996,3.2158,3.2494,3.2004,3.23,3.2718,3.1492,3.1307,3.1481,3.0522,2.9496,2.8445,2.7394,2.6671,2.5825,2.4408,2.3816,2.358,2.353,2.2814,2.1927,2.1302,2.07,1.9953,1.8499,1.7801,1.731,1.6492,1.6417,1.6484,1.6394,1.6245,1.6087,1.6087,1.5506,1.5028,1.4981,1.4502,1.4102,1.4032,1.3687,1.3398,1.3206,1.3112,1.2809,1.2227,1.2452,1.2476,1.2301,1.2645,1.2868,1.2939,1.3273,1.338,1.3281,1.3489,1.3725,1.4058,1.5345,1.6012,1.6143,1.7282,1.7834,1.8002,1.7626,1.7829,1.8225,1.8215,1.8512,1.9066,1.8888,1.9344,1.9893,3.6519,3.6446,3.6721,3.7477,3.7768,3.8148,3.8694,3.8782,3.8782,3.8782,3.8501,3.8263,3.8368,3.8204,3.7979,3.7539,3.7197,3.641,3.5008,3.5681,3.5647,3.4582,3.4048,3.3929,3.4416,3.363,3.3055,3.2718,3.2895,3.2772,3.2241,3.2359,3.2345,3.2128,3.2128,3.2173,3.2263,3.1942,3.2146,3.2621,3.2263,3.2448,3.3058,3.2846,3.3135,3.3491,3.2477,3.2641,3.311,3.2144,3.1442,3.0947,3.1048,2.9973,2.8724,2.8743,2.79,2.6735,2.5914,2.5392,2.4912,2.4438,2.312,2.1828,2.1379,2.1161,2.0585,1.9416,1.8443,1.7619,1.6894,1.6409,1.6245,1.6394,1.6245,1.6087,1.6087,1.5506,1.512,1.5254,1.4603,1.4278,1.4385,1.4084,1.3641,1.3193,1.3405,1.325,1.2546,1.2685,1.2895,1.2832,1.3401,1.3733,1.3931,1.4443,1.44,1.3641,1.4082,1.45,1.4801,1.6195,1.6626,1.6495,1.7573,1.7966,1.7676,1.8052,1.8372,1.8694,1.9153,1.9493,1.9682,1.9493,1.9843,2.0292,3.7201,3.7462,3.7694,3.7434,3.7916,3.8502,3.8767,3.8782,3.8782,3.8782,3.8575,3.8177,3.7623,3.7506,3.7343,3.6971,3.6943,3.6669,3.5849,3.5995,3.5798,3.5106,3.4315,3.3886,3.4002,3.3262,3.2818,3.2681,3.3054,3.3127,3.2846,3.2704,3.2561,3.2345,3.2345,3.2014,3.1436,3.1365,3.1719,3.2208,3.1929,3.25,3.3452,3.3283,3.3382,3.3494,3.283,3.2643,3.2739,3.2123,3.1569,3.1259,3.1556,3.0934,2.9923,2.8948,2.7779,2.6452,2.5188,2.4161,2.3356,2.3084,2.2263,2.169,2.2736,2.2554,2.1808,2.0495,1.9326,1.8256,1.7619,1.6976,1.6574,1.6648,1.6327,1.6087,1.6087,1.5506,1.5204,1.5426,1.4863,1.4636,1.5013,1.4615,1.4192,1.3654,1.3686,1.3597,1.3404,1.3284,1.355,1.413,1.4099,1.433,1.4747,1.506,1.504,1.4746,1.4838,1.5173,1.5556,1.656,1.7106,1.7244,1.8324,1.8852,1.895,1.9016,1.9106,1.9137,1.9447,1.9678,1.987,2.0046,2.0443,2.0907,3.6504,3.6881,3.7099,3.6489,3.704,3.7609,3.7594,3.7666,3.7739,3.7652,3.7521,3.7375,3.7302,3.7229,3.6993,3.6771,3.6603,3.6226,3.5384,3.5268,3.4913,3.4309,3.38,3.3547,3.3633,3.3325,3.3002,3.2846,3.3213,3.3368,3.3297,3.3297,3.3059,3.2626,3.2626,3.2208,3.1569,3.1364,3.1718,3.2283,3.2122,3.2635,3.3507,3.3463,3.3452,3.3382,3.3002,3.2917,3.2889,3.2315,3.1969,3.1769,3.1414,3.0429,2.9265,2.81,2.6928,2.5701,2.4835,2.393,2.3242,2.3113,2.2616,2.2334,2.2687,2.2518,2.1919,2.1029,1.9842,1.8769,1.8124,1.7245,1.6566,1.6656,1.6409,1.6237,1.6237,1.5831,1.5624,1.5769,1.5469,1.5193,1.517,1.5001,1.4609,1.4137,1.4124,1.4051,1.3906,1.3808,1.4025,1.4656,1.4724,1.5034,1.5694,1.6036,1.619,1.6344,1.5828,1.5824,1.6414,1.7103,1.7536,1.7786,1.8593,1.9039,1.9162,1.9458,1.9572,1.9641,2.0078,2.0365,2.0464,2.0555,2.0826,2.1195,3.5558,3.588,3.6112,3.5543,3.6105,3.6543,3.6387,3.6529,3.6529,3.6387,3.6315,3.6519,3.707,3.7083,3.6919,3.6696,3.6481,3.585,3.4724,3.4452,3.407,3.3354,3.3213,3.3227,3.3326,3.3591,3.3521,3.3129,3.3577,3.3687,3.3573,3.3794,3.3436,3.2739,3.282,3.2462,3.1825,3.1664,3.1846,3.2283,3.2312,3.2687,3.318,3.3271,3.321,3.3072,3.2821,3.2765,3.2723,3.2222,3.204,3.1857,3.1047,2.9683,2.826,2.7417,2.6253,2.515,2.4758,2.423,2.378,2.3541,2.3248,2.2818,2.2182,2.1925,2.1741,2.1399,2.03,1.9208,1.865,1.7491,1.6722,1.6812,1.6648,1.6476,1.6476,1.6245,1.6103,1.6207,1.6082,1.574,1.529,1.5205,1.5014,1.4587,1.4482,1.4482,1.4307,1.4355,1.4695,1.5259,1.5478,1.5972,1.6762,1.703,1.7441,1.7815,1.697,1.68,1.7268,1.7713,1.8063,1.828,1.884,1.9082,1.9012,1.9745,2.011,2.011,2.0826,2.1087,2.1087,2.1087,2.1284,2.1571,3.5558,3.588,3.6168,3.5653,3.616,3.6684,3.684,3.6684,3.6614,3.6543,3.6387,3.6344,3.6431,3.6808,3.6919,3.6696,3.6954,3.6575,3.5184,3.5173,3.4737,3.3592,3.3675,3.3744,3.3536,3.4005,3.4059,3.3701,3.4278,3.4191,3.3411,3.3623,3.3209,3.2198,3.26,3.2124,3.1211,3.1982,3.1974,3.1352,3.1825,3.2082,3.2176,3.2197,3.2174,3.2108,3.1763,3.1211,3.0745,3.0899,3.0788,3.0619,3.1043,3.008,2.8712,2.826,2.7083,2.5758,2.515,2.4448,2.3809,2.3666,2.2979,2.2258,2.2348,2.2262,2.2046,2.185,2.0779,1.9673,1.9295,1.8379,1.7708,1.7392,1.6976,1.6648,1.6648,1.6335,1.6102,1.6148,1.6073,1.5899,1.5376,1.5376,1.5285,1.5006,1.5006,1.5075,1.5228,1.5495,1.6051,1.6813,1.6967,1.7303,1.7925,1.7971,1.8087,1.8357,1.8211,1.8218,1.8265,1.8404,1.8674,1.9096,1.952,1.9795,1.9837,2.0546,2.0736,2.0654,2.1114,2.1392,2.1392,2.1553,2.1741,2.2008,3.5412,3.5729,3.5831,3.554,3.5799,3.5956,3.559,3.5394,3.5325,3.5256,3.5102,3.5163,3.5438,3.5855,3.6237,3.6504,3.5911,3.5356,3.4879,3.4525,3.4186,3.3633,3.3827,3.4005,3.4303,3.4037,3.3914,3.4149,3.4611,3.4222,3.3162,3.3657,3.3289,3.2167,3.2196,3.1722,3.091,3.117,3.1127,3.0939,3.1246,3.1503,3.1737,3.1724,3.1669,3.1537,3.1177,3.0692,3.0308,3.0663,3.0566,3.0197,2.9744,2.9068,2.8076,2.6724,2.5589,2.4694,2.4091,2.3633,2.3318,2.3015,2.2638,2.2252,2.2101,2.2039,2.1957,2.2056,2.1214,2.0353,2.0104,1.8887,1.7959,1.7797,1.7392,1.7066,1.7066,1.7161,1.704,1.6773,1.6436,1.6154,1.5831,1.5824,1.5748,1.5673,1.5673,1.5665,1.5824,1.6147,1.6564,1.7056,1.7481,1.7918,1.8458,1.8643,1.8827,1.9112,1.9112,1.9012,1.8912,1.8912,1.9188,1.9563,1.9837,2.011,2.0382,2.0817,2.1006,2.1114,2.1472,2.1571,2.1562,2.183,2.2008,2.2097]}]]